     2              OBSERVATION DATA    GPS                 RINEX VERSION / TYPE
teqc 1999Jul19 20000201 02:05:55UTC                         PGM / RUN BY / DATE
                                                            COMMENT
L2: 1 -> 1; 5 -> 5; 60 -> 9                                 COMMENT
L2: 1 -> 1; 5 -> 5; 60 -> 9                                 COMMENT
L2: 1 -> 1; 5 -> 5; 60 -> 9                                 COMMENT
L2: 1 -> 1; 5 -> 5; 60 -> 9                                 COMMENT
L2: 1 -> 1; 5 -> 5; 60 -> 9                                 COMMENT
Original Marker Name: 0040                                  COMMENT
Campaign Name: Imperial Valley Leveling                     COMMENT
4-Character Station Name: 0040                              COMMENT
6-Character Antenna Code: TRMSST                            COMMENT
Vertical Measurement Point: BPA                             COMMENT
Vertical Offset to Rinex Ref. Point: 0.0000                 COMMENT
Radial Measurement Point: RRP                               COMMENT
Radial Offset to Rinex Ref. Point: 0.0000                   COMMENT
Antenna Height from Field Measurement: 2.2140 m             COMMENT
Additional Antenna Identification Info.:                    COMMENT
Model 14532.00                                              COMMENT
Original XYZ: -2304211.0749 -4830726.7818 3457394.3419      COMMENT
New XYZ position is based on association with SCEC monument COMMENT
E1C8Z2L6+0011. Position of that monument is believed to be  COMMENT
valid to within 1 m horizontally; vertical accuracy         COMMENT
should be no worse than 3-times this value.                 COMMENT
                                                            COMMENT
Revised Rinex header created by UCSD GPS archive for        COMMENT
GSAC on 17-Jul-2000 (2000:199) 22:08:57 GMT                 COMMENT
For assistance contact dagnew@ucsd.edu                      COMMENT
or anderson@python.ucsd.edu                                 COMMENT
                                                            COMMENT
HAMAR                                                       MARKER NAME
0040                                                        MARKER NUMBER
-Unknown- CALIF DEPT TRANSPORTATION                         OBSERVER / AGENCY
7371 TRIMBLE 4000 SSE NP 6.04; SP 2.07                      REC # / TYPE / VERS
S/N UNKNOWN TR 4000SST L1/L2 GEO                            ANT # / TYPE
 -2304221.8601 -4830735.6015  3457397.6530                  APPROX POSITION XYZ
        2.2140        0.0000        0.0000                  ANTENNA: DELTA H/E/N
     1     1     0                                          WAVELENGTH FACT L1/2
     7    C1    L1    L2    P1    P2    S1    S2            # / TYPES OF OBSERV
     0                                                      INTERVAL
  1995     4    24    14    57   45.000000                  TIME OF FIRST OBS
  1995     4    24    22     1   15.000000                  TIME OF LAST OBS
                                                            END OF HEADER
 95  4 24 14 57 45.0000000  0  7G14G18G19G22G28G29G31
                    176112.30615    137230.32715  23338335.555    23338338.742
         8.750           7.750
                    -32713.22017    -25490.88916  20372063.969    20372064.609
        22.250          21.000
                    -43037.13416    -33535.84216  21458144.766    21458146.008
        17.250          17.250
                    162748.22215    126816.69015  23378186.906    23378188.156
        10.500           9.250
                    -37306.89115    -29070.03015  23390055.680    23390056.547
        10.000           8.500
                     38091.39017     29681.86216  20501741.672    20501742.051
        20.250          20.250
                     -4917.22915                                  23480110.344
         7.750
 95  4 24 14 58  0.0000000  0  8G14G18G19G22G27G28G29G31
                    235778.200 5    183723.224 5  23349689.477    23349692.742
         8.750           7.750
                    -44101.256 7    -34364.662 6  20369896.844    20369897.500
        22.250          21.000
                    -58054.787 6    -45237.887 6  21455286.992    21455288.227
        17.250          17.250
                    217900.095 5    169792.187 5  23388682.039    23388683.461
        10.750           9.500
                    -22760.382 3    -17735.31415  24144753.234    24144755.043
         5.750           6.000
                    -50230.252 5    -39140.160 5  23387596.555    23387597.328
        10.000           8.250
                     50867.870 7     39637.579 6  20504173.156    20504173.668
        20.500          20.250
                    -41904.385 5    -21146.81615  23473071.797    23473074.234
         8.000           7.250
 95  4 24 14 58 15.0000000  0  8G14G18G19G22G27G28G29G31
                    295284.750 5    230091.947 5  23361013.180    23361016.711
         8.500           8.000
                    -55588.589 7    -43315.816 6  20367710.789    20367711.461
        22.250          21.000
                    -73223.236 6    -57057.431 6  21452400.609    21452401.773
        17.000          17.250
                    272909.503 5    212656.660 5  23399150.195    23399151.512
        11.000           9.750
                    -53945.756 3    -42035.573 5  24138818.547    24138820.418
         5.750           5.750
                    -63232.002 5    -49271.367 5  23385122.289    23385123.297
        10.000           8.500
                     63566.863 7     49532.911 6  20506589.664    20506590.160
        20.500          20.250
                    -79047.641 5    -50089.580 5  23466003.758    23466005.855
         8.250           7.250
 95  4 24 14 58 30.0000000  0  8G14G18G19G22G27G28G29G31
                    354637.614 5    276340.901 5  23372307.570    23372311.328
         8.500           8.250
                    -67173.722 7    -52343.172 6  20365506.242    20365506.898
        22.250          21.000
                    -88536.304 6    -68989.672 6  21449486.594    21449487.762
        17.250          17.250
                    327779.927 5    255412.839 5  23409591.758    23409593.063
        11.250          10.000
                    -85300.755 3    -66468.007 5  24132851.773    24132854.051
         5.750           5.750
                    -76306.649 5    -59459.383 5  23382634.195    23382635.355
        10.000           8.500
                     76194.659 7     59372.763 6  20508992.758    20508993.215
        20.500          20.250
                   -116340.834 5    -79149.183 5  23458907.375    23458909.297
         8.250           7.250
 95  4 24 14 58 45.0000000  0  8G14G18G19G22G27G28G29G31
                    413852.537 5    322482.370 5  23383575.891    23383579.617
         8.500           8.250
                    -78847.015 7    -61439.229 6  20363285.008    20363285.539
        22.250          21.000
                   -103980.200 6    -81023.857 6  21446547.594    21446548.867
        17.250          17.500
                    382520.954 5    298068.186 5  23420008.594    23420009.973
        11.500          10.250
                   -116815.978 3    -91025.302 5  24126854.633    24126856.902
         5.750           5.750
                    -89443.303 5    -69695.715 5  23380134.570    23380135.461
        10.250           8.500
                     88759.833 7     69163.820 6  20511383.891    20511384.387
        20.500          20.500
                   -153770.073 5   -108314.792 5  23451784.633    23451786.527
         8.250           7.250
 95  4 24 14 59  0.0000000  0  8G14G18G19G22G27G28G29G31
                    472933.301 5    368519.294 5  23394818.750    23394822.184
         8.500           8.250
                    -90604.771 7    -70601.101 6  20361047.609    20361048.047
        22.500          21.000
                   -119549.518 6    -93155.773 6  21443585.008    21443586.141
        17.250          17.750
                    437133.259 5    340623.233 5  23430400.898    23430402.398
        11.000          10.250
                   -148493.007 3   -115708.677 5  24120826.586    24120828.578
         5.750           5.750
                   -102639.933 5    -79978.781 5  23377623.289    23377624.207
        10.000           8.500
                    101262.737 7     78906.357 6  20513763.242    20513763.672
        20.500          20.500
                   -191332.367 5   -137584.087 5  23444636.852    23444638.801
         8.250           7.500
 95  4 24 14 59 15.0000000  0  8G14G18G19G22G27G28G29G31
                    531880.503 5    414452.159 5  23406036.422    23406039.391
         8.750           8.250
                   -102443.561 7    -79826.118 6  20358794.695    20358795.215
        22.500          21.000
                   -135236.347 6   -105379.258 6  21440600.047    21440601.336
        17.500          17.750
                    491623.618 5    383083.253 5  23440770.000    23440771.426
        10.750          10.250
                   -180329.320 3   -140516.165 5  24114768.297    24114770.441
         5.750           5.750
                   -115892.202 5    -90305.202 5  23375101.273    23375102.617
        10.000           8.500
                    113704.270 7     88601.070 6  20516130.688    20516131.113
        20.500          20.250
                   -229022.775 5   -166953.210 5  23437464.563    23437466.695
         8.500           7.500
 95  4 24 14 59 30.0000000  0  8G14G18G19G22G27G28G29G31
                    590687.069 5    460275.428 5  23417226.953    23417229.902
         8.500           8.250
                   -114363.726 7    -89114.547 6  20356526.414    20356526.820
        22.500          21.000
                   -151042.401 6   -117695.647 6  21437592.133    21437593.500
        17.500          18.000
                    545990.017 5    425446.680 5  23451115.516    23451117.004
        10.250          10.000
                   -212327.204 3   -165449.564 5  24108679.508    24108681.609
         6.000           5.500
                   -129204.253 5   -100678.203 5  23372568.195    23372569.477
        10.000           8.750
                    126076.278 7     98241.609 6  20518484.992    20518485.375
        20.500          20.250
                   -266843.195 5   -196423.634 5  23430267.484    23430269.688
         8.250           7.500
 95  4 24 14 59 45.0000000  0  8G14G18G19G22G27G28G29G31
                    649360.138 5    505994.676 5  23428391.875    23428395.082
         8.250           8.500
                   -126355.815 7    -98459.017 6  20354244.602    20354244.973
        22.500          20.750
                   -166957.746 6   -130097.194 6  21434563.617    21434564.859
        17.750          18.000
                    600240.814 5    467720.023 5  23461439.039    23461440.563
        10.250           9.750
                   -244478.468 4   -190502.478 5  24102561.398    24102563.105
         6.250           5.750
                   -142568.660 5   -111092.010 5  23370025.102    23370026.129
        10.250           8.500
                    138383.250 7    107831.466 6  20520826.852    20520827.246
        20.500          20.250
                   -304784.513 5   -225988.269 5  23423047.375    23423049.445
         8.250           7.750
 95  4 24 15  0  0.0000000  0  8G14G18G19G22G27G28G29G31
                    707899.364 5    551609.625 5  23439531.578    23439534.773
         7.750           8.500
                   -138423.233 7   -107862.187 6  20351948.117    20351948.582
        22.500          21.000
                   -182984.159 6   -142585.288 6  21431514.188    21431515.305
        18.000          18.250
                    654373.038 5    509900.975 5  23471740.055    23471741.648
        10.000           9.500
                   -276784.312 4   -215675.850 5  24096413.961    24096416.031
         6.250           6.000
                   -155988.384 5   -121548.920 5  23367471.422    23367472.422
        10.250           8.750
                    150622.648 7    117368.669 6  20523155.859    20523156.277
        20.250          20.250
                   -342848.021 5   -255648.116 5  23415804.000    23415806.188
         8.250           7.750
 95  4 24 15  0 15.0000000  0  8G14G18G19G22G27G28G29G31
                    766310.817 5    597125.002 5  23450647.016    23450650.145
         8.000           8.750
                   -150555.223 7   -117315.671 6  20349639.617    20349640.066
        22.500          21.000
                   -199115.906 6   -155155.471 6  21428444.258    21428445.578
        18.000          18.250
                    708389.371 5    551991.625 5  23482019.078    23482020.668
        10.000           9.500
                   -309237.101 3   -240963.715 5  24090238.203    24090240.531
         6.000           6.250
                   -169456.585 5   -132043.597 5  23364908.313    23364909.645
        10.250           8.750
                    162802.838 7    126859.734 6  20525473.656    20525474.098
        20.250          20.250
                   -381026.284 5   -285397.380 5  23408538.977    23408541.297
         8.250           8.000
 95  4 24 15  0 30.0000000  0  8G14G18G19G22G27G28G29G31
                    824590.154 5    642537.433 5  23461737.469    23461740.363
         8.000           8.500
                   -162752.692 7   -126820.179 6  20347318.383    20347318.875
        22.500          21.000
                   -215357.045 6   -167810.883 6  21425353.547    21425354.988
        18.000          18.250
                    762287.763 5    593990.370 5  23492275.523    23492277.094
         9.750           9.500
                   -341838.372 3   -266367.272 5  24084034.297    24084036.750
         6.000           6.500
                   -182976.284 5   -142578.409 5  23362335.805    23362336.809
        10.250           9.000
                    174921.507 7    136302.862 6  20527779.648    20527780.117
        20.250          20.000
                   -419320.448 5   -315236.951 5  23401251.906    23401254.098
         8.250           8.000
 95  4 24 15  0 45.0000000  0  8G14G18G19G22G27G28G29G31
                    882739.643 5    687848.685 5  23472803.078    23472805.754
         7.750           8.500
                   -175011.474 7   -136372.466 6  20344985.656    20344986.145
        22.500          21.000
                   -231706.355 6   -180550.586 6  21422242.297    21422243.766
        18.000          18.500
                    816070.930 5    635899.323 5  23502510.047    23502511.809
         9.750           9.500
                   -374583.467 3   -291882.902 5  24077803.281    24077805.504
         6.000           6.750
                   -196546.464 5   -153152.555 5  23359753.445    23359754.676
        10.250           9.000
                    186976.617 7    145696.463 6  20530073.813    20530074.230
        20.250          20.000
                   -457731.473 5   -345167.586 5  23393942.508    23393944.582
         8.500           8.250
 95  4 24 15  1  0.0000000  0  8G14G18G19G22G27G28G29G31
                    940754.497 5    733055.032 5  23483842.539    23483845.082
         7.750           8.250
                   -187330.869 7   -145971.982 6  20342641.203    20342641.695
        22.500          20.750
                   -248165.671 6   -193376.009 6  21419110.188    21419111.566
        18.000          18.250
                    869737.431 5    677717.369 5  23512722.531    23512724.070
         9.750           9.500
                   -407470.729 4   -317509.317 5  24071545.000    24071547.414
         6.250           6.750
                   -210168.286 5   -163766.943 5  23357161.328    23357162.328
        10.250           9.000
                    198966.668 7    155039.363 6  20532355.430    20532355.781
        20.250          20.000
                   -496263.826 5   -375192.773 5  23386610.094    23386612.211
         8.500           8.250
 95  4 24 15  1 15.0000000  0  8G14G18G19G22G27G28G29G31
                    998630.872 5    778153.459 5  23494856.492    23494859.012
         7.500           8.250
                   -199710.422 7   -155618.376 6  20340285.508    20340286.172
        22.250          21.000
                   -264737.351 6   -206288.991 6  21415956.719    21415958.148
        17.750          18.250
                    923288.193 5    719445.235 5  23522913.242    23522914.398
        10.000           9.250
                   -440499.497 4   -343245.997 5  24065259.797    24065262.223
         6.250           6.750
                   -223840.697 5   -174420.750 5  23354559.531    23354560.727
        10.500           8.750
                    210893.267 7    164332.828 6  20534625.070    20534625.387
        20.250          20.000
                   -534915.835 5   -405311.197 5  23379254.742    23379256.809
         8.500           8.250
 95  4 24 15  1 30.0000000  0  8G14G18G19G22G27G28G29G31
                   1056370.931 5    823145.671 5  23505844.234    23505846.621
         7.750           8.250
                   -212148.132 7   -165310.086 6  20337918.648    20337919.344
        22.250          21.000
                   -281422.417 6   -219290.320 6  21412781.523    21412782.887
        17.750          18.250
                    976726.296 5    761085.313 5  23533082.156    23533083.520
        10.250           9.750
                   -473663.949 4   -369088.400 5  24058948.992    24058951.172
         6.250           6.750
                   -237560.339 5   -185111.363 5  23351948.875    23351949.914
        10.500           9.000
                    222759.747 7    173579.447 6  20536883.172    20536883.516
        20.250          20.000
                   -573682.656 5   -435519.083 5  23371877.664    23371879.863
         8.500           8.250
 95  4 24 15  1 45.0000000  0  8G14G18G19G22G27G28G29G31
                   1113974.422 5    868031.462 5  23516806.055    23516808.367
         7.750           8.250
                   -224644.276 7   -175047.327 6  20335540.703    20335541.516
        22.250          21.000
                   -298221.341 6   -232380.377 6  21409584.891    21409586.066
        17.750          18.000
                   1030051.541 5    802637.455 5  23543229.734    23543230.953
        10.250           9.750
                   -506964.346 4   -395036.727 5  24052612.039    24052613.957
         6.250           6.750
                   -251326.150 5   -195837.945 5  23349329.266    23349330.344
        10.250           9.000
                    234568.256 7    182780.891 6  20539130.164    20539130.453
        20.500          20.250
                   -612563.479 5   -465815.806 5  23364478.859    23364480.980
         8.500           8.250
 95  4 24 15  2  0.0000000  0  8G14G18G19G22G27G28G29G31
                   1171442.530 5    912811.767 5  23527741.578    23527744.000
         7.750           8.250
                   -237202.128 7   -184832.656 6  20333151.023    20333151.727
        22.250          21.000
                   -315134.180 6   -245559.196 6  21406366.547    21406367.508
        18.000          18.000
                   1083264.825 5    844102.345 5  23553355.805    23553357.137
        10.000          10.000
                   -540400.029 4   -421090.495 5  24046249.758    24046251.859
         6.500           6.750
                   -265136.147 5   -206598.961 5  23346701.367    23346702.340
        10.250           9.000
                    246323.041 7    191940.473 6  20541367.086    20541367.395
        20.500          20.250
                   -651557.442 5   -496200.685 5  23357058.484    23357060.730
         8.500           8.250
 95  4 24 15  2 15.0000000  0  8G14G18G19G22G27G28G29G31
                   1228777.063 5    957487.983 5  23538651.867    23538654.215
         7.750           7.750
                   -249817.436 7   -194662.759 6  20330750.492    20330751.191
        22.500          21.000
                   -332157.602 6   -258824.184 6  21403127.250    21403128.059
        18.000          17.750
                   1136368.004 5    885481.444 5  23563460.922    23563462.555
         9.750          10.250
                   -573967.206 4   -447246.727 5  24039861.773    24039864.324
         6.250           6.750
                   -278986.120 5   -217391.126 5  23344065.742    23344066.867
        10.250           9.000
                    258027.365 7    201060.731 6  20543594.359    20543594.793
        20.500          20.250
                   -690662.160 5   -526671.878 5  23349617.242    23349619.270
         8.500           8.250
 95  4 24 15  2 30.0000000  0  8G14G18G19G22G27G28G29G31
                   1285976.034 5   1002058.564 5  23549536.484    23549538.727
         7.750           7.250
                   -262491.262 7   -204538.453 6  20328338.578    20328339.266
        22.500          20.750
                   -349293.878 6   -272177.114 6  21399866.320    21399867.078
        18.000          17.750
                   1189361.396 5    926774.978 5  23573545.133    23573547.090
         9.250          10.500
                   -607667.907 4   -473506.998 5  24033448.695    24033450.984
         6.250           6.750
                   -292877.509 5   -228215.570 5  23341422.211    23341423.223
        10.250           9.000
                    269676.899 7    210138.295 6  20545811.234    20545811.645
        20.500          20.250
                   -729881.369 5   -557232.278 5  23342153.789    23342156.176
         8.500           8.000
 95  4 24 15  2 45.0000000  0  8G14G18G19G22G27G28G29G31
                   1343038.186 5   1046522.539 5  23560395.336    23560397.164
         8.000           7.000
                   -275222.607 7   -214458.973 6  20325916.008    20325916.738
        22.750          20.750
                   -366541.127 6   -285616.512 6  21396584.164    21396584.992
        18.000          17.750
                   1242246.809 5    967984.377 5  23583609.086    23583610.617
         9.250          10.500
                   -641501.884 4   -499871.117 5  24027010.500    24027012.512
         6.250           6.750
                   -306809.454 5   -239071.609 5  23338770.867    23338772.027
        10.000           9.000
                    281267.901 7    219170.251 6  20548016.984    20548017.344
        20.750          20.500
                   -769217.542 5   -587883.817 5  23334668.477    23334670.609
         8.500           8.000
 95  4 24 15  3  0.0000000  0  8G14G18G19G22G27G28G29G31
                   1399967.688 5   1090883.155 5  23571228.938    23571230.637
         8.250           6.750
                   -288005.756 7   -224419.859 6  20323483.617    20323484.289
        22.750          20.750
                   -383894.155 6   -299138.337 6  21393281.859    21393282.941
        18.000          17.750
                   1295026.033 5   1009111.035 5  23593652.641    23593654.133
         9.250          10.250
                   -675464.668 4   -526335.598 5  24020547.602    24020549.887
         6.250           6.750
                   -320777.315 5   -249955.633 5  23336112.859    23336114.047
        10.000           9.000
                    292805.792 7    228160.822 6  20550212.688    20550213.070
        20.750          20.500
                   -808667.519 5   -618624.038 5  23327161.539    23327163.430
         8.500           8.000
 95  4 24 15  3 15.0000000  0  8G14G18G19G22G27G28G29G31
                   1456766.789 5   1135142.164 5  23582037.211    23582039.082
         8.000           6.750
                   -300839.087 7   -234419.844 6  20321041.484    20321042.180
        22.750          20.750
                   -401351.925 6   -312741.781 6  21389959.695    21389960.844
        18.000          18.000
                   1347699.927 5   1050155.615 5  23603676.172    23603677.613
         9.250          10.000
                   -709557.699 4   -552901.568 5  24014059.641    24014062.324
         6.250           7.000
                   -334778.862 5   -260865.906 5  23333448.578    23333449.746
        10.250           9.000
                    304296.507 7    237114.632 6  20552399.297    20552399.676
        21.000          20.500
                   -848226.121 5   -649448.901 5  23319633.750    23319635.695
         8.250           8.000
 95  4 24 15  3 30.0000000  0  8G14G18G19G22G27G28G29G31
                   1513437.172 5   1179300.862 5  23592821.227    23592823.027
         7.750           6.750
                   -313723.088 7   -244459.320 6  20318589.719    20318590.387
        22.750          20.500
                   -418915.536 6   -326427.695 6  21386617.563    21386618.785
        17.750          18.000
                   1400269.062 5   1091118.569 5  23613679.805    23613681.105
         9.250           9.750
                   -743781.581 4   -579569.504 5  24007547.125    24007549.328
         6.250           7.000
                   -348814.589 5   -271802.815 5  23330777.648    23330778.844
        10.000           9.250
                    315741.367 7    246032.712 6  20554577.219    20554577.539
        21.000          20.500
                   -887891.739 5   -680357.154 5  23312085.656    23312087.547
         8.250           8.000
 95  4 24 15  3 45.0000000  0  8G14G18G19G22G27G28G29G31
                   1569982.509 5   1223362.122 5  23603581.422    23603583.270
         7.750           6.250
                   -326652.903 7   -254534.494 6  20316129.305    20316129.852
        22.750          20.250
                   -436577.681 6   -340190.392 6  21383256.586    21383257.887
        17.750          18.250
                   1452736.120 5   1132001.984 5  23623664.086    23623665.277
         9.500           9.500
                   -778130.862 4   -606335.149 5  24001010.867    24001013.117
         6.250           7.250
                   -362880.213 5   -282763.019 5  23328101.141    23328102.266
        10.000           9.250
                    327145.525 7    254919.079 6  20556747.328    20556747.742
        21.000          20.500
                   -927661.697 5   -711346.709 5  23304517.641    23304519.629
         8.250           8.000
 95  4 24 15  4  0.0000000  0  8G14G18G19G22G27G28G29G31
                   1626404.179 5   1267327.017 5  23614318.289    23614319.980
         7.750           6.250
                   -339622.486 7   -264640.652 6  20313661.094    20313661.578
        22.750          20.250
                   -454331.779 6   -354024.740 6  21379878.023    21379879.352
        17.750          18.250
                   1505103.214 5   1172807.505 5  23633629.227    23633630.523
         9.750           9.250
                   -812602.420 4   -633196.086 5  23994451.117    23994452.922
         6.500           7.250
                   -376972.160 5   -293743.732 5  23325419.398    23325420.645
        10.000           9.250
                    338515.443 7    263778.764 6  20558910.930    20558911.316
        21.000          20.750
                   -967533.091 5   -742415.303 5  23296930.273    23296932.633
         8.250           8.250
 95  4 24 15  4 15.0000000  0  8G14G18G19G22G27G28G29G31
                   1682705.695 5   1311198.285 5  23625032.352    23625033.797
         8.250           6.000
                   -352624.098 7   -274771.770 6  20311187.156    20311187.523
        22.750          20.250
                   -472174.454 6   -367928.106 6  21376482.758    21376484.070
        17.750          18.250
                   1557371.851 5   1213536.309 5  23643575.531    23643576.867
        10.000           9.250
                   -847191.935 4   -660148.934 5  23987868.922    23987870.895
         6.500           7.500
                   -391086.573 5   -304741.955 5  23322733.641    23322734.879
        10.250           9.750
                    349855.373 7    272615.076 6  20561068.711    20561068.988
        21.000          20.750
                  -1007499.955 5   -773558.285 5  23289324.797    23289327.137
         8.250           8.250
 95  4 24 15  4 30.0000000  0  8G14G18G19G22G27G28G29G31
                   1738889.026 5   1354977.474 5  23635723.773    23635725.148
         8.250           6.000
                   -365652.729 7   -284923.942 6  20308707.836    20308708.258
        22.750          20.000
                   -490104.214 6   -381899.332 6  21373070.820    21373072.172
        18.000          18.500
                   1609542.508 5   1254188.773 5  23653503.445    23653504.621
        10.250           9.250
                   -881896.019 4   -687191.048 5  23981264.813    23981267.117
         6.750           7.500
                   -405221.448 5   -315756.123 5  23320043.727    23320044.914
        10.000           9.750
                    361167.093 7    281429.407 6  20563221.430    20563221.813
        21.000          20.750
                  -1047559.415 5   -804773.423 5  23281701.891    23281703.855
         8.250           8.250
 95  4 24 15  4 45.0000000  0  8G14G18G19G22G27G28G29G31
                   1794957.851 5   1398667.427 5  23646393.594    23646395.113
         7.750           6.250
                   -378706.584 7   -295095.770 6  20306223.711    20306224.125
        22.750          19.750
                   -508119.117 6   -395936.908 6  21369642.789    21369644.066
        18.000          18.750
                   1661616.654 5   1294766.026 5  23663412.773    23663414.152
        10.250           9.500
                   -916711.349 4   -714319.852 5  23974639.781    23974641.762
         6.500           7.500
                   -419374.053 5   -326784.105 5  23317350.633    23317351.918
        10.000           9.750
                    372456.788 7    290226.574 6  20565369.828    20565370.207
        21.000          20.500
                  -1087708.012 5   -836058.023 5  23274061.906    23274063.910
         8.250           8.250
 95  4 24 15  5  0.0000000  0  8G14G18G19G22G27G28G29G31
                   1850915.957 5   1442271.092 5  23657041.648    23657043.578
         7.500           6.250
                   -391781.882 7   -305284.305 6  20303735.648    20303735.945
        22.750          19.750
                   -526211.680 6   -410034.997 6  21366199.930    21366201.176
        18.250          18.750
                   1713597.567 5   1335270.631 5  23673304.367    23673305.715
        10.250           9.500
                   -951631.705 4   -741530.489 5  23967994.617    23967996.434
         6.250           7.500
                   -433538.723 5   -337821.482 5  23314655.164    23314656.598
        10.000          10.000
                    383733.681 7    299013.768 6  20567515.586    20567515.875
        21.000          20.500
                  -1127937.109 5   -867405.340 5  23266406.547    23266408.758
         8.500           8.250
 95  4 24 15  5 15.0000000  0  8G14G18G19G22G27G28G29G31
                   1906770.996 5   1485794.440 5  23667670.742    23667672.379
         7.500           6.250
                   -404873.238 7   -315485.354 6  20301244.500    20301244.797
        23.000          19.750
                   -544374.053 6   -424187.488 6  21362743.797    21362744.922
        18.250          18.500
                   1765493.343 5   1375708.897 5  23683179.898    23683181.422
        10.000           9.750
                   -986650.428 4   -768817.780 5  23961330.664    23961332.578
         6.500           7.250
                   -447708.220 5   -348862.627 5  23311958.766    23311960.172
         9.750          10.000
                    395008.273 7    307799.169 6  20569661.102    20569661.301
        21.000          20.500
                  -1168236.858 5   -898807.719 5  23258737.805    23258739.922
         8.500           8.250
 95  4 24 15  5 30.0000000  0  8G14G18G19G22G27G28G29G31
                   1962522.564 5   1529237.177 5  23678279.969    23678281.449
         7.750           6.250
                   -417979.993 7   -325698.400 6  20298750.344    20298750.590
        22.750          19.750
                   -562604.166 6   -438392.757 6  21359274.688    21359275.777
        18.000          18.750
                   1817307.386 5   1416083.467 5  23693039.680    23693041.289
        10.000          10.000
                  -1021764.006 4   -796178.992 5  23954648.750    23954651.043
         6.250           7.500
                   -461880.516 5   -359905.956 5  23309261.758    23309263.152
         9.750          10.000
                    406278.410 7    316581.096 6  20571805.898    20571806.152
        21.000          20.500
                  -1208604.598 5   -930263.075 5  23251056.164    23251058.379
         8.500           8.500
 95  4 24 15  5 45.0000000  0  8G14G18G19G22G27G28G29G31
                   2018176.761 5   1572604.030 5  23688870.797    23688871.793
         7.500           6.250
                   -431094.663 7   -335917.615 6  20296254.695    20296255.004
        22.750          19.750
                   -580893.704 6   -452644.335 6  21355794.203    21355795.262
        18.000          18.750
                   1869046.905 5   1456399.961 5  23702885.227    23702886.934
         9.500          10.000
                  -1056963.586 4   -823607.210 5  23947950.352    23947952.695
         6.500           7.750
                   -476047.515 5   -370945.156 5  23306565.734    23306567.168
         9.750          10.000
                    417549.112 7    325363.467 6  20573950.508    20573950.793
        21.000          20.750
                  -1249033.933 5   -961766.425 5  23243362.602    23243364.875
         8.750           8.500
 95  4 24 15  6  0.0000000  0  8G14G18G19G22G27G28G29G31
                   2073736.479 5   1615897.279 5  23699443.422    23699444.719
         7.500           6.250
                   -444212.492 7   -346139.291 6  20293758.344    20293758.652
        22.750          19.500
                   -599240.003 6   -466940.142 6  21352303.070    21352304.238
        18.000          18.750
                   1920717.310 5   1496662.602 5  23712717.781    23712719.738
         9.250          10.250
                  -1092248.293 4   -851101.761 5  23941236.211    23941238.582
         6.750           8.000
                   -490206.444 5   -381978.068 5  23303871.492    23303872.992
         9.750          10.000
                    428820.140 7    334146.095 6  20576095.328    20576095.676
        21.000          20.750
                  -1289522.097 5   -993315.616 5  23235657.945    23235660.297
         8.750           8.500
 95  4 24 15  6 15.0000000  0  8G14G18G19G22G27G28G29G31
                   2129208.199 4   1659121.947 5  23709999.258    23710000.965
         7.250           6.500
                   -457329.344 7   -356360.206 6  20291262.523    20291262.801
        22.750          19.500
                   -617643.930 6   -481280.851 6  21348800.977    21348802.160
        18.000          18.750
                   1972323.274 5   1536875.023 5  23722538.070    23722539.855
         9.250          10.250
                  -1127616.216 4   -878661.166 5  23934505.914    23934508.152
         7.000           8.000
                   -504353.316 5   -393001.580 5  23301179.516    23301181.039
        10.000          10.000
                    440094.712 7    342931.477 6  20578240.820    20578241.250
        21.000          21.000
                  -1330062.161 5  -1024905.249 5  23227943.398    23227945.438
         9.000           8.500
 95  4 24 15  6 30.0000000  0  8G14G18G19G22G27G28G29G31
                   2184599.936 4   1702284.289 5  23720540.203    23720542.082
         7.000           6.750
                   -470442.426 7   -366578.185 6  20288767.148    20288767.430
        22.750          19.500
                   -636101.945 6   -495663.710 6  21345288.320    21345289.574
        17.750          18.500
                   2023871.138 5   1577042.179 5  23732347.484    23732349.328
         9.250          10.250
                  -1163061.130 4   -906280.563 5  23927760.781    23927763.246
         7.000           8.000
                   -518482.303 5   -404011.161 5  23298490.852    23298492.156
        10.000          10.000
                    451375.418 7    351721.639 6  20580387.500    20580387.957
        20.750          21.000
                  -1370649.182 5  -1056531.477 5  23220219.898    23220221.922
         9.000           8.250
 95  4 24 15  6 45.0000000  0  8G14G18G19G22G27G28G29G31
                   2239916.390 5   1745387.971 5  23731066.938    23731068.246
         7.500           7.000
                   -483551.218 7   -376792.820 6  20286272.453    20286272.785
        22.500          19.500
                   -654610.215 6   -510085.725 6  21341766.203    21341767.617
        18.000          18.750
                   2075364.936 5   1617167.201 5  23742146.258    23742147.992
         9.500          10.000
                  -1198582.419 4   -933959.476 5  23921001.352    23921003.777
         7.000           8.250
                   -532589.737 5   -415003.946 5  23295806.336    23295807.633
        10.250          10.000
                    462664.862 7    360518.612 6  20582535.813    20582536.215
        21.000          21.000
                  -1411282.051 5  -1088193.427 5  23212487.813    23212489.633
         9.000           8.250
 95  4 24 15  7  0.0000000  0  8G14G18G19G22G27G28G29G31
                   2295160.507 4   1788435.284 5  23741579.109    23741580.594
         7.250           6.750
                   -496650.062 7   -386999.705 6  20283779.773    20283780.066
        22.250          19.250
                   -673162.700 6   -524542.198 6  21338235.734    21338237.086
        18.000          18.750
                   2126812.913 5   1657256.529 5  23751936.805    23751938.305
         9.750           9.750
                  -1234176.950 4   -961695.463 5  23914228.031    23914230.492
         7.000           8.250
                   -546669.725 5   -425975.346 5  23293126.938    23293128.277
        10.250          10.000
                    473965.738 7    369324.492 6  20584686.258    20584686.703
        21.000          21.250
                  -1451954.162 5  -1119885.953 5  23204748.125    23204749.871
         9.000           8.250
 95  4 24 15  7 15.0000000  0  8G14G18G19G22G27G28G29G31
                   2350336.197 4   1831429.280 5  23752078.438    23752080.566
         6.750           7.000
                   -509734.891 7   -397195.667 6  20281289.766    20281290.172
        22.250          19.250
                   -691757.868 6   -539031.926 6  21334697.438    21334698.730
        18.000          18.750
                   2178218.575 5   1697312.878 5  23761719.070    23761720.547
        10.000           9.750
                  -1269844.367 4   -989488.235 5  23907440.453    23907443.074
         6.750           8.250
                   -560718.733 5   -436922.607 5  23290453.414    23290454.816
        10.250          10.000
                    485279.789 7    378140.639 6  20586839.305    20586839.871
        21.000          21.250
                  -1492661.418 5  -1151605.868 5  23197001.875    23197003.430
         9.000           8.000
 95  4 24 15  7 30.0000000  0  8G14G18G19G22G27G28G29G31
                   2405452.880 4   1874377.291 5  23762566.695    23762568.957
         6.750           7.000
                   -522793.573 7   -407371.256 6  20278804.727    20278805.223
        22.250          19.250
                   -710389.714 6   -553550.237 6  21331152.086    21331153.297
        18.250          19.000
                   2229591.569 5   1737343.780 5  23771494.852    23771496.395
         9.750           9.250
                  -1305575.997 4  -1017331.042 5  23900640.883    23900643.730
         6.500           8.000
                   -574726.846 5   -447838.003 5  23287787.906    23287789.215
        10.250          10.000
                    496614.551 7    386972.928 6  20588996.258    20588996.902
        20.750          21.500
                  -1533393.221 5  -1183344.912 5  23189250.719    23189252.246
         9.000           7.750
 95  4 24 15  7 45.0000000  0  8G14G18G19G22G27G28G29G31
                   2460517.350 4   1917284.611 5  23773045.500    23773047.477
         6.750           7.000
                   -535819.247 7   -417521.121 6  20276325.953    20276326.438
        22.000          19.250
                   -729053.915 6   -568093.761 6  21327600.414    21327601.730
        18.250          18.750
                   2280936.387 5   1777352.718 5  23781265.375    23781266.871
         9.750           9.000
                  -1341368.192 4  -1045221.049 5  23893830.156    23893832.629
         6.750           7.750
                   -588686.721 5   -458715.809 5  23285131.602    23285132.766
        10.250          10.250
                    507978.731 7    395828.135 6  20591158.766    20591159.430
        20.500          21.250
                  -1574140.580 5  -1215096.069 5  23181496.750    23181497.930
         9.000           7.750
 95  4 24 15  8  0.0000000  0  8G14G18G19G22G27G28G29G31
                   2515527.254 4   1960149.427 5  23783513.672    23783515.605
         7.250           7.250
                   -548814.476 7   -427647.269 6  20273853.195    20273853.730
        22.000          19.250
                   -747755.277 6   -582666.236 6  21324041.586    21324042.816
        18.250          19.000
                   2332247.422 5   1817335.340 5  23791029.438    23791031.066
         9.250           8.500
                  -1377226.600 4  -1073162.645 5  23887006.656    23887008.852
         7.000           7.750
                   -602601.811 5   -469558.722 5  23282483.664    23282484.840
        10.500          10.250
                    519371.286 7    404705.453 6  20593326.703    20593327.340
        20.750          21.500
                  -1614904.080 5  -1246859.814 5  23173739.500    23173740.770
         9.000           7.750
 95  4 24 15  8 15.0000000  0  8G14G18G19G22G27G28G29G31
                   2570482.429 4   2002971.584 5  23793971.367    23793973.480
         7.250           7.500
                   -561777.663 7   -437748.448 6  20271386.359    20271386.891
        22.000          19.250
                   -766493.745 6   -597267.632 6  21320475.703    21320477.047
        18.250          19.000
                   2383521.586 5   1857289.225 5  23800786.617    23800788.320
         9.000           8.500
                  -1413150.201 4  -1101155.052 5  23880170.648    23880172.738
         7.250           7.500
                   -616471.347 5   -480366.140 5  23279844.156    23279845.594
        10.250          10.500
                    530795.457 7    413607.409 6  20595500.641    20595501.266
        20.500          21.500
                  -1655681.983 5  -1278634.776 5  23165979.891    23165981.316
         9.000           7.750
 95  4 24 15  8 30.0000000  0  8G14G18G19G22G27G28G29G31
                   2625389.838 4   2045756.521 5  23804419.836    23804422.227
         7.000           7.250
                   -574703.591 7   -447820.592 6  20268926.648    20268927.207
        22.250          19.500
                   -785259.707 6   -611890.453 6  21316904.773    21316906.090
        18.000          18.750
                   2434762.072 5   1897216.868 5  23810537.406    23810538.906
         8.750           8.250
                  -1449127.292 5  -1129189.141 5  23873324.633    23873326.484
         7.500           7.750
                   -630285.948 5   -491130.746 5  23277215.219    23277216.766
        10.250          10.500
                    542263.789 7    422543.775 6  20597682.953    20597683.566
        20.500          21.250
                  -1696466.005 5  -1310414.505 5  23158218.883    23158220.145
         9.000           7.750
 95  4 24 15  8 45.0000000  0  8G14G18G19G22G27G28G29G31
                   2680256.051 4   2088509.351 5  23814860.211    23814862.789
         7.000           7.000
                   -587586.590 7   -457859.290 6  20266475.031    20266475.750
        22.250          19.500
                   -804043.439 6   -626527.116 6  21313330.258    21313331.398
        18.000          18.750
                   2485975.929 5   1937123.763 5  23820283.094    23820284.793
         8.500           8.250
                  -1485148.879 5  -1157257.891 5  23866470.070    23866471.672
         7.500           7.750
                   -644037.228 5   -501846.018 5  23274598.484    23274599.914
        10.250          10.500
                    553782.215 7    431519.173 6  20599874.781    20599875.340
        20.500          21.250
                  -1737249.973 5  -1342194.197 5  23150457.844    23150459.367
         9.000           7.750
 95  4 24 15  9  0.0000000  0  8G14G18G19G22G27G28G29G31
                   2735083.311 4   2131231.836 5  23825293.477    23825295.855
         7.000           6.750
                   -600421.879 7   -467860.806 6  20264032.516    20264033.223
        22.250          19.500
                   -822838.168 6   -641172.350 6  21309753.750    21309754.832
        18.000          18.500
                   2537166.942 5   1977012.859 5  23830024.266    23830026.074
         8.250           8.500
                  -1521210.454 4  -1185357.808 5  23859607.586    23859609.301
         7.250           7.750
                   -657720.715 5   -512508.461 5  23271994.547    23271996.191
        10.250          10.500
                    565354.975 7    440536.905 6  20602076.984    20602077.438
        20.750          21.250
                  -1778027.040 5  -1373968.507 5  23142698.367    23142699.828
         9.250           8.000
 95  4 24 15  9 15.0000000  0  8G14G18G19G22G27G28G29G31
                   2789873.672 5   2173925.573 5  23835720.133    23835722.078
         7.500           6.750
                   -613208.126 7   -477824.110 6  20261599.406    20261600.117
        22.250          19.250
                   -841641.312 6   -655824.141 6  21306175.484    21306176.500
        18.000          18.250
                   2588335.877 5   2016884.736 5  23839761.477    23839763.262
         8.250           8.500
                  -1557306.030 4  -1213484.203 5  23852738.523    23852740.742
         6.750           7.500
                   -671334.408 5   -523116.520 5  23269403.906    23269405.570
        10.250          10.500
                    576985.255 7    449599.460 6  20604290.188    20604290.613
        20.500          21.000
                  -1818791.597 5  -1405733.066 5  23134941.047    23134942.613
         9.250           8.000
 95  4 24 15  9 30.0000000  0  8G14G18G19G22G27G28G29G31
                   2844632.895 5   2216595.049 5  23846140.539    23846142.672
         7.500           6.750
                   -625940.844 7   -487745.700 6  20259176.539    20259177.191
        22.250          19.250
                   -860446.990 6   -670477.906 6  21302596.891    21302597.965
        17.750          18.250
                   2639482.723 5   2056739.411 5  23849494.500    23849496.285
         8.250           8.500
                  -1593429.593 4  -1241632.414 5  23845864.086    23845866.258
         6.250           7.500
                   -684874.624 5   -533667.321 5  23266827.328    23266828.887
        10.250          10.250
                    588678.739 7    458711.266 6  20606515.531    20606515.840
        20.750          21.000
                  -1859542.171 5  -1437486.735 5  23127186.734    23127188.363
         9.500           8.250
 95  4 24 15  9 45.0000000  0  8G14G18G19G22G27G28G29G31
                   2899364.516 4   2259243.012 5  23856555.148    23856557.945
         7.000           6.750
                   -638616.850 7   -497623.099 6  20256764.406    20256765.066
        22.250          19.250
                   -879249.079 6   -685128.874 6  21299018.852    21299019.941
        17.750          18.250
                   2690610.379 5   2096579.126 5  23859223.625    23859225.578
         8.500           8.500
                  -1629572.458 4  -1269795.660 5  23838986.227    23838988.656
         6.250           7.250
                   -698337.031 5   -544157.501 5  23264265.664    23264267.008
        10.250          10.250
                    600438.131 7    467874.430 6  20608753.336    20608753.668
        20.750          21.000
                  -1900274.968 5  -1469226.557 5  23119435.148    23119436.840
         9.500           8.250
 95  4 24 15 10  0.0000000  0  8G14G18G19G22G27G28G29G31
                   2954075.282 4   2301874.715 5  23866966.383    23866969.238
         6.750           6.750
                   -651233.749 7   -507454.442 6  20254363.547    20254364.117
        22.250          19.250
                   -898041.498 6   -699772.307 6  21295442.719    21295443.855
        17.750          18.250
                   2741722.257 5   2136406.557 5  23868950.164    23868951.805
         8.750           8.250
                  -1665728.190 4  -1297968.931 5  23832106.039    23832108.285
         6.500           7.000
                   -711717.467 5   -554583.798 5  23261719.469    23261720.688
        10.250          10.250
                    612267.761 7    477092.323 6  20611004.438    20611004.699
        20.750          21.000
                  -1940989.833 5  -1500952.398 5  23111687.375    23111689.586
         9.500           8.500
 95  4 24 15 10 15.0000000  0  8G14G18G19G22G27G28G29G31
                   3008767.211 4   2344491.742 5  23877374.055    23877376.949
         6.750           6.500
                   -663787.091 7   -517236.261 6  20251974.664    20251975.242
        22.250          19.000
                   -916819.976 6   -714404.878 6  21291869.539    21291870.723
        17.750          18.500
                   2792822.072 5   2176224.583 5  23878674.117    23878675.680
         8.750           8.250
                  -1701891.095 4  -1326147.800 5  23825224.750    23825226.598
         6.750           6.750
                   -725013.112 5   -564944.031 5  23259189.398    23259190.383
        10.500          10.250
                    624168.358 7    486365.519 6  20613269.063    20613269.270
        20.750          21.250
                  -1981688.047 5  -1532665.267 5  23103942.820    23103944.973
         9.500           8.500
 95  4 24 15 10 30.0000000  0  8G14G18G19G22G27G28G29G31
                   3063439.960 4   2387093.827 5  23887778.070    23887780.684
         7.000           6.250
                   -676279.755 7   -526970.798 6  20249597.469    20249598.055
        22.250          19.000
                   -935583.104 6   -729025.487 6  21288298.992    21288300.105
        18.000          18.500
                   2843910.702 5   2216033.894 5  23888395.891    23888397.691
         8.750           8.250
                  -1738061.547 4  -1354332.548 5  23818341.789    23818343.398
         6.750           6.500
                   -738224.008 5   -575238.224 5  23256675.477    23256676.523
        10.250          10.000
                    636136.208 7    495691.114 6  20615546.453    20615546.738
        20.500          21.000
                  -2022373.094 5  -1564367.880 5  23096200.648    23096203.000
         9.250           8.750
 95  4 24 15 10 45.0000000  0  8G14G18G19G22G27G28G29G31
                   3118095.931 4   2429682.844 5  23898178.906    23898181.168
         7.000           6.000
                   -688710.309 7   -536656.936 6  20247232.125    20247232.629
        22.250          19.000
                   -954327.726 6   -743631.677 6  21284732.086    21284733.184
        18.000          18.750
                   2894993.946 5   2255839.006 5  23898116.875    23898118.313
         8.750           7.750
                  -1774239.072 4  -1382522.820 5  23811457.523    23811459.133
         7.000           6.250
                   -751348.256 5   -585464.894 5  23254177.898    23254178.953
        10.250          10.000
                    648169.597 7    505067.781 6  20617836.289    20617836.695
        20.500          21.000
                  -2063043.960 5  -1596059.441 5  23088461.180    23088463.625
         9.250           8.750
 95  4 24 15 11  0.0000000  0  8G14G18G19G22G27G28G29G31
                   3172740.968 4   2472263.342 5  23908577.141    23908580.102
         6.750           6.000
                   -701065.945 7   -546284.697 6  20244880.688    20244881.238
        22.000          19.000
                   -973045.356 6   -758216.836 6  21281170.266    21281171.422
        18.250          19.000
                   2946079.351 5   2295645.809 5  23907838.109    23907839.617
         8.500           7.750
                  -1810419.522 4  -1410715.372 5  23804572.430    23804574.164
         7.000           6.500
                   -764379.531 5   -595619.122 5  23251698.070    23251699.277
        10.250          10.000
                    660271.819 7    514498.086 6  20620139.219    20620139.676
        20.500          21.250
                  -2103693.351 5  -1627734.261 5  23080725.859    23080728.230
         9.500           8.750
 95  4 24 15 11 15.0000000  0  8G14G18G19G22G27G28G29G31
                   3227374.991 4   2514835.244 5  23918973.563    23918976.930
         6.250           6.000
                   -713343.194 7   -555851.375 6  20242544.422    20242544.965
        22.000          18.750
                   -991735.757 6   -772780.775 6  21277613.625    21277614.785
        18.250          19.000
                   2997166.810 5   2335454.221 5  23917559.563    23917561.063
         8.500           7.500
                  -1846604.061 4  -1438911.107 5  23797686.742    23797688.727
         7.000           6.750
                   -777318.028 5   -605701.054 5  23249236.164    23249237.160
        10.500          10.000
                    672447.419 7    523985.569 6  20622456.016    20622456.578
        20.500          21.250
                  -2144320.382 5  -1659391.660 5  23072994.883    23072997.133
         9.500           8.750
 95  4 24 15 11 30.0000000  0  8G14G18G19G22G27G28G29G31
                   3281999.465 4   2557399.709 5  23929368.523    23929371.840
         6.250           6.000
                   -725536.621 7   -565352.740 6  20240224.008    20240224.617
        22.000          18.750
                  -1010399.619 6   -787324.034 6  21274061.977    21274063.199
        18.250          19.250
                   3048257.308 5   2375264.986 5  23927281.828    23927283.430
         8.250           7.250
                  -1882791.635 4  -1467109.195 5  23790800.586    23790802.730
         6.750           7.000
                   -790161.307 5   -615708.791 5  23246792.125    23246793.098
        10.250          10.000
                    684702.637 7    533535.082 6  20624788.188    20624788.707
        20.500          21.000
                  -2184925.141 5  -1691031.708 5  23065268.148    23065270.277
         9.500           9.000
 95  4 24 15 11 45.0000000  0  8G14G18G19G22G27G28G29G31
                   3336609.069 4   2599952.586 5  23939760.648    23939763.883
         6.750           6.000
                   -737646.698 7   -574789.160 6  20237919.672    20237920.203
        22.000          18.750
                  -1029043.070 6   -801851.387 6  21270514.305    21270515.535
        18.250          19.500
                   3099349.887 5   2415077.381 5  23937004.375    23937005.965
         7.750           7.000
                  -1918985.839 4  -1495312.447 5  23783912.922    23783915.266
         6.750           7.250
                   -802912.022 5   -625644.396 5  23244365.531    23244366.801
        10.500          10.250
                    697034.859 7    543144.608 6  20627135.023    20627135.461
        20.500          21.000
                  -2225510.541 5  -1722656.670 5  23057544.875    23057547.098
         9.750           9.000
 95  4 24 15 12  0.0000000  0  8G14G18G19G22G27G28G29G31
                   3391209.010 4   2642497.939 5  23950150.547    23950153.770
         6.500           5.750
                   -749666.677 7   -584155.371 6  20235632.172    20235632.734
        22.000          18.750
                  -1047662.784 6   -816360.247 6  21266970.883    21266972.195
        18.500          19.500
                   3150454.903 5   2454899.458 5  23946729.375    23946731.063
         7.750           7.000
                  -1955182.927 4  -1523517.949 5  23777025.078    23777027.230
         6.750           7.250
                   -815563.922 5   -635503.004 5  23241958.047    23241959.199
        10.250          10.250
                    709452.002 7    552820.300 6  20629497.922    20629498.375
        20.500          21.000
                  -2266067.777 5  -1754259.678 5  23049827.148    23049829.070
         9.750           8.750
 95  4 24 15 12 15.0000000  0  8G14G18G19G22G27G28G29G31
                   3445792.890 3   2685030.775 5  23960537.227    23960540.668
         6.000           5.750
                   -761596.235 7   -593451.125 6  20233362.125    20233362.656
        22.000          18.750
                  -1066261.404 6   -830852.666 6  21263431.867    21263433.109
        18.500          19.500
                   3201571.759 5   2494730.757 5  23956456.719    23956458.387
         7.500           7.000
                  -1991389.873 4  -1551731.132 5  23770135.047    23770137.121
         7.000           7.500
                   -828118.647 5   -645285.895 5  23239568.930    23239570.234
        10.250          10.250
                    721953.250 7    562561.529 6  20631876.859    20631877.223
        20.250          21.000
                  -2306597.108 5  -1785840.949 5  23042114.805    23042116.547
        10.000           8.750
 95  4 24 15 12 30.0000000  0  8G14G18G19G22G27G28G29G31
                   3500356.810 3   2727548.052 5  23970920.563    23970924.059
         5.750           5.750
                   -773433.366 7   -602674.856 6  20231109.594    20231110.063
        22.000          18.750
                  -1084837.885 6   -845327.841 6  21259896.695    21259897.949
        18.250          19.500
                   3252700.820 5   2534571.577 5  23966186.320    23966187.773
         7.750           7.000
                  -2027606.016 4  -1579951.483 5  23763243.430    23763245.492
         7.250           7.500
                   -840575.211 5   -654992.294 5  23237198.500    23237199.980
        10.250          10.250
                    734538.629 7    572368.319 6  20634271.734    20634272.043
        20.250          21.000
                  -2347095.885 5  -1817398.413 5  23034408.031    23034409.762
        10.000           8.500
 95  4 24 15 12 45.0000000  0  8G14G18G19G22G27G28G29G31
                   3554900.514 3   2770049.573 5  23981299.742    23981303.613
         5.750           6.000
                   -785177.854 7   -611826.397 6  20228874.672    20228875.199
        22.000          18.750
                  -1103391.967 6   -859785.560 6  21256366.000    21256367.242
        18.250          19.500
                   3303843.013 5   2574422.626 5  23975918.516    23975919.766
         8.000           7.000
                  -2063830.608 5  -1608178.422 5  23756350.203    23756351.891
         7.500           7.250
                   -852931.997 5   -664620.943 5  23234847.258    23234848.523
        10.250          10.500
                    747211.950 7    582243.633 6  20636683.438    20636683.777
        20.250          21.000
                  -2387558.211 5  -1848927.482 5  23026708.555    23026710.168
        10.250           8.500
 95  4 24 15 13  0.0000000  0  8G14G18G19G22G27G28G29G31
                   3609422.185 3   2812533.922 5  23991675.164    23991678.629
         6.000           6.000
                   -796824.904 7   -620902.018 6  20226658.453    20226658.922
        22.250          18.750
                  -1121925.453 6   -874227.230 6  21252839.078    21252840.324
        18.250          19.500
                   3354995.801 5   2614281.941 5  23985652.570    23985654.184
         8.250           7.250
                  -2100062.563 5  -1636411.098 5  23749455.438    23749456.887
         7.500           7.000
                   -865188.059 5   -674171.107 5  23232515.008    23232516.168
        10.750          10.500
                    759976.712 7    592190.199 6  20639112.453    20639112.906
        20.250          20.750
                  -2427979.746 5  -1880424.750 5  23019016.406    23019017.965
        10.250           8.500
 95  4 24 15 13 15.0000000  0  8G14G18G19G22G27G28G29G31
                   3663918.592 3   2854998.595 5  24002045.781    24002049.340
         6.000           6.250
                   -808376.868 7   -629903.539 6  20224460.055    20224460.613
        22.250          18.750
                  -1140443.630 6   -888656.971 6  21249315.367    21249316.605
        18.250          19.500
                   3406156.388 5   2654147.328 5  23995388.172    23995389.719
         8.500           7.500
                  -2136302.614 4  -1664650.087 5  23742558.859    23742560.582
         7.250           6.750
                   -877343.785 5   -683643.097 5  23230201.664    23230203.043
        10.250          10.500
                    772834.219 7    602209.031 6  20641559.109    20641559.355
        20.250          20.500
                  -2468358.881 5  -1911888.991 5  23011332.422    23011333.980
        10.250           8.750
 95  4 24 15 13 30.0000000  0  8G14G18G19G22G27G28G29G31
                   3718394.203 3   2897447.057 5  24012412.203    24012415.891
         6.000           6.250
                   -819831.826 7   -638829.476 6  20222280.461    20222280.875
        22.250          18.750
                  -1158944.325 6   -903073.088 6  21245794.734    21245795.902
        18.250          19.500
                   3457331.324 5   2694023.897 5  24005126.508    24005127.801
         8.750           7.750
                  -2172544.102 4  -1692890.196 5  23735662.195    23735664.238
         7.250           6.750
                   -889392.378 5   -693031.595 5  23227908.844    23227910.125
        10.250          10.500
                    785793.368 7    612307.070 6  20644025.141    20644025.453
        20.000          20.500
                  -2508687.872 5  -1943314.151 5  23003658.164    23003659.680
        10.000           8.750
 95  4 24 15 13 45.0000000  0  8G14G18G19G22G27G28G29G31
                   3772844.765 3   2939875.993 5  24022773.586    24022777.543
         5.750           6.250
                   -831195.836 7   -647684.542 6  20220117.945    20220118.488
        22.250          18.750
                  -1177430.324 6   -917477.755 6  21242277.094    21242278.293
        18.500          19.500
                   3508518.712 5   2733910.163 5  24014867.117    24014868.746
         9.000           8.250
                  -2208787.764 4  -1721132.004 5  23728765.258    23728766.980
         7.000           7.000
                   -901336.560 5   -702338.738 5  23225636.109    23225637.430
        10.250          10.500
                    798846.676 7    622478.480 6  20646509.063    20646509.438
        20.000          20.750
                  -2548968.913 5  -1974701.945 5  22995992.852    22995994.414
        10.000           9.000
 95  4 24 15 14  0.0000000  0  8G14G18G19G22G27G28G29G31
                   3827271.461 3   2982286.346 5  24033130.664    24033134.457
         6.000           6.000
                   -842472.529 7   -656471.568 6  20217971.945    20217972.609
        22.250          18.750
                  -1195899.401 6   -931869.233 6  21238762.633    21238763.703
        18.500          19.750
                   3559720.725 5   2773807.820 5  24024610.555    24024612.160
         9.000           8.500
                  -2245034.473 4  -1749376.180 5  23721867.695    23721869.461
         7.250           7.000
                   -913174.997 5   -711563.482 5  23223383.273    23223384.445
        10.500          10.500
                    811990.483 7    632720.407 6  20649010.211    20649010.688
        20.000          20.750
                  -2589200.173 5  -2006050.954 5  22988337.180    22988338.738
        10.000           9.000
 95  4 24 15 14 15.0000000  0  8G14G18G19G22G27G28G29G31
                   3881673.232 4   3024677.271 5  24043483.195    24043487.070
         6.250           6.000
                   -853664.763 7   -665192.783 6  20215842.180    20215842.859
        22.250          19.000
                  -1214349.529 6   -946245.952 6  21235251.680    21235252.746
        18.500          19.500
                   3610932.480 5   2813713.062 5  24034355.680    24034357.531
         8.750           8.750
                  -2281286.780 5  -1777624.713 5  23714969.344    23714971.227
         7.500           7.500
                   -924907.788 5   -720705.902 5  23221150.516    23221151.969
        10.500          10.750
                    825223.766 7    643032.051 6  20651528.422    20651529.012
        20.000          20.750
                  -2629383.259 5  -2037362.424 5  22980690.523    22980692.059
        10.000           9.250
 95  4 24 15 14 30.0000000  0  8G14G18G19G22G27G28G29G31
                   3936055.180 4   3067052.750 5  24053831.977    24053835.871
         6.250           6.250
                   -864767.854 7   -673844.538 6  20213729.305    20213729.965
        22.250          18.750
                  -1232774.848 6   -960603.334 6  21231745.430    21231746.461
        18.500          19.500
                   3662155.587 5   2853627.161 5  24044103.219    24044104.820
         9.000           8.500
                  -2317536.604 5  -1805871.315 5  23708071.195    23708072.887
         7.750           7.500
                   -936529.571 5   -729761.822 5  23218939.023    23218940.285
        10.750          10.750
                    838550.211 7    653416.297 6  20654064.445    20654064.871
        20.000          20.750
                  -2669514.162 5  -2068633.224 5  22973053.773    22973055.352
        10.000           9.250
 95  4 24 15 14 45.0000000  0  8G14G18G19G22G27G28G29G31
                   3990418.118 3   3109413.410 5  24064176.727    24064181.098
         6.000           6.250
                   -875788.486 7   -682432.034 6  20211631.969    20211632.676
        22.250          18.750
                  -1251177.567 6   -974943.110 6  21228243.391    21228244.379
        18.500          19.500
                   3713385.143 5   2893546.277 5  24053851.797    24053853.520
         8.500           8.500
                  -2353785.538 5  -1834117.228 5  23701173.375    23701174.898
         8.250           7.750
                   -948043.316 5   -738733.556 5  23216748.148    23216749.398
        10.750          10.750
                    851967.330 7    663871.199 6  20656617.719    20656618.141
        20.000          20.500
                  -2709595.305 5  -2099865.255 5  22965426.586    22965428.375
         9.750           9.250
 95  4 24 15 15  0.0000000  0  8G14G18G19G22G27G28G29G31
                   4044764.549 3   3151761.211 5  24074518.500    24074522.836
         6.000           6.250
                   -886727.563 7   -690955.984 6  20209550.336    20209551.051
        22.250          19.000
                  -1269561.747 6   -989268.439 6  21224745.164    21224746.133
        18.750          19.500
                   3764620.960 5   2933470.280 5  24063601.609    24063603.418
         8.250           8.250
                  -2390035.497 5  -1862363.933 5  23694275.203    23694277.039
         8.250           8.000
                   -959450.231 5   -747622.044 5  23214577.391    23214578.766
        10.750          10.750
                    865474.835 7    674396.533 6  20659188.094    20659188.496
        20.250          20.750
                  -2749626.611 5  -2131058.454 5  22957808.859    22957810.605
         9.750           9.250
 95  4 24 15 15 15.0000000  0  8G14G18G19G22G27G28G29G31
                   4099099.690 3   3194100.211 5  24084858.289    24084862.727
         6.000           6.250
                   -897583.879 7   -699415.444 6  20207484.578    20207485.371
        22.250          19.000
                  -1287924.669 6  -1003577.202 6  21221250.734    21221251.820
        18.750          19.500
                   3815865.602 5   2973401.150 5  24073353.234    24073355.094
         8.250           8.250
                  -2426283.787 5  -1890609.335 5  23687377.414    23687379.270
         8.500           8.250
                   -970747.721 5   -756425.269 5  23212427.617    23212428.844
        10.750          10.750
                    879074.420 7    684993.612 6  20661776.117    20661776.496
        20.250          20.750
                  -2789607.826 5  -2162212.617 5  22950200.500    22950202.406
         9.750           9.500
 95  4 24 15 15 30.0000000  0  8G14G18G19G22G27G28G29G31
                   4153431.766 3   3236436.821 5  24095197.563    24095201.223
         6.000           6.000
                   -908354.243 7   -707807.933 6  20205435.156    20205435.887
        22.250          19.000
                  -1306259.131 6  -1017863.790 6  21217761.898    21217762.977
        18.750          19.750
                   3867126.012 5   3013344.309 5  24083107.836    24083109.340
         8.250           7.750
                  -2462525.840 5  -1918849.879 5  23680480.867    23680482.691
         8.250           8.500
                   -981931.783 5   -765140.107 5  23210299.273    23210300.492
        10.750          10.750
                    892771.242 7    695666.460 6  20664382.461    20664382.813
        20.500          20.750
                  -2829535.786 5  -2193325.283 5  22942602.492    22942604.379
         9.750           9.500
 95  4 24 15 15 45.0000000  0  8G14G18G19G22G27G28G29G31
                   4207763.390 4   3278773.092 5  24105536.680    24105540.457
         6.250           6.000
                   -919036.841 7   -716132.030 6  20203402.219    20203403.004
        22.500          19.000
                  -1324560.160 6  -1032124.321 6  21214279.141    21214280.395
        18.500          19.750
                   3918400.589 5   3053298.518 5  24092864.891    24092866.477
         8.250           7.500
                  -2498759.995 5  -1947084.273 5  23673585.664    23673587.449
         8.250           8.500
                   -993003.501 5   -773767.409 5  23208192.516    23208193.797
        10.750          11.000
                    906563.918 7    706414.001 6  20667007.172    20667007.625
        20.500          21.000
                  -2869412.089 5  -2224397.699 5  22935014.094    22935016.242
         9.750           9.500
 95  4 24 15 16  0.0000000  0  8G14G18G19G22G27G28G29G31
                   4262097.265 4   3321111.102 5  24115875.898    24115880.012
         6.250           6.250
                   -929628.047 7   -724384.911 6  20201386.891    20201387.699
        22.250          18.750
                  -1342826.146 6  -1046357.547 6  21210803.180    21210804.500
        18.250          19.500
                   3969689.751 5   3093264.086 5  24102624.961    24102626.539
         8.250           7.500
                  -2534986.624 5  -1975312.795 5  23666691.914    23666693.836
         8.000           8.500
                  -1003962.333 5   -782306.736 5  23206106.992    23206108.465
        10.750          11.000
                    920450.417 7    717234.651 6  20669649.695    20669650.098
        20.500          20.500
                  -2909237.468 5  -2255430.440 5  22927435.695    22927437.664
         9.750           9.250
 95  4 24 15 16 15.0000000  0  8G14G18G19G22G27G28G29G31
                   4316436.232 3   3363453.077 5  24126216.383    24126220.348
         6.000           6.250
                   -940120.901 7   -732561.156 6  20199390.242    20199390.895
        22.500          19.000
                  -1361055.719 6  -1060562.400 6  21207334.070    21207335.441
        18.250          19.500
                   4020992.963 5   3133240.603 5  24112387.617    24112389.070
         8.250           7.500
                  -2571203.716 5  -2003533.887 5  23659799.922    23659802.086
         8.000           8.750
                  -1014805.911 5   -790756.267 5  23204043.414    23204044.891
        10.750          11.000
                    934433.672 7    728130.690 6  20672310.563    20672311.027
        20.500          20.750
                  -2949008.470 5  -2286420.805 5  22919867.328    22919869.512
         9.750           9.250
 95  4 24 15 16 30.0000000  0  8G14G18G19G22G27G28G29G31
                   4370780.684 3   3405799.327 5  24136557.906    24136561.961
         6.000           6.250
                   -950511.588 7   -740657.788 6  20197412.852    20197413.461
        22.750          18.750
                  -1379247.109 6  -1074737.500 6  21203872.414    21203873.750
        18.250          19.500
                   4072310.813 5   3173228.529 5  24122153.133    24122154.516
         8.500           7.500
                  -2607405.672 5  -2031743.179 5  23652911.109    23652913.172
         8.000           8.750
                  -1025533.195 5   -799115.171 5  23202002.148    23202003.586
        10.750          11.000
                    948513.852 7    739102.260 6  20674989.969    20674990.414
        20.500          21.000
                  -2988722.351 5  -2317366.660 5  22912309.992    22912312.129
         9.750           9.250
 95  4 24 15 16 45.0000000  0  8G14G18G19G22G27G28G29G31
                   4425130.768 3   3448149.959 5  24146900.563    24146904.477
         6.000           6.500
                   -960800.139 7   -748674.836 6  20195455.156    20195455.633
        22.750          18.750
                  -1397402.125 6  -1088884.257 6  21200417.680    21200418.938
        18.250          19.500
                   4123643.529 5   3213228.039 5  24131921.383    24131923.090
         8.500           7.500
                  -2643592.696 5  -2059940.844 5  23646024.875    23646026.922
         8.250           8.750
                  -1036146.070 5   -807384.932 5  23199982.750    23199984.012
        10.750          11.250
                    962686.664 7    750146.005 6  20677686.977    20677687.445
        20.500          21.000
                  -3028380.681 5  -2348269.234 5  22904763.406    22904765.508
         9.750           9.250
 95  4 24 15 17  0.0000000  0  8G14G18G19G22G27G28G29G31
                   4479490.641 4   3490508.221 5  24157245.359    24157249.109
         6.250           6.250
                   -970981.406 7   -756608.287 6  20193517.609    20193518.180
        22.750          18.500
                  -1415519.700 6  -1103001.840 6  21196969.977    21196971.109
        18.250          19.500
                   4174995.446 5   3253242.508 5  24141693.609    24141695.117
         8.500           7.500
                  -2679763.360 5  -2088125.763 5  23639141.992    23639143.941
         8.500           9.000
                  -1046641.529 5   -815563.192 5  23197985.469    23197986.820
        10.750          11.250
                    976955.219 7    761264.358 6  20680402.203    20680402.648
        20.500          21.000
                  -3067979.369 5  -2379125.334 5  22897227.797    22897229.895
         9.750           9.250
 95  4 24 15 17 15.0000000  0  8G14G18G19G22G27G28G29G31
                   4533857.542 3   3532871.965 5  24167590.773    24167594.703
         6.000           6.250
                   -981052.132 7   -764455.601 6  20191601.258    20191601.781
        22.750          18.250
                  -1433598.784 6  -1117089.428 6  21193529.703    21193530.840
        18.250          19.500
                   4226365.878 5   3293271.408 5  24151468.977    24151470.719
         8.500           7.750
                  -2715918.049 5  -2116298.235 5  23632262.055    23632263.957
         8.500           9.000
                  -1057018.902 5   -823649.438 5  23196010.672    23196011.891
        10.750          11.000
                    991317.645 7    772455.860 6  20683135.258    20683135.707
        20.500          20.750
                  -3107520.644 5  -2409936.691 5  22889703.508    22889705.477
         9.750           9.250
 95  4 24 15 17 30.0000000  0  7G18G19G22G27G28G29G31
                   -991016.286 7   -772219.869 6  20189705.094    20189705.609
        22.500          18.250
                  -1451642.289 6  -1131149.295 6  21190096.164    21190097.270
        18.500          19.500
                   4277748.699 5   3333309.959 5  24161246.945    24161248.508
         8.750           7.750
                  -2752061.557 5  -2144461.987 5  23625383.969    23625386.207
         8.250           9.250
                  -1067283.668 5   -831647.940 5  23194057.406    23194058.559
        10.750          11.000
                   1005765.570 7    783713.987 6  20685884.563    20685885.066
        20.500          20.750
                  -3147010.544 5  -2440708.020 5  22882188.719    22882190.695
         9.750           9.250
 95  4 24 15 17 45.0000000  0  7G18G19G22G27G28G29G31
                  -1000864.362 7   -779893.688 6  20187831.094    20187831.598
        22.750          18.250
                  -1469642.557 6  -1145175.468 6  21186670.914    21186671.988
        18.750          19.750
                   4329150.534 5   3373363.336 5  24171028.273    24171029.996
         8.500           7.750
                  -2788186.970 5  -2172611.642 5  23618509.414    23618511.836
         8.000           9.250
                  -1077428.494 5   -839552.982 5  23192127.063    23192128.059
        11.000          11.000
                   1020305.002 7    795043.412 6  20688651.398    20688651.926
        20.250          20.750
                  -3186441.306 5  -2471433.265 5  22874685.375    22874687.098
         9.750           9.250
 95  4 24 15 18  0.0000000  0  7G18G19G22G27G28G29G31
                  -1010601.121 7   -787480.773 6  20185978.375    20185978.809
        22.750          18.250
                  -1487605.981 6  -1159172.931 6  21183252.539    21183253.535
        18.750          19.750
                   4380567.511 5   3413428.496 5  24180812.555    24180814.363
         8.250           8.000
                  -2824298.248 5  -2200750.278 5  23611637.578    23611640.176
         7.750           9.000
                  -1087456.293 5   -847366.831 5  23190218.727    23190219.766
        11.000          11.000
                   1034930.416 7    806439.836 6  20691434.484    20691434.922
        20.250          20.750
                  -3225817.441 5  -2502115.947 5  22867192.438    22867193.887
        10.000           9.000
 95  4 24 15 18 15.0000000  0  7G18G19G22G27G28G29G31
                  -1020223.475 7   -794978.708 6  20184147.281    20184147.691
        22.750          18.250
                  -1505528.938 6  -1173138.866 6  21179842.094    21179843.070
        18.750          19.750
                   4432003.871 5   3453508.762 5  24190600.531    24190602.266
         7.750           8.250
                  -2860391.714 5  -2228875.034 5  23604768.961    23604771.430
         7.500           8.750
                  -1097361.281 5   -855084.987 5  23188333.734    23188334.941
        11.000          11.000
                   1049647.107 7    817907.379 6  20694234.875    20694235.402
        20.250          20.500
                  -3265132.454 5  -2532750.998 5  22859711.211    22859712.570
        10.250           9.250
 95  4 24 15 18 30.0000000  0  7G18G19G22G27G28G29G31
                  -1029737.175 7   -802391.973 6  20182336.875    20182337.371
        22.750          18.250
                  -1523413.486 6  -1187074.866 6  21176438.820    21176439.879
        18.750          19.750
                   4483454.317 5   3493600.002 5  24200391.219    24200393.105
         7.500           8.250
                  -2896471.596 5  -2256989.209 5  23597903.297    23597905.648
         7.500           8.500
                  -1107147.216 5   -862710.378 5  23186471.680    23186472.641
        11.000          11.000
                   1064453.237 7    829444.624 6  20697052.500    20697052.977
        20.250          20.500
                  -3304389.615 5  -2563340.970 5  22852240.977    22852242.250
        10.250           9.250
 95  4 24 15 18 45.0000000  0  7G18G19G22G27G28G29G31
                  -1039144.312 7   -809722.205 6  20180546.563    20180547.133
        22.750          18.250
                  -1541257.668 6  -1200979.418 6  21173043.094    21173044.184
        18.750          19.750
                   4534918.869 4   3533702.232 5  24210184.578    24210186.555
         7.000           8.500
                  -2932540.187 5  -2285094.580 5  23591039.969    23591041.957
         7.750           8.250
                  -1116812.882 5   -870242.052 5  23184632.281    23184633.457
        10.750          11.000
                   1079353.589 7    841055.287 6  20699887.891    20699888.309
        20.250          20.500
                  -3343590.932 5  -2593887.430 5  22844781.266    22844782.359
        10.500           9.250
 95  4 24 15 19  0.0000000  0  7G18G19G22G27G28G29G31
                  -1048446.561 7   -816970.705 6  20178776.633    20178777.250
        23.000          18.250
                  -1559063.281 6  -1214853.914 6  21169654.773    21169655.879
        18.750          20.000
                   4586396.979 4   3573815.020 5  24219980.617    24219982.750
         6.500           8.500
                  -2968601.438 5  -2313194.244 5  23584177.430    23584179.766
         7.750           8.250
                  -1126357.894 5   -877679.706 5  23182815.797    23182817.172
        10.750          11.000
                   1094352.189 7    852742.508 6  20702742.102    20702742.500
        20.250          20.500
                  -3382735.286 5  -2624389.502 5  22837332.227    22837333.531
        10.750           9.750
 95  4 24 15 19 15.0000000  0  7G18G19G22G27G28G29G31
                  -1057640.462 7   -824134.782 6  20177027.055    20177027.621
        23.000          18.500
                  -1576824.449 6  -1228693.778 6  21166274.867    21166276.020
        18.750          20.000
                   4637893.769 4   3613942.360 5  24229780.367    24229782.129
         6.750           8.250
                  -3004652.806 5  -2341286.203 5  23577317.102    23577319.266
         7.750           8.250
                  -1135776.344 5   -885018.744 5  23181023.492    23181024.832
        10.750          10.750
                   1109457.324 7    864512.746 6  20705616.508    20705616.910
        20.250          20.500
                  -3421814.708 5  -2654840.975 5  22829895.703    22829897.160
        10.750           9.750
 95  4 24 15 19 30.0000000  0  7G18G19G22G27G28G29G31
                  -1066733.886 7   -831220.564 6  20175296.563    20175297.129
        22.750          18.250
                  -1594545.052 6  -1242502.031 6  21162902.797    21162904.039
        18.750          20.250
                   4689404.321 4   3654080.421 5  24239582.242    24239584.203
         6.750           8.000
                  -3040699.626 5  -2369374.619 5  23570457.727    23570459.734
         7.750           8.250
                  -1145073.491 5   -892263.260 5  23179254.289    23179255.430
        10.750          10.750
                   1124665.112 7    876362.969 6  20708510.398    20708510.742
        20.250          20.500
                  -3460831.637 5  -2685243.752 5  22822470.930    22822472.402
        10.750          10.000
 95  4 24 15 19 45.0000000  0  7G18G19G22G27G28G29G31
                  -1075728.594 7   -838229.423 6  20173585.016    20173585.672
        22.750          18.500
                  -1612226.819 6  -1256280.022 6  21159538.078    21159539.379
        18.750          20.250
                   4740926.895 4   3694227.865 5  24249386.766    24249388.652
         7.000           7.750
                  -3076742.405 5  -2397459.883 5  23563598.977    23563600.965
         7.750           8.250
                  -1154250.481 5   -899414.147 5  23177507.930    23177509.254
        10.750          10.750
                   1139976.601 7    888293.997 6  20711424.133    20711424.527
        20.250          20.500
                  -3499783.826 5  -2715596.086 5  22815058.531    22815059.980
        11.000          10.250
 95  4 24 15 20  0.0000000  0  7G18G19G22G27G28G29G31
                  -1084621.562 7   -845159.003 6  20171892.695    20171893.426
        22.750          18.500
                  -1629863.257 6  -1270022.691 6  21156181.969    21156183.336
        18.500          20.250
                   4792466.196 4   3734388.347 5  24259194.453    24259196.227
         7.000           7.500
                  -3112775.689 5  -2425537.740 5  23556742.148    23556744.082
         7.750           8.250
                  -1163300.450 5   -906466.061 5  23175785.969    23175787.109
        10.750          11.000
                   1155402.403 7    900314.102 6  20714359.508    20714359.945
        20.250          20.500
                  -3538663.142 5  -2745891.632 5  22807659.953    22807661.766
        11.000          10.250
 95  4 24 15 20 15.0000000  0  7G18G19G22G27G28G29G31
                  -1093417.681 7   -852013.117 6  20170218.797    20170219.629
        22.750          18.250
                  -1647458.678 6  -1283733.405 6  21152833.547    21152834.961
        18.750          20.250
                   4844017.103 5   3774557.869 5  24269004.422    24269005.949
         7.500           7.000
                  -3148805.973 5  -2453613.264 5  23549885.555    23549887.801
         7.750           8.250
                  -1172228.062 5   -913422.621 5  23174087.000    23174088.082
        10.750          11.000
                   1170938.091 7    912419.828 6  20717316.000    20717316.457
        20.250          20.750
                  -3577474.014 5  -2776133.850 5  22800274.539    22800276.211
        11.000          10.750
 95  4 24 15 20 30.0000000  0  7G18G19G22G27G28G29G31
                  -1102113.888 7   -858789.375 6  20168563.852    20168564.691
        22.750          18.500
                  -1665011.028 6  -1297410.554 6  21149493.391    21149494.730
        18.750          20.500
                   4895580.613 5   3814737.217 5  24278816.586    24278818.238
         7.500           6.750
                  -3184831.974 5  -2481685.450 5  23543029.844    23543032.266
         7.750           8.250
                  -1181032.570 5   -920283.268 5  23172411.586    23172412.656
        10.750          11.000
                   1186585.870 7    924612.903 6  20720293.633    20720294.078
        20.500          20.750
                  -3616214.064 5  -2806320.882 5  22792902.477    22792904.301
        11.250          10.750
 95  4 24 15 20 45.0000000  0  7G18G19G22G27G28G29G31
                  -1110710.557 7   -865488.074 6  20166927.992    20166928.820
        22.750          18.250
                  -1682523.158 6  -1311056.359 6  21146161.102    21146162.340
        18.750          20.500
                   4947156.870 5   3854926.500 5  24288631.117    24288633.031
         7.500           6.750
                  -3220853.740 5  -2509754.334 5  23536175.367    23536177.293
         7.750           8.000
                  -1189715.240 5   -927048.969 5  23170759.211    23170760.566
        10.750          11.000
                   1202346.281 7    936893.736 6  20723292.852    20723293.328
        20.500          21.000
                  -3654885.770 5  -2836454.656 5  22785543.516    22785545.234
        11.500          10.750
 95  4 24 15 21  0.0000000  0  7G18G19G22G27G28G29G31
                  -1119206.827 7   -872108.539 6  20165311.328    20165312.012
        22.750          18.250
                  -1699998.493 6  -1324673.500 6  21142835.719    21142836.941
        19.000          20.500
                   4998746.503 5   3895126.196 5  24298448.273    24298450.008
         7.500           6.250
                  -3256868.648 5  -2537817.883 5  23529322.055    23529323.625
         8.000           7.750
                  -1198276.421 5   -933720.006 5  23169130.258    23169131.516
        10.750          11.000
                   1218218.407 7    949261.622 6  20726313.172    20726313.723
        20.250          21.000
                  -3693485.486 5  -2866532.333 5  22778198.242    22778199.945
        11.500          10.750
 95  4 24 15 21 15.0000000  0  7G18G19G22G27G28G29G31
                  -1127595.645 7   -878645.276 6  20163714.984    20163715.672
        23.000          18.250
                  -1717432.839 6  -1338258.695 6  21139518.156    21139519.270
        19.000          20.500
                   5050355.450 4   3935340.955 5  24308269.219    24308270.957
         7.000           6.250
                  -3292869.674 5  -2565870.623 5  23522471.422    23522472.906
         8.250           7.500
                  -1206711.494 5   -940292.775 5  23167524.953    23167526.262
        10.750          11.000
                   1234204.125 7    961718.022 6  20729355.180    20729355.641
        20.250          21.250
                  -3732007.156 5  -2896549.196 5  22770867.836    22770869.441
        11.500          10.750
 95  4 24 15 21 30.0000000  0  6G18G19G27G28G29G31
                  -1135875.459 7   -885097.076 6  20162139.453    20162140.066
        23.000          18.250
                  -1734827.628 6  -1351813.071 6  21136208.000    21136209.027
        19.000          20.500
                  -3328856.458 5  -2593912.261 5  23515623.195    23515624.574
         8.250           7.500
                  -1215022.502 5   -946768.873 5  23165943.508    23165944.512
        10.750          11.000
                   1250298.368 7    974258.995 6  20732417.758    20732418.238
        20.250          21.000
                  -3770454.045 5  -2926507.793 5  22763551.680    22763553.148
        11.500          10.750
 95  4 24 15 21 45.0000000  0  6G18G19G27G28G29G31
                  -1144044.353 7   -891462.444 6  20160584.820    20160585.367
        23.000          18.250
                  -1752183.531 6  -1365337.144 6  21132905.352    21132906.477
        19.000          20.500
                  -3364825.436 5  -2621940.027 5  23508778.648    23508780.262
         8.250           7.500
                  -1223209.564 5   -953148.391 5  23164385.688    23164386.813
        10.750          11.250
                   1266499.949 7    986883.609 6  20735500.977    20735501.430
        20.250          21.250
                  -3808828.681 5  -2956410.090 5  22756249.156    22756250.859
        11.250          10.750
 95  4 24 15 22  0.0000000  0  6G18G19G27G28G29G31
                  -1152108.406 7   -897746.117 6  20159050.477    20159050.953
        23.250          18.250
                  -1769506.474 6  -1378835.535 6  21129608.773    21129609.898
        19.000          20.500
                  -3400784.077 5  -2649959.742 5  23501935.836    23501937.348
         8.250           7.500
                  -1231279.376 5   -959436.544 5  23162849.883    23162851.199
        10.750          11.500
                   1282801.053 7    999585.764 6  20738602.859    20738603.320
        20.500          21.250
                  -3847141.393 5  -2986264.129 5  22748958.227    22748959.957
        11.000          10.500
 95  4 24 15 22 15.0000000  0  6G18G19G27G28G29G31
                  -1160058.783 7   -903941.210 6  20157537.547    20157538.051
        23.250          18.000
                  -1786792.295 6  -1392304.999 6  21126319.570    21126320.645
        19.000          20.500
                  -3436727.381 5  -2677967.501 5  23495095.852    23495097.535
         8.250           7.750
                  -1239226.043 5   -965628.744 5  23161337.773    23161338.938
        10.750          11.250
                   1299204.642 7   1012367.783 6  20741724.367    20741724.895
        20.500          21.250
                  -3885389.119 5  -3016067.527 5  22741679.930    22741681.594
        11.000          10.250
 95  4 24 15 22 30.0000000  0  6G18G19G27G28G29G31
                  -1167891.265 7   -910044.434 6  20156047.078    20156047.559
        23.250          18.000
                  -1804040.695 6  -1405745.302 6  21123037.125    21123038.082
        18.750          20.250
                  -3472652.849 5  -2705961.355 5  23488259.328    23488261.336
         8.000           8.000
                  -1247048.094 5   -971723.832 5  23159849.297    23159850.453
        10.750          11.250
                   1315710.509 7   1025229.495 6  20744865.344    20744865.801
        20.250          21.250
                  -3923570.977 5  -3045819.608 5  22734414.242    22734415.691
        10.750          10.250
 95  4 24 15 22 45.0000000  0  6G18G19G27G28G29G31
                  -1175603.539 7   -916053.996 6  20154579.422    20154579.957
        23.000          18.000
                  -1821252.670 6  -1419157.222 6  21119761.773    21119762.918
        18.750          20.250
                  -3508558.755 5  -2733939.962 5  23481426.922    23481429.051
         8.250           8.250
                  -1254744.469 5   -977720.994 5  23158384.703    23158385.805
        10.750          11.000
                   1332319.815 7   1038171.808 6  20748025.977    20748026.410
        20.250          21.250
                  -3961685.044 5  -3075518.857 5  22727161.313    22727162.859
        10.750          10.250
 95  4 24 15 23  0.0000000  0  6G18G19G27G28G29G31
                  -1183201.543 7   -921974.513 6  20153133.391    20153133.969
        23.250          18.000
                  -1838432.895 6  -1432544.403 6  21116492.430    21116493.590
        18.750          20.250
                  -3544452.885 5  -2761909.392 5  23474596.563    23474598.613
         8.250           8.500
                  -1262320.180 5   -983624.133 5  23156943.078    23156944.137
        10.750          11.000
                   1349026.240 7   1051189.799 6  20751205.156    20751205.625
        20.250          21.500
                  -3999736.494 5  -3105169.318 5  22719920.430    22719922.004
        10.750          10.000
 95  4 24 15 23 15.0000000  0  6G18G19G27G28G29G31
                  -1190681.639 7   -927803.157 6  20151710.234    20151710.809
        23.000          18.000
                  -1855575.544 6  -1445902.302 6  21113230.266    21113231.422
        18.750          20.500
                  -3580333.062 5  -2789867.958 5  23467768.789    23467770.734
         8.250           8.750
                  -1269770.037 5   -989429.207 5  23155525.336    23155526.398
        10.750          11.000
                   1365831.178 7   1064284.551 6  20754403.031    20754403.488
        20.000          21.500
                  -4037720.496 5  -3134767.218 5  22712692.148    22712693.781
        10.750          10.000
 95  4 24 15 23 30.0000000  0  6G18G19G27G28G29G31
                  -1198050.337 7   -933544.994 6  20150307.859    20150308.539
        23.000          18.000
                  -1872683.310 6  -1459233.024 6  21109974.844    21109976.031
        18.750          20.250
                  -3616208.827 5  -2817823.082 5  23460941.805    23460943.723
         8.250           9.000
                  -1277099.611 5   -995140.554 5  23154130.523    23154131.523
        10.750          11.000
                   1382730.008 6   1077452.467 6  20757618.734    20757619.266
        19.750          21.500
                  -4075645.604 5  -3164319.229 5  22705475.227    22705476.875
        10.750          10.000
 95  4 24 15 23 45.0000000  0  6G18G19G27G28G29G31
                  -1205308.594 7   -939200.774 6  20148926.664    20148927.293
        23.000          18.000
                  -1889754.152 6  -1472534.970 6  21106726.172    21106727.336
        18.750          20.250
                  -3652078.540 5  -2845773.490 5  23454115.938    23454118.047
         8.500           9.000
                  -1284306.361 5  -1000756.191 5  23152759.211    23152760.117
        10.750          10.750
                   1399727.037 6   1090696.900 6  20760853.133    20760853.695
        19.750          21.500
                  -4113509.256 5  -3193823.357 5  22698270.148    22698271.684
        11.000          10.000
 95  4 24 15 24  0.0000000  0  6G18G19G27G28G29G31
                  -1212455.944 7   -944770.133 6  20147566.555    20147567.223
        23.000          17.750
                  -1906783.964 6  -1485804.946 6  21103485.609    21103486.734
        18.500          20.250
                  -3687940.996 5  -2873718.240 5  23447291.383    23447293.586
         8.250           9.000
                  -1291386.582 5  -1006273.235 5  23151411.867    23151412.699
        10.750          10.750
                   1416826.494 6   1104021.151 6  20764107.000    20764107.598
        19.500          21.500
                  -4151306.801 5  -3223275.971 5  22691077.523    22691078.973
        11.000          10.000
 95  4 24 15 24 15.0000000  0  6G18G19G27G28G29G31
                  -1219493.707 7   -950254.101 6  20146227.359    20146227.996
        23.250          17.750
                  -1923778.331 6  -1499047.304 6  21100251.766    21100252.938
        18.750          20.250
                  -3723800.741 5  -2901660.886 5  23440467.742    23440469.777
         8.250           9.000
                  -1298342.901 5  -1011693.728 5  23150088.070    23150088.965
        10.750          10.750
                   1434025.453 6   1117422.939 6  20767379.742    20767380.531
        19.500          21.750
                  -4189037.978 5  -3252676.870 5  22683897.531    22683898.980
        11.500          10.000
 95  4 24 15 24 30.0000000  0  6G18G19G27G28G29G31
                  -1226421.985 7   -955652.754 6  20144909.047    20144909.563
        23.250          17.750
                  -1940736.845 6  -1512261.720 6  21097024.602    21097025.785
        18.500          20.250
                  -3759656.163 5  -2929600.158 5  23433644.578    23433646.441
         8.250           9.000
                  -1305173.805 5  -1017016.498 5  23148788.336    23148789.090
        10.750          10.750
                   1451327.733 6   1130905.231 6  20770672.289    20770673.016
        19.250          21.500
                  -4226697.478 5  -3282021.917 5  22676731.227    22676732.672
        11.500          10.250
 95  4 24 15 24 45.0000000  0  6G18G19G27G28G29G31
                  -1233248.401 7   -960972.039 6  20143610.008    20143610.441
        23.500          17.750
                  -1957664.545 6  -1525452.130 6  21093803.391    21093804.543
        18.750          20.250
                  -3795512.282 5  -2957539.971 5  23426821.234    23426823.359
         8.500           9.000
                  -1311883.773 5  -1022245.031 5  23147511.500    23147512.293
        11.000          10.750
                   1468730.148 6   1144465.554 6  20773983.844    20773984.590
        19.250          21.750
                  -4264285.630 5  -3311311.372 5  22669578.367    22669579.816
        11.500          10.250
 95  4 24 15 25  0.0000000  0  6G18G19G27G28G29G31
                  -1239970.288 7   -966209.869 6  20142330.914    20142331.363
        23.500          17.750
                  -1974553.507 6  -1538612.353 6  21090589.516    21090590.688
        18.500          20.250
                  -3831362.645 5  -2985475.305 5  23419999.336    23420001.203
         8.500           9.250
                  -1318466.361 5  -1027374.306 5  23146258.703    23146259.766
        11.000          11.000
                   1486238.724 6   1158108.601 6  20777315.586    20777316.344
        19.250          21.750
                  -4301794.953 5  -3340539.399 5  22662440.844    22662442.348
        11.500          10.250
 95  4 24 15 25 15.0000000  0  6G18G19G27G28G29G31
                  -1246598.581 7   -971374.771 6  20141069.617    20141070.105
        23.750          17.750
                  -1991411.561 6  -1551748.496 6  21087381.703    21087382.789
        18.500          20.250
                  -3867213.698 5  -3013411.172 5  23413177.438    23413179.086
         8.750           9.250
                  -1324929.847 5  -1032410.776 5  23145028.875    23145029.781
        11.000          10.750
                   1503846.254 6   1171828.757 6  20780666.281    20780666.945
        19.250          21.750
                  -4339232.126 5  -3369711.198 5  22655316.648    22655318.246
        11.500          10.250
 95  4 24 15 25 30.0000000  0  6G18G19G27G28G29G31
                  -1253127.883 7   -976462.535 6  20139826.977    20139827.406
        23.500          17.750
                  -2008235.880 6  -1564858.349 6  21084179.930    21084181.164
        18.250          20.000
                  -3903058.705 5  -3041342.336 5  23406356.180    23406357.863
         9.000           9.250
                  -1331270.222 5  -1037351.324 5  23143822.445    23143823.172
        11.000          10.750
                   1521558.974 6   1185630.873 6  20784036.891    20784037.512
        19.500          21.500
                  -4376592.404 5  -3398823.088 5  22648207.070    22648208.496
        11.500          10.250
 95  4 24 15 25 45.0000000  0  6G18G19G27G28G29G31
                  -1259553.004 7   -981469.120 6  20138604.289    20138604.762
        23.500          17.500
                  -2025025.782 6  -1577941.383 6  21080984.711    21080986.098
        18.250          20.250
                  -3938892.008 5  -3069264.369 5  23399537.273    23399539.098
         9.000           9.250
                  -1337484.639 5  -1042193.712 5  23142639.883    23142640.723
        11.000          11.000
                   1539379.775 6   1199517.213 6  20787428.039    20787428.590
        19.500          21.500
                  -4413871.910 5  -3427872.031 5  22641113.016    22641114.449
        11.500          10.250
 95  4 24 15 26  0.0000000  0  6G18G19G27G28G29G31
                  -1265874.547 7   -986394.993 6  20137401.180    20137401.762
        23.500          17.500
                  -2041786.171 6  -1591001.418 6  21077795.305    21077796.707
        18.250          20.250
                  -3974712.514 5  -3097176.436 5  23392720.820    23392722.730
         9.000           9.250
                  -1343576.055 5  -1046940.264 5  23141480.680    23141481.535
        11.000          11.000
                   1557302.504 6   1213482.972 6  20790838.766    20790839.203
        19.500          21.750
                  -4451071.047 5  -3456858.351 5  22634034.297    22634035.555
        11.500          10.250
 95  4 24 15 26 15.0000000  0  6G18G19G27G28G29G31
                  -1272092.635 7   -991240.252 6  20136217.961    20136218.598
        23.250          17.500
                  -2058519.371 6  -1604040.271 6  21074611.289    21074612.605
        18.250          20.250
                  -4010521.109 5  -3125079.213 5  23385906.828    23385908.414
         8.750           9.250
                  -1349546.810 5  -1051592.795 5  23140344.406    23140345.246
        11.000          11.250
                   1575321.797 6   1227523.976 6  20794267.758    20794268.211
        19.500          21.500
                  -4488190.805 5  -3485782.827 5  22626970.547    22626972.078
        11.500          10.250
 95  4 24 15 26 30.0000000  0  6G18G19G27G28G29G31
                  -1278205.665 7   -996003.649 6  20135054.695    20135055.285
        23.000          17.500
                  -2075222.758 6  -1617055.890 6  21071432.742    21071434.023
        18.250          20.250
                  -4046313.840 5  -3152969.638 5  23379095.305    23379097.258
         8.500           9.250
                  -1355395.269 5  -1056150.021 5  23139231.484    23139232.387
        11.000          11.250
                   1593440.370 6   1241642.340 6  20797715.508    20797715.934
        19.500          21.500
                  -4525231.349 5  -3514645.572 5  22619922.125    22619923.488
        11.500          10.250
 95  4 24 15 26 45.0000000  0  6G18G19G27G28G29G31
                  -1284213.545 7  -1000685.113 6  20133911.547    20133912.160
        23.250          17.500
                  -2091892.736 6  -1630045.477 6  21068260.516    21068261.641
        18.250          20.000
                  -4082086.928 5  -3180844.751 5  23372287.906    23372289.680
         8.500           9.000
                  -1361120.714 5  -1060611.399 5  23138141.938    23138142.984
        11.000          11.250
                   1611658.502 6   1255838.283 6  20801182.477    20801183.027
        19.500          21.250
                  -4562193.977 5  -3543447.603 5  22612888.234    22612889.727
        11.500          10.250
 95  4 24 15 27  0.0000000  0  6G18G19G27G28G29G31
                  -1290115.280 7  -1005283.864 6  20132788.570    20132789.027
        23.250          17.500
                  -2108528.474 6  -1643008.384 6  21065094.813    21065095.984
        18.500          20.250
                  -4117838.703 5  -3208703.259 5  23365484.680    23365486.352
         8.500           9.000
                  -1366722.240 5  -1064976.219 5  23137076.031    23137076.910
        11.000          11.250
                   1629974.528 6   1270110.506 6  20804667.844    20804668.250
        19.750          21.500
                  -4599081.097 5  -3572190.803 5  22605868.813    22605870.313
        11.500          10.500
 95  4 24 15 27 15.0000000  0  6G18G19G27G28G29G31
                  -1295910.579 7  -1009799.675 6  20131685.750    20131686.281
        23.500          17.500
                  -2125129.219 6  -1655944.025 6  21061935.922    21061937.051
        18.750          20.250
                  -4153570.452 5  -3236546.163 5  23358685.031    23358686.820
         8.500           8.750
                  -1372200.596 5  -1069245.055 5  23136033.469    23136034.332
        11.250          11.250
                   1648387.564 6   1284458.322 6  20808171.734    20808172.184
        19.750          21.500
                  -4635895.974 5  -3600877.694 5  22598863.086    22598864.891
        11.500          10.750
 95  4 24 15 27 30.0000000  0  6G18G19G27G28G29G31
                  -1301596.856 7  -1014230.537 6  20130603.695    20130604.242
        23.500          17.500
                  -2141697.093 6  -1668854.052 6  21058783.227    21058784.258
        18.500          20.250
                  -4189285.707 5  -3264376.227 5  23351888.766    23351890.297
         9.000           8.750
                  -1377557.251 5  -1073419.067 5  23135014.297    23135015.043
        11.250          11.250
                   1666895.775 6   1298880.304 6  20811693.758    20811694.230
        19.750          21.500
                  -4672641.267 5  -3629510.376 5  22591870.953    22591872.625
        11.250          10.750
 95  4 24 15 27 45.0000000  0  6G18G19G27G28G29G31
                  -1307172.779 7  -1018575.413 6  20129542.719    20129543.164
        23.500          17.500
                  -2158232.034 6  -1681738.415 6  21055636.648    21055637.688
        18.750          20.250
                  -4224985.124 5  -3292193.945 5  23345095.477    23345097.020
         9.250           8.750
                  -1382793.201 5  -1077499.019 5  23134017.828    23134018.828
        11.250          11.500
                   1685496.538 6   1313374.402 6  20815233.406    20815233.879
        19.750          21.500
                  -4709321.032 5  -3658091.992 5  22584890.711    22584892.559
        11.250          11.000
 95  4 24 15 28  0.0000000  0  6G18G19G27G28G29G31
                  -1312640.395 7  -1022835.890 6  20128502.250    20128502.699
        23.500          17.250
                  -2174732.530 6  -1694595.940 6  21052496.703    21052497.750
        18.750          20.250
                  -4260668.511 5  -3319999.176 5  23338304.836    23338306.930
         9.000           9.000
                  -1387908.858 5  -1081485.239 5  23133044.266    23133045.328
        11.000          11.500
                   1704188.051 6   1327939.214 6  20818790.352    20818790.836
        19.750          21.250
                  -4745935.710 5  -3686622.894 5  22577923.195    22577925.070
        11.500          11.000
 95  4 24 15 28 15.0000000  0  6G18G19G27G28G29G31
                  -1318000.701 7  -1027012.748 6  20127482.227    20127482.699
        23.500          17.250
                  -2191195.203 6  -1707423.993 6  21049364.094    21049365.027
        19.000          20.250
                  -4296338.409 5  -3347793.889 5  23331517.211    23331519.297
         9.000           9.250
                  -1392903.745 5  -1085377.353 5  23132093.984    23132094.719
        11.250          11.500
                   1722974.669 6   1342578.136 6  20822365.281    20822365.789
        19.750          21.750
                  -4782483.318 5  -3715101.539 5  22570968.469    22570970.316
        11.500          11.250
 95  4 24 15 28 30.0000000  0  6G18G19G27G28G29G31
                  -1323253.600 7  -1031105.915 6  20126482.625    20126483.133
        23.500          17.250
                  -2207617.215 6  -1720220.358 6  21046239.336    21046240.266
        19.000          20.250
                  -4331997.055 5  -3375579.829 5  23324731.531    23324733.949
         9.000           9.750
                  -1397776.427 5  -1089174.241 5  23131166.555    23131167.551
        11.250          11.500
                   1741859.805 6   1357293.825 6  20825959.016    20825959.488
        19.750          21.500
                  -4818963.615 5  -3743527.721 5  22564026.445    22564028.254
        11.500          11.250
 95  4 24 15 28 45.0000000  0  6G18G19G27G28G29G31
                  -1328401.997 7  -1035117.648 6  20125502.875    20125503.422
        23.500          17.250
                  -2224002.124 6  -1732987.812 6  21043121.359    21043122.246
        19.250          20.250
                  -4367649.179 5  -3403360.687 5  23317947.078    23317949.336
         9.000           9.750
                  -1402529.481 5  -1092877.910 5  23130262.078    23130263.129
        11.000          11.500
                   1760842.425 6   1372085.475 6  20829571.219    20829571.773
        19.750          21.500
                  -4855378.945 5  -3771903.285 5  22557096.875    22557098.574
        11.750          11.500
 95  4 24 15 29  0.0000000  0  6G18G19G27G28G29G31
                  -1333441.993 7  -1039044.910 6  20124543.750    20124544.359
        23.500          17.250
                  -2240348.127 6  -1745724.951 6  21040010.852    21040011.746
        19.250          20.250
                  -4403295.607 5  -3431137.105 5  23311163.859    23311166.027
         9.000           9.750
                  -1407160.228 5  -1096486.274 5  23129380.914    23129381.848
        11.000          11.500
                   1779924.428 6   1386954.564 6  20833202.375    20833202.992
        19.500          21.250
                  -4891723.953 5  -3800224.053 5  22550180.555    22550182.355
        11.500          11.500
 95  4 24 15 29 15.0000000  0  6G18G19G27G28G29G31
                  -1338375.810 7  -1042889.441 6  20123604.867    20123605.488
        23.250          17.250
                  -2256658.874 6  -1758434.624 6  21036906.906    21036907.797
        19.000          20.250
                  -4438942.178 5  -3458913.643 5  23304380.813    23304382.617
         9.250           9.250
                  -1411671.006 5  -1100001.163 5  23128522.445    23128523.375
        11.000          11.250
                   1799103.229 6   1401899.086 6  20836851.969    20836852.551
        19.500          21.500
                  -4927999.076 5  -3828490.365 5  22543277.469    22543279.293
        11.500          11.500
 95  4 24 15 29 30.0000000  0  6G18G19G27G28G29G31
                  -1343197.401 7  -1046646.523 6  20122687.336    20122687.957
        23.500          17.250
                  -2272932.683 6  -1771115.508 6  21033810.086    21033811.023
        19.000          20.250
                  -4474584.480 5  -3486686.856 5  23297598.328    23297599.840
         9.500           9.250
                  -1416057.649 5  -1103419.316 5  23127687.781    23127688.586
        11.000          11.250
                   1818382.662 6   1416922.020 6  20840520.672    20840521.273
        19.500          21.250
                  -4964198.122 5  -3856697.397 5  22536389.156    22536390.871
        11.500          11.500
 95  4 24 15 29 45.0000000  0  6G18G19G27G28G29G31
                  -1347912.592 7  -1050320.696 6  20121790.242    20121790.781
        23.500          17.250
                  -2289177.436 6  -1783773.755 6  21030718.672    21030719.723
        19.000          20.250
                  -4510225.490 5  -3514459.056 5  23290816.266    23290817.637
         9.750           9.000
                  -1420325.033 5  -1106744.540 5  23126875.672    23126876.637
        11.250          11.250
                   1837756.570 6   1432018.573 6  20844207.281    20844207.895
        19.500          21.250
                  -5000325.274 5  -3884848.407 5  22529514.133    22529515.883
        11.500          11.500
 95  4 24 15 30  0.0000000  0  6G18G19G27G28G29G31
                  -1352523.755 7  -1053913.811 6  20120912.766    20120913.270
        23.500          17.250
                  -2305395.470 6  -1796411.177 6  21027632.531    21027633.676
        19.000          20.250
                  -4545866.000 5  -3542230.879 5  23284034.070    23284035.090
         9.750           8.750
                  -1424472.691 5  -1109976.478 5  23126086.453    23126087.293
        11.250          11.000
                   1857224.666 6   1447188.518 6  20847912.039    20847912.813
        19.500          21.250
                  -5036378.173 5  -3912941.554 5  22522653.578    22522655.227
        11.500          11.250
 95  4 24 15 30 15.0000000  0  6G18G19G27G28G29G31
                  -1357032.237 7  -1057426.914 6  20120054.813    20120055.309
        23.500          17.000
                  -2321587.456 6  -1809028.302 6  21024551.328    21024552.430
        19.000          20.250
                  -4581510.377 5  -3570005.712 5  23277251.172    23277252.336
         9.750           8.750
                  -1428500.026 5  -1113114.655 5  23125320.117    23125320.715
        11.250          11.000
                   1876786.468 6   1462431.479 6  20851634.570    20851635.215
        19.500          21.250
                  -5072353.301 5  -3940974.108 5  22515807.672    22515809.301
        11.500          11.250
 95  4 24 15 30 30.0000000  0  6G18G19G27G28G29G31
                  -1361440.882 7  -1060862.219 6  20119215.914    20119216.234
        23.500          17.000
                  -2337757.545 6  -1821628.368 6  21021473.992    21021475.078
        18.750          20.000
                  -4617160.875 5  -3597785.312 5  23270466.883    23270468.156
         9.500           8.750
                  -1432407.849 5  -1116159.698 5  23124576.445    23124577.102
        11.250          11.000
                   1896439.725 6   1477745.703 6  20855374.375    20855375.047
        19.500          21.250
                  -5108252.743 5  -3968947.678 5  22508976.398    22508977.961
        11.500          11.250
 95  4 24 15 30 45.0000000  0  6G18G19G27G28G29G31
                  -1365746.904 7  -1064217.559 6  20118396.438    20118396.828
        23.500          16.750
                  -2353905.606 6  -1834211.268 6  21018401.172    21018402.262
        18.750          19.750
                  -4652813.555 5  -3625566.606 5  23263682.094    23263683.645
         9.250           9.000
                  -1436193.317 5  -1119109.405 5  23123856.125    23123856.980
        11.250          11.000
                   1916183.928 6   1493130.796 6  20859131.656    20859132.344
        19.500          21.000
                  -5144075.369 5  -3996861.397 5  22502159.609    22502161.273
        11.750          11.500
 95  4 24 15 31  0.0000000  0  6G18G19G27G28G29G31
                  -1369948.245 7  -1067491.327 6  20117596.945    20117597.313
        23.500          16.750
                  -2370032.028 6  -1846777.305 6  21015332.422    21015333.496
        18.500          19.750
                  -4688466.612 5  -3653348.192 5  23256897.539    23256899.238
         9.250           9.250
                  -1439854.999 5  -1121962.655 5  23123159.219    23123160.039
        11.250          11.250
                   1936020.323 6   1508587.723 6  20862906.570    20862907.273
        19.500          21.250
                  -5179817.950 5  -4024712.743 5  22495358.141    22495359.512
        11.750          11.250
 95  4 24 15 31 15.0000000  0  6G18G19G27G28G29G31
                  -1374048.877 7  -1070686.621 6  20116816.484    20116816.914
        23.250          16.750
                  -2386140.699 6  -1859329.511 6  21012266.922    21012267.941
        18.750          19.750
                  -4724124.537 5  -3681133.572 5  23250112.219    23250113.809
         9.250           9.750
                  -1443396.511 5  -1124722.263 5  23122485.516    23122486.152
        11.500          11.000
                   1955944.018 6   1524112.679 6  20866697.750    20866698.484
        19.750          21.250
                  -5215483.345 6  -4052503.939 5  22488571.219    22488572.582
        12.000          11.500
 95  4 24 15 31 30.0000000  0  6G18G19G27G28G29G31
                  -1378046.644 7  -1073801.759 6  20116055.797    20116056.328
        23.000          16.500
                  -2402229.711 6  -1871866.397 6  21009205.555    21009206.469
        18.750          19.500
                  -4759783.675 5  -3708919.896 5  23243326.578    23243328.293
         9.500           9.750
                  -1446815.558 5  -1127386.450 5  23121834.781    23121835.527
        11.500          11.250
                   1975955.993 6   1539706.422 6  20870506.102    20870506.785
        19.750          21.000
                  -5251070.412 6  -4080234.100 5  22481799.117    22481800.551
        12.250          11.250
 95  4 24 15 31 45.0000000  0  6G18G19G27G28G29G31
                  -1381945.378 7  -1076839.733 6  20115313.859    20115314.387
        23.000          16.750
                  -2418298.862 6  -1884387.812 6  21006147.633    21006148.488
        18.750          19.500
                  -4795446.796 5  -3736709.325 5  23236540.219    23236541.863
         9.500          10.000
                  -1450114.856 5  -1129957.320 5  23121206.820    23121207.844
        11.500          11.500
                   1996055.401 7   1555368.299 6  20874330.945    20874331.449
        20.000          21.000
                  -5286582.398 6  -4107905.766 5  22475041.570    22475042.875
        12.500          11.250
 95  4 24 15 32  0.0000000  0  6G18G19G27G28G29G31
                  -1385742.519 7  -1079798.542 6  20114591.203    20114591.742
        23.250          16.750
                  -2434341.878 6  -1896888.856 6  21003094.633    21003095.391
        18.750          19.500
                  -4831112.879 5  -3764501.052 5  23229753.141    23229754.828
         9.750          10.000
                  -1453291.902 5  -1132432.930 5  23120602.313    23120603.355
        11.500          11.500
                   2016246.514 6   1571101.631 6  20878173.180    20878173.672
        19.750          20.750
                  -5322018.635 6  -4135518.400 5  22468298.242    22468299.469
        12.500          11.250
 95  4 24 15 32 15.0000000  0  6G18G19G27G28G29G31
                  -1389439.837 7  -1082679.571 6  20113887.813    20113888.215
        23.250          16.750
                  -2450357.848 6  -1909368.828 6  21000046.891    21000047.594
        18.750          19.500
                  -4866786.357 5  -3792298.557 5  23222964.734    23222966.133
         9.500           9.750
                  -1456349.105 5  -1134815.157 5  23120020.539    23120021.449
        11.250          11.500
                   2036528.660 6   1586905.902 6  20882032.641    20882033.191
        19.750          20.500
                  -5357379.023 6  -4163071.939 5  22461569.461    22461570.629
        12.500          11.250
 95  4 24 15 32 30.0000000  0  6G18G19G27G28G29G31
                  -1393035.595 7  -1085481.460 6  20113203.641    20113204.133
        23.500          17.000
                  -2466341.868 6  -1921823.908 6  20997005.352    20997006.059
        18.750          19.500
                  -4902461.865 5  -3820097.637 5  23216175.844    23216177.320
         9.500           9.500
                  -1459285.365 5  -1137103.147 5  23119461.773    23119462.828
        11.250          11.750
                   2056905.248 6   1602783.761 6  20885910.094    20885910.520
        19.750          20.500
                  -5392660.668 6  -4190564.115 5  22454855.508    22454856.863
        12.750          11.250
 95  4 24 15 32 45.0000000  0  6G18G19G27G28G29G31
                  -1396528.563 7  -1088203.248 6  20112538.938    20112539.445
        23.500          17.000
                  -2482295.873 6  -1934255.593 6  20993969.320    20993970.113
        18.750          19.500
                  -4938138.352 5  -3847897.484 5  23209386.563    23209388.363
         9.250           9.500
                  -1462102.469 5  -1139298.282 5  23118925.680    23118926.723
        11.250          11.750
                   2077377.570 6   1618736.218 6  20889805.906    20889806.223
        19.750          20.250
                  -5427865.041 6  -4217996.085 5  22448156.359    22448157.766
        12.500          11.500
 95  4 24 15 33  0.0000000  0  6G18G19G27G28G29G31
                  -1399911.908 7  -1090839.620 6  20111895.242    20111895.723
        23.750          17.000
                  -2498217.546 6  -1946662.087 6  20990939.648    20990940.418
        18.750          19.500
                  -4973812.832 5  -3875695.766 5  23202597.930    23202599.910
         9.250           9.750
                  -1464797.863 5  -1141398.579 5  23118412.766    23118413.855
        11.250          11.500
                   2097950.882 6   1634767.368 6  20893720.844    20893721.203
        19.750          20.250
                  -5462985.801 6  -4245362.893 5  22441472.852    22441474.453
        12.500          11.750
 95  4 24 15 33 15.0000000  0  6G18G19G27G28G29G31
                  -1403185.259 7  -1093390.277 6  20111272.203    20111272.699
        23.750          17.250
                  -2514102.447 6  -1959039.930 6  20987916.695    20987917.488
        18.750          19.500
                  -5009484.215 5  -3903491.635 5  23195809.883    23195812.031
         9.250          10.000
                  -1467371.181 5  -1143403.754 5  23117922.992    23117923.938
        11.000          11.500
                   2118626.203 6   1650878.001 6  20897655.297    20897655.625
        19.750          20.000
                  -5498023.335 6  -4272664.855 5  22434805.633    22434807.152
        12.500          11.750
 95  4 24 15 33 30.0000000  0  6G18G19G27G28G29G31
                  -1406351.209 7  -1095857.249 6  20110669.820    20110670.352
        23.500          17.250
                  -2529950.413 6  -1971388.987 6  20984901.031    20984901.871
        18.500          19.500
                  -5045151.217 5  -3931284.088 5  23189022.906    23189025.047
         9.500          10.000
                  -1469824.543 5  -1145315.460 5  23117456.109    23117457.250
        11.000          11.500
                   2139401.596 6   1667066.613 6  20901608.641    20901608.797
        19.750          19.750
                  -5532981.984 6  -4299905.346 5  22428153.164    22428154.645
        12.500          11.750
 95  4 24 15 33 45.0000000  0  6G18G19G27G28G29G31
                  -1409413.046 7  -1098243.097 6  20110087.000    20110087.594
        23.500          17.250
                  -2545764.568 6  -1983711.698 6  20981891.648    20981892.543
        18.500          19.500
                  -5080814.339 5  -3959073.513 5  23182236.281    23182238.566
         9.750          10.250
                  -1472160.794 5  -1147135.901 5  23117011.664    23117012.594
        11.250          11.500
                   2160276.412 6   1683332.702 6  20905581.063    20905581.168
        19.750          20.000
                  -5567866.020 6  -4327087.697 6  22421514.867    22421516.414
        12.500          12.000
 95  4 24 15 33 59.9990000  0  6G18G19G27G28G29G31
                  -1412365.881 7  -1100544.004 6  20109525.097    20109525.718
        23.500          17.250
                  -2561543.020 6  -1996006.592 6  20978889.058    20978889.921
        18.500          19.500
                  -5116466.930 5  -3986854.740 5  23175452.003    23175454.097
        10.000          10.500
                  -1474377.394 5  -1148863.114 5  23116589.831    23116590.597
        11.500          11.500
                   2181253.320 6   1699678.338 6  20909573.026    20909573.120
        19.750          20.000
                  -5602669.895 6  -4354207.584 6  22414892.097    22414893.495
        12.500          12.250
 95  4 24 15 34 14.9990000  0  6G18G19G27G28G29G31
                  -1415210.573 7  -1102760.643 6  20108983.761    20108984.444
        23.250          17.250
                  -2577290.421 6  -2008277.293 6  20975892.401    20975893.222
        18.750          19.500
                  -5152112.722 5  -4014630.662 5  23168668.878    23168670.905
        10.000          10.500
                  -1476474.827 5  -1150497.474 5  23116190.714    23116191.433
        11.500          11.250
                   2202333.065 6   1716104.111 6  20913584.315    20913584.581
        19.750          20.250
                  -5637395.255 6  -4381266.294 6  22408283.956    22408285.577
        12.500          12.250
 95  4 24 15 34 29.9990000  0  6G18G19G27G28G29G31
                  -1417946.600 7  -1104892.613 6  20108463.167    20108463.874
        23.250          17.000
                  -2593003.949 6  -2020521.594 6  20972902.230    20972903.081
        18.750          19.500
                  -5187746.517 5  -4042397.244 5  23161887.862    23161889.808
        10.000          10.250
                  -1478452.460 5  -1152038.476 5  23115814.167    23115815.304
        11.250          11.500
                   2223512.507 6   1732607.568 6  20917614.620    20917614.831
        19.500          20.000
                  -5672038.221 6  -4408260.799 6  22401691.956    22401693.425
        12.500          12.250
 95  4 24 15 34 44.9990000  0  6G18G19G27G28G29G31
                  -1420576.585 7  -1106941.950 6  20107962.605    20107963.257
        23.000          17.000
                  -2608691.048 6  -2032745.301 6  20969917.222    20969918.077
        18.750          19.500
                  -5223371.966 5  -4070157.316 5  23155108.347    23155110.198
         9.750          10.250
                  -1480313.936 5  -1153488.970 5  23115460.058    23115461.042
        11.250          11.500
                   2244784.638 6   1749183.248 6  20921662.401    20921662.878
        19.500          20.000
                  -5706605.987 6  -4435196.704 6  22395113.581    22395115.132
        12.500          12.250
 95  4 24 15 34 59.9990000  0  6G18G19G27G28G29G31
                  -1423093.909 7  -1108903.500 6  20107483.690    20107484.222
        23.250          17.000
                  -2624347.714 6  -2044945.294 6  20966937.761    20966938.733
        18.750          19.750
                  -5258986.863 5  -4097909.170 5  23148330.972    23148332.753
         9.750          10.000
                  -1482053.782 5  -1154844.686 5  23115129.081    23115129.792
        11.500          11.250
                   2266152.748 6   1765833.721 6  20925728.667    20925729.237
        19.250          20.250
                  -5741096.126 6  -4462072.122 6  22388550.394    22388551.878
        12.500          12.500
 95  4 24 15 35 14.9990000  0  6G18G19G27G28G29G31
                  -1425500.768 7  -1110778.971 6  20107025.722    20107026.237
        23.250          17.000
                  -2639972.519 6  -2057120.462 6  20963964.534    20963965.554
        19.000          19.750
                  -5294590.818 5  -4125652.496 5  23141555.620    23141557.378
         9.500           9.750
                  -1483672.771 5  -1156106.226 5  23114820.847    23114821.730
        11.500          11.250
                   2287612.652 6   1782555.721 6  20929812.237    20929812.866
        19.250          20.250
                  -5775511.255 6  -4488889.088 6  22382001.308    22382002.980
        12.500          12.500
 95  4 24 15 35 29.9990000  0  6G18G19G27G28G29G31
                  -1427799.044 7  -1112569.837 6  20106588.417    20106588.866
        23.250          17.000
                  -2655565.017 6  -2069270.458 6  20960997.511    20960998.397
        19.000          19.750
                  -5330183.716 5  -4153387.203 5  23134782.597    23134784.362
         9.500           9.750
                  -1485170.602 5  -1157273.367 5  23114535.956    23114536.843
        11.500          11.500
                   2309161.527 6   1799347.048 6  20933912.995    20933913.581
        19.000          20.500
                  -5809852.118 6  -4515648.185 6  22375466.503    22375468.171
        12.500          12.500
 95  4 24 15 35 44.9990000  0  6G18G19G27G28G29G31
                  -1429984.600 7  -1114272.867 6  20106172.409    20106172.964
        23.250          17.000
                  -2671128.757 6  -2081398.041 6  20958035.831    20958036.690
        19.000          19.750
                  -5365763.620 5  -4181111.791 5  23128012.144    23128013.726
         9.750           9.750
                  -1486544.488 5  -1158343.922 5  23114274.542    23114275.366
        11.500          11.250
                   2330801.704 6   1816209.520 6  20938030.925    20938031.480
        19.000          20.500
                  -5844114.636 6  -4542346.238 6  22368946.612    22368948.269
        12.500          12.500
 95  4 24 15 35 59.9990000  0  6G18G19G27G28G29G31
                  -1432063.378 7  -1115892.693 6  20105776.862    20105777.522
        23.000          17.000
                  -2686672.077 6  -2093509.716 6  20955078.003    20955078.819
        19.250          19.750
                  -5401341.025 5  -4208834.429 5  23121242.128    23121243.589
        10.000           9.750
                  -1487802.181 5  -1159323.934 5  23114035.183    23114035.897
        11.500          11.250
                   2352525.474 6   1833137.131 6  20942164.886    20942165.429
        19.000          20.500
                  -5878304.539 6  -4568987.711 6  22362440.409    22362442.128
        12.750          12.500
 95  4 24 15 36 14.9990000  0  6G18G19G27G28G29G31
                  -1434033.051 7  -1117427.501 6  20105401.901    20105402.597
        23.000          17.000
                  -2702190.356 6  -2105601.877 6  20952125.026    20952125.933
        19.250          20.000
                  -5436913.817 5  -4236553.472 5  23114472.565    23114474.401
        10.000          10.000
                  -1488940.231 5  -1160210.725 5  23113818.659    23113819.386
        11.250          11.250
                   2374332.949 6   1850129.970 6  20946314.823    20946315.272
        19.250          20.500
                  -5912415.900 6  -4595567.979 6  22355949.269    22355950.866
        12.750          12.500
 95  4 24 15 36 29.9990000  0  6G18G19G27G28G29G31
                  -1435896.247 7  -1118879.341 6  20105047.409    20105047.991
        23.000          17.000
                  -2717683.538 6  -2117674.483 6  20949176.808    20949177.632
        19.250          20.000
                  -5472484.219 5  -4264270.653 5  23107703.862    23107705.589
        10.000          10.000
                  -1489960.053 5  -1161005.379 5  23113624.628    23113625.491
        11.500          11.500
                   2396220.275 6   1867185.025 6  20950479.815    20950480.315
        19.500          20.500
                  -5946450.596 6  -4622088.509 6  22349472.690    22349474.308
        12.750          12.500
 95  4 24 15 36 44.9990000  0  6G18G19G27G28G29G31
                  -1437651.576 7  -1120247.127 6  20104713.347    20104714.089
        23.000          17.000
                  -2733152.972 6  -2129728.582 6  20946233.159    20946233.944
        19.500          20.250
                  -5508051.349 5  -4291985.286 5  23100935.675    23100937.440
        10.000          10.000
                  -1490859.279 5  -1161706.066 5  23113453.456    23113454.269
        11.250          11.250
                   2418192.299 6   1884306.079 6  20954661.019    20954661.437
        19.500          20.750
                  -5980407.076 6  -4648548.092 6  22343010.894    22343012.464
        12.750          12.250
 95  4 24 15 36 59.9990000  0  6G18G19G27G28G29G31
                  -1439296.087 7  -1121528.564 6  20104400.237    20104400.976
        23.000          17.000
                  -2748599.001 6  -2141764.442 6  20943293.878    20943294.737
        19.500          20.250
                  -5543612.233 5  -4319695.050 5  23094168.737    23094170.425
        10.000          10.000
                  -1491633.132 5  -1162309.066 5  23113306.128    23113306.815
        11.250          11.000
                   2440257.933 6   1901500.076 6  20958860.050    20958860.366
        19.500          20.750
                  -6014280.938 6  -4674943.297 6  22336564.886    22336566.358
        12.750          12.250
 95  4 24 15 37 14.9990000  0  6G18G19G27G28G29G31
                  -1440833.616 7  -1122726.636 6  20104107.808    20104108.530
        23.000          17.000
                  -2764022.518 6  -2153782.762 6  20940358.886    20940359.659
        19.250          20.000
                  -5579167.440 5  -4347400.392 5  23087402.722    23087404.460
        10.000          10.000
                  -1492284.636 5  -1162816.723 5  23113182.175    23113183.108
        11.250          11.250
                   2462416.493 6   1918766.488 6  20963076.698    20963077.190
        19.500          21.000
                  -6048071.119 6  -4701273.292 6  22330134.815    22330136.382
        12.750          12.250
 95  4 24 15 37 29.9990000  0  6G18G19G27G28G29G31
                  -1442266.359 7  -1123843.057 6  20103835.206    20103835.847
        23.000          17.000
                  -2779424.868 6  -2165784.591 6  20937427.933    20937428.730
        19.250          20.000
                  -5614717.424 5  -4375101.663 5  23080637.573    23080639.245
         9.750           9.750
                  -1492813.693 5  -1163228.969 5  23113081.519    23113082.495
        11.250          11.250
                   2484667.271 6   1936104.752 6  20967310.612    20967311.296
        19.250          21.000
                  -6081776.836 6  -4727537.484 6  22323720.831    22323722.265
        12.500          12.250
 95  4 24 15 37 44.9990000  0  6G18G19G27G28G29G31
                  -1443597.629 7  -1124880.409 6  20103581.909    20103582.530
        23.250          17.000
                  -2794811.277 6  -2177774.003 6  20934499.870    20934500.667
        19.250          20.250
                  -5650267.219 5  -4402802.790 5  23073872.964    23073874.233
        10.000           9.500
                  -1493222.441 5  -1163547.472 5  23113003.886    23113004.507
        11.250          11.250
                   2507009.201 6   1953514.046 6  20971562.237    20971562.874
        19.250          21.000
                  -6115398.584 6  -4753736.228 6  22317322.784    22317324.163
        12.500          12.250
 95  4 24 15 37 59.9990000  0  6G18G19G27G28G29G31
                  -1444823.623 7  -1125835.724 6  20103348.620    20103349.241
        23.250          17.000
                  -2810175.415 6  -2189746.050 6  20931576.183    20931577.026
        19.000          20.000
                  -5685815.326 5  -4430502.604 5  23067108.386    23067109.683
        10.000           9.750
                  -1493507.387 5  -1163769.507 5  23112949.667    23112950.284
        11.500          11.250
                   2529447.699 6   1970998.585 6  20975832.089    20975832.714
        19.250          21.000
                  -6148932.663 6  -4779866.665 6  22310941.542    22310942.827
        12.500          12.250
 95  4 24 15 38 14.9990000  0  6G18G19G27G28G29G31
                  -1445946.392 7  -1126710.608 6  20103135.003    20103135.565
        23.250          17.000
                  -2825514.686 6  -2201698.727 6  20928657.073    20928658.026
        19.250          20.250
                  -5721363.265 5  -4458202.281 5  23060343.870    23060345.065
        10.250           9.500
                  -1493669.928 5  -1163896.157 5  23112918.526    23112919.538
        11.500          11.250
                   2551981.045 6   1988557.038 6  20980120.159    20980120.815
        19.250          21.000
                  -6182379.384 6  -4805929.032 6  22304576.815    22304578.069
        12.500          12.250
 95  4 24 15 38 29.9990000  0  6G18G19G27G28G29G31
                  -1446971.738 7  -1127509.575 6  20102939.909    20102940.358
        23.250          17.000
                  -2840836.858 6  -2213638.074 6  20925741.394    20925742.276
        19.250          20.000
                  -5756916.530 5  -4485906.120 5  23053578.401    23053579.476
        10.250           9.750
                  -1493715.941 5  -1163932.007 5  23112909.862    23112910.718
        11.500          11.250
                   2574603.070 6   2006184.584 6  20984424.815    20984425.358
        19.250          21.000
                  -6215744.892 6  -4831928.113 6  22298227.519    22298228.819
        12.500          12.250
 95  4 24 15 38 44.9990000  0  6G18G19G27G28G29G31
                  -1447897.545 7  -1128230.983 6  20102763.808    20102764.339
        23.250          17.000
                  -2856140.663 6  -2225563.112 6  20922829.112    20922830.042
        19.250          20.250
                  -5792474.592 5  -4513613.690 5  23046811.855    23046813.105
        10.250           9.750
                  -1493644.511 5  -1163876.341 5  23112923.394    23112924.272
        11.500          11.250
                   2597317.570 6   2023884.194 6  20988747.284    20988747.878
        19.500          21.000
                  -6249029.010 6  -4857863.771 6  22291893.667    22291895.062
        12.500          12.250
 95  4 24 15 38 59.9990000  0  6G18G19G27G28G29G31
                  -1448719.689 7  -1128871.616 6  20102607.183    20102607.714
        23.000          17.000
                  -2871423.620 6  -2237471.907 6  20919920.940    20919921.870
        19.500          20.250
                  -5828036.948 5  -4541324.603 5  23040044.628    23040046.093
        10.250          10.000
                  -1493454.580 5  -1163728.344 5  23112959.558    23112960.409
        11.500          11.250
                   2620124.108 6   2041655.516 6  20993087.339    20993087.784
        19.500          21.000
                  -6282229.801 6  -4883734.499 6  22285575.737    22285577.147
        12.500          12.250
 95  4 24 15 39 14.9990000  0  6G18G19G27G28G29G31
                  -1449431.682 7  -1129426.415 6  20102471.659    20102472.335
        23.000          17.000
                  -2886678.974 6  -2249359.192 6  20917017.894    20917018.812
        19.250          20.250
                  -5863600.143 5  -4569036.171 5  23033276.886    23033278.698
        10.250          10.250
                  -1493144.557 5  -1163486.765 5  23113018.714    23113019.347
        11.500          11.250
                   2643019.423 6   2059496.021 6  20997444.261    20997444.753
        19.500          21.000
                  -6315344.907 6  -4909538.464 6  22279274.183    22279275.644
        12.750          12.500
 95  4 24 15 39 29.9990000  0  6G18G19G27G28G29G31
                  -1450028.563 7  -1129891.515 6  20102358.042    20102358.675
        22.750          17.000
                  -2901900.641 6  -2261220.229 6  20914121.409    20914122.315
        19.500          20.250
                  -5899163.365 5  -4596747.754 5  23026509.487    23026511.417
        10.250          10.750
                  -1492712.394 5  -1163150.007 5  23113100.745    23113101.585
        11.500          11.250
                   2666001.942 6   2077404.471 6  21001817.714    21001818.030
        19.500          21.000
                  -6348371.253 6  -4935273.263 6  22272989.472    22272991.030
        13.000          12.500
 95  4 24 15 39 44.9990000  0  6G18G19G27G28G29G31
                  -1450515.434 7  -1130270.896 6  20102265.394    20102266.116
        22.750          17.000
                  -2917093.236 6  -2273058.609 6  20911230.308    20911231.366
        19.500          20.250
                  -5934734.269 5  -4624465.323 5  23019740.440    23019742.437
        10.250          10.750
                  -1492163.016 5  -1162721.924 5  23113205.323    23113206.124
        11.500          11.250
                   2689064.829 6   2095375.549 6  21006206.448    21006206.858
        19.250          21.000
                  -6381317.223 6  -4960945.431 6  22266720.097    22266721.718
        13.000          12.750
 95  4 24 15 39 59.9990000  0  6G18G19G27G28G29G31
                  -1450889.657 7  -1130562.498 6  20102194.151    20102194.878
        22.750          17.000
                  -2932253.236 6  -2284871.595 6  20908345.425    20908346.390
        19.500          20.250
                  -5970310.479 5  -4652187.030 5  23012970.550    23012972.511
        10.250          11.000
                  -1491494.651 5  -1162201.118 5  23113332.433    23113333.538
        11.500          11.500
                   2712212.814 6   2113412.938 6  21010611.276    21010611.741
        19.250          21.000
                  -6414178.925 6  -4986551.934 6  22260466.722    22260468.315
        13.250          13.000
 95  4 24 15 40 14.9990000  0  6G18G19G27G28G29G31
                  -1451151.337 7  -1130766.401 6  20102144.308    20102145.042
        22.750          16.750
                  -2947380.598 6  -2296659.143 6  20905467.011    20905467.917
        19.500          20.250
                  -6005888.917 5  -4679910.473 5  23006200.245    23006202.097
        10.500          10.750
                  -1490708.197 5  -1161588.299 5  23113482.230    23113483.128
        11.500          11.500
                   2735445.460 6   2131516.298 6  21015032.198    21015032.839
        19.000          21.000
                  -6446954.931 6  -5012091.665 6  22254229.659    22254231.265
        13.250          12.750
 95  4 24 15 40 29.9990000  0  6G18G19G27G28G29G31
                  -1451300.464 7  -1130882.605 6  20102115.995    20102116.698
        22.750          16.750
                  -2962478.173 6  -2308423.484 6  20902594.159    20902595.007
        19.750          20.250
                  -6041468.670 5  -4707634.941 5  22999429.815    22999431.390
        10.500          10.750
                  -1489804.035 5  -1160883.756 5  23113654.308    23113655.085
        11.500          11.250
                   2758761.794 6   2149684.865 6  21019469.198    21019469.753
        19.000          21.000
                  -6479645.286 6  -5037564.648 6  22248008.847    22248010.226
        13.250          12.750
 95  4 24 15 40 44.9990000  0  6G18G19G27G28G29G31
                  -1451332.187 7  -1130907.323 6  20102110.073    20102110.753
        22.750          17.000
                  -2977541.380 6  -2320161.043 6  20899727.605    20899728.628
        19.750          20.250
                  -6077044.589 5  -4735356.423 5  22992659.737    22992661.288
        10.750          10.750
                  -1488777.159 5  -1160083.596 5  23113849.675    23113850.452
        11.500          11.250
                   2782168.598 6   2167923.930 6  21023923.284    21023923.933
        19.000          21.000
                  -6512244.849 6  -5062966.890 6  22241805.409    22241806.812
        13.250          12.750
 95  4 24 15 40 59.9990000  0  6G18G19G27G28G29G31
                  -1451252.351 7  -1130845.112 6  20102125.237    20102125.901
        23.000          17.000
                  -2992576.104 6  -2331876.410 6  20896866.480    20896867.526
        19.500          20.250
                  -6112622.440 5  -4763079.418 5  22985889.495    22985890.976
        10.500          10.250
                  -1487632.317 5  -1159191.509 5  23114067.472    23114068.308
        11.500          11.250
                   2805659.501 6   2186228.525 6  21028393.464    21028394.183
        19.000          21.000
                  -6544757.580 6  -5088301.468 6  22235618.362    22235619.683
        13.250          12.500
 95  4 24 15 41 14.9990000  0  6G18G19G27G28G29G31
                  -1451063.948 7  -1130698.308 6  20102161.058    20102161.667
        23.000          17.000
                  -3007584.256 6  -2343571.065 6  20894010.417    20894011.460
        19.750          20.500
                  -6148200.051 5  -4790802.219 5  22979119.370    22979120.913
        10.500          10.250
                  -1486368.661 5  -1158206.841 5  23114308.089    23114308.882
        11.500          11.250
                   2829236.274 6   2204600.032 6  21032879.870    21032880.495
        19.000          21.000
                  -6577183.397 6  -5113568.322 6  22229447.925    22229449.440
        13.250          12.500
 95  4 24 15 41 29.9990000  0  6G18G19G27G28G29G31
                  -1450774.948 7  -1130473.110 6  20102215.940    20102216.647
        23.000          16.750
                  -3022569.480 6  -2355247.861 6  20891158.855    20891159.878
        19.500          20.500
                  -6183780.122 5  -4818526.942 5  22972348.714    22972350.390
        10.250          10.500
                  -1484987.996 5  -1157131.000 5  23114570.761    23114571.378
        11.500          11.000
                   2852901.767 6   2223040.671 6  21037383.448    21037384.011
        19.000          20.750
                  -6609524.184 6  -5138768.919 6  22223293.581    22223295.042
        13.000          12.500
 95  4 24 15 41 44.9990000  0  6G18G19G27G28G29G31
                  -1450386.525 7  -1130170.441 6  20102290.105    20102290.757
        23.000          17.000
                  -3037528.537 6  -2366904.265 6  20888312.362    20888313.358
        19.750          20.500
                  -6219359.271 5  -4846250.941 5  22965578.120    22965580.011
        10.250          10.750
                  -1483485.895 5  -1155960.534 5  23114856.542    23114857.413
        11.500          11.000
                   2876663.494 6   2241556.303 6  21041905.175    21041905.687
        19.000          20.750
                  -6641776.049 6  -5163900.226 6  22217156.300    22217157.878
        13.000          12.750
 95  4 24 15 41 59.9990000  0  6G18G19G27G28G29G31
                  -1449900.973 7  -1129792.091 6  20102382.511    20102383.187
        23.000          17.000
                  -3052465.529 6  -2378543.475 6  20885469.878    20885470.882
        19.750          20.500
                  -6254939.692 5  -4873975.933 5  22958807.355    22958809.202
        10.250          11.000
                  -1481865.572 5  -1154697.944 5  23115164.886    23115165.706
        11.500          11.000
                   2900522.711 6   2260147.895 6  21046445.425    21046445.937
        19.000          20.750
                  -6673938.488 6  -5188961.850 6  22211035.862    22211037.433
        13.000          12.750
 95  4 24 15 42 14.9990000  0  6G18G19G27G28G29G31
                  -1449312.973 7  -1129333.911 6  20102494.386    20102495.124
        23.000          17.000
                  -3067377.824 6  -2390163.443 6  20882632.136    20882633.159
        19.750          20.500
                  -6290514.962 5  -4901696.906 5  22952037.722    22952039.749
        10.500          11.500
                  -1480123.729 5  -1153340.665 5  23115496.394    23115497.167
        11.500          11.000
                   2924485.063 6   2278819.852 6  21051005.370    21051005.843
        19.000          20.500
                  -6706007.172 6  -5213950.416 6  22204933.644    22204935.030
        13.000          12.750
 95  4 24 15 42 29.9990000  0  6G18G19G27G28G29G31
                  -1448623.901 7  -1128796.975 6  20102625.472    20102626.167
        23.000          17.000
                  -3082267.842 6  -2401766.048 6  20879798.628    20879799.620
        19.750          20.500
                  -6326088.717 5  -4929416.694 5  22945268.347    22945270.308
        10.500          11.500
                  -1478262.649 5  -1151890.474 5  23115850.456    23115851.335
        11.250          11.000
                   2948545.573 6   2297568.295 6  21055583.933    21055584.397
        19.000          20.500
                  -6737988.693 6  -5238871.063 6  22198847.487    22198848.851
        13.250          12.750
 95  4 24 15 42 44.9990000  0  6G18G19G27G28G29G31
                  -1447835.682 7  -1128182.778 6  20102775.558    20102776.249
        23.000          17.000
                  -3097137.826 6  -2413353.046 6  20876969.003    20876969.983
        19.750          20.500
                  -6361666.630 5  -4957139.733 5  22938498.198    22938500.062
        10.750          11.500
                  -1476285.754 5  -1150350.037 5  23116226.651    23116227.585
        11.250          11.000
                   2972701.323 6   2316390.953 6  21060180.589    21060181.062
        19.000          20.500
                  -6769888.788 6  -5263728.260 6  22192777.245    22192778.526
        13.250          12.750
 95  4 24 15 42 59.9990000  0  6G18G19G27G28G29G31
                  -1446947.375 7  -1127490.596 6  20102944.581    20102945.272
        22.750          17.000
                  -3111985.633 6  -2424922.762 6  20874143.503    20874144.495
        19.750          20.500
                  -6397246.685 5  -4984864.435 5  22931727.495    22931729.253
        10.750          11.250
                  -1474190.447 5  -1148717.329 5  23116625.323    23116626.425
        11.000          11.000
                   2996954.564 6   2335289.575 6  21064795.847    21064796.190
        19.000          20.500
                  -6801704.212 6  -5288519.481 6  22186723.081    22186724.233
        13.500          12.750
 95  4 24 15 43 14.9990000  0  6G18G19G27G28G29G31
                  -1445959.723 7  -1126720.999 6  20103132.526    20103133.194
        22.750          17.000
                  -3126809.418 6  -2436473.758 6  20871322.636    20871323.577
        19.750          20.500
                  -6432829.628 5  -5012591.394 5  22924956.167    22924957.679
        10.500          11.000
                  -1471977.312 5  -1146992.812 5  23117046.495    23117047.444
        11.000          11.000
                   3021303.176 6   2354262.519 6  21069429.370    21069429.847
        19.000          20.500
                  -6833436.887 6  -5313246.221 6  22180684.573    22180685.694
        13.750          13.000
 95  4 24 15 43 29.9990000  0  6G18G19G27G28G29G31
                  -1444866.911 7  -1125869.459 6  20103340.401    20103341.214
        22.500          17.000
                  -3141601.460 6  -2448000.021 6  20868507.683    20868508.741
        19.750          20.500
                  -6468410.266 5  -5040316.555 5  22918185.261    22918186.858
        10.250          10.750
                  -1469641.748 5  -1145172.893 5  23117491.034    23117491.858
        11.250          11.250
                   3045750.992 6   2373312.759 6  21074081.550    21074082.065
        19.000          20.500
                  -6865081.784 6  -5337904.562 6  22174662.753    22174663.901
        13.750          13.000
 95  4 24 15 43 44.9990000  0  6G18G19G27G28G29G31
                  -1443668.731 7  -1124935.817 6  20103568.300    20103569.058
        22.500          17.250
                  -3156364.942 6  -2459504.029 6  20865698.370    20865699.374
        19.750          20.500
                  -6503994.900 5  -5068044.830 5  22911413.573    22911415.159
        10.250          10.500
                  -1467187.477 5  -1143260.477 5  23117957.964    23117958.897
        11.250          11.250
                   3070292.925 6   2392436.341 6  21078751.651    21078752.206
        19.000          20.500
                  -6896640.247 6  -5362495.554 6  22168657.433    22168658.690
        14.000          13.250
 95  4 24 15 43 59.9990000  0  6G18G19G27G28G29G31
                  -1442360.005 7  -1123916.032 6  20103817.222    20103818.089
        22.500          17.250
                  -3171099.783 6  -2470985.718 6  20862894.370    20862895.370
        19.500          20.500
                  -6539581.540 5  -5095774.668 5  22904641.542    22904643.077
        10.250          10.250
                  -1464613.320 5  -1141254.639 5  23118447.823    23118448.878
        11.250          11.250
                   3094928.377 6   2411632.795 6  21083439.597    21083440.272
        19.000          20.500
                  -6928112.200 6  -5387019.136 6  22162668.526    22162669.687
        14.000          13.250
 95  4 24 15 44 14.9990000  0  6G18G19G27G28G29G31
                  -1440939.775 7  -1122809.359 6  20104087.495    20104088.386
        22.250          17.000
                  -3185808.218 6  -2482446.832 6  20860095.386    20860096.405
        19.500          20.500
                  -6575168.457 5  -5123504.722 5  22897869.480    22897871.007
        10.250          10.250
                  -1461918.592 5  -1139154.852 5  23118960.753    23118961.694
        11.250          11.250
                   3119655.907 6   2430900.994 6  21088145.128    21088145.765
        18.750          20.250
                  -6959498.826 6  -5411476.226 6  22156695.815    22156697.116
        14.000          13.500
 95  4 24 15 44 29.9990000  0  6G18G19G27G28G29G31
                  -1439416.556 7  -1121622.438 6  20104377.323    20104378.183
        22.250          17.250
                  -3200495.580 6  -2493891.528 6  20857300.565    20857301.530
        19.750          20.500
                  -6610760.120 5  -5151238.473 5  22891096.933    22891098.308
        10.750          10.500
                  -1459107.889 5  -1136964.701 5  23119495.675    23119496.487
        11.500          11.500
                   3144465.155 6   2450232.872 6  21092866.253    21092866.835
        19.000          20.250
                  -6990805.343 6  -5435870.894 6  22150738.253    22150739.687
        14.000          13.500
 95  4 24 15 44 44.9990000  0  6G18G19G27G28G29G31
                  -1437785.698 7  -1120351.642 6  20104687.698    20104688.581
        22.250          17.250
                  -3215157.501 6  -2505316.398 6  20854510.565    20854511.519
        19.750          20.500
                  -6646352.580 5  -5178972.845 5  22884323.933    22884325.464
        10.750          10.750
                  -1456175.889 5  -1134680.025 5  23120053.675    23120054.507
        11.500          11.250
                   3169357.867 6   2469629.790 6  21097603.144    21097603.839
        19.000          20.250
                  -7022022.570 6  -5460195.989 6  22144797.706    22144799.280
        13.750          13.750
 95  4 24 15 44 59.9990000  0  6G18G19G27G28G29G31
                  -1436048.551 7  -1118998.025 6  20105018.292    20105019.233
        22.250          17.250
                  -3229793.673 6  -2516721.204 6  20851725.362    20851726.390
        19.750          20.750
                  -6681943.466 5  -5206705.987 5  22877551.347    22877552.784
        11.000          11.000
                  -1453122.106 5  -1132300.453 5  23120634.698    23120635.468
        11.500          11.250
                   3194334.204 6   2489091.867 6  21102355.886    21102356.616
        18.750          20.250
                  -7053144.485 6  -5484446.810 6  22138875.315    22138876.991
        13.750          13.750
 95  4 24 15 45 14.9990000  0  6G18G19G27G28G29G31
                  -1434211.355 7  -1117566.445 6  20105367.917    20105368.948
        22.250          17.250
                  -3244409.390 6  -2528110.073 6  20848944.144    20848945.120
        19.750          20.750
                  -6717537.435 5  -5234441.539 5  22870778.105    22870779.503
        11.250          11.000
                  -1449951.806 5  -1129830.095 5  23121237.917    23121238.698
        11.500          11.250
                   3219388.805 6   2508614.924 6  21107123.753    21107124.491
        18.750          20.250
                  -7084177.303 6  -5508628.207 6  22132969.964    22132971.593
        13.750          13.750
 95  4 24 15 45 29.9990000  0  6G18G19G27G28G29G31
                  -1432269.043 7  -1116052.953 6  20105737.761    20105738.612
        22.250          17.250
                  -3259001.392 6  -2539480.460 6  20846167.433    20846168.460
        19.750          21.000
                  -6753128.990 5  -5262175.201 5  22864005.105    22864006.792
        11.000          11.250
                  -1446662.217 5  -1127266.776 5  23121863.940    23121864.827
        11.500          11.000
                   3244525.479 6   2528201.941 6  21111907.058    21111907.878
        18.750          20.250
                  -7115118.217 6  -5532737.989 6  22127081.987    22127083.655
        13.500          13.750
 95  4 24 15 45 44.9990000  0  6G18G19G27G28G29G31
                  -1430222.143 7  -1114457.966 6  20106127.214    20106128.105
        22.500          17.250
                  -3273574.583 6  -2550836.193 6  20843394.386    20843395.405
        19.750          21.000
                  -6788718.942 5  -5289907.615 5  22857232.315    22857234.003
        11.000          11.000
                  -1443254.518 5  -1124611.425 5  23122512.355    23122513.308
        11.500          11.250
                   3269743.258 6   2547852.155 6  21116705.808    21116706.632
        18.500          20.250
                  -7145964.994 6  -5556774.419 6  22121212.097    22121213.753
        13.250          13.750
 95  4 24 15 45 59.9990000  0  6G18G19G27G28G29G31
                  -1428067.109 7  -1112778.718 6  20106537.308    20106538.155
        22.500          17.250
                  -3288125.447 7  -2562174.523 6  20840625.456    20840626.511
        20.250          21.000
                  -6824302.401 5  -5317634.962 5  22850460.995    22850462.749
        11.000          11.000
                  -1439724.759 5  -1121860.967 5  23123184.175    23123184.933
        11.500          11.250
                   3295047.131 6   2567569.454 6  21121520.933    21121521.718
        18.250          20.000
                  -7176716.144 6  -5580736.333 6  22115360.292    22115361.843
        13.250          13.750
 95  4 24 15 46 14.9990000  0  7G 2G18G19G27G28G29G31
                    -25078.30713     -4883.50215  24287695.487    24287698.819
         6.000           6.750
                  -1425810.188 7  -1111020.082 6  20106966.831    20106967.577
        22.750          17.250
                  -3302658.078 7  -2573498.646 6  20837860.003    20837861.034
        20.000          21.000
                  -6859882.298 5  -5345359.544 5  22843690.323    22843691.858
        10.750          10.750
                  -1436078.955 5  -1119020.081 5  23123877.878    23123878.679
        11.500          11.250
                   3320428.644 6   2587347.254 6  21126350.870    21126351.577
        18.250          19.750
                  -7207377.252 6  -5604628.084 6  22109525.776    22109527.151
        13.250          13.750
 95  4 24 15 46 29.9990000  0  7G 2G18G19G27G28G29G31
                    -72077.921 3    -41506.545 5  24278751.550    24278754.933
         6.000           7.000
                  -1423448.340 7  -1109179.683 6  20107416.198    20107416.894
        22.750          17.000
                  -3317167.089 7  -2584804.366 6  20835098.972    20835099.917
        20.000          21.000
                  -6895456.172 5  -5373079.432 5  22836920.972    22836922.370
        11.000          10.750
                  -1432313.663 5  -1116086.090 5  23124594.519    23124595.272
        11.500          11.250
                   3345889.693 6   2607187.027 6  21131195.948    21131196.597
        18.250          19.500
                  -7237941.581 6  -5628444.424 6  22103709.558    22103710.815
        13.500          13.250
 95  4 24 15 46 44.9990000  0  7G 2G18G19G27G28G29G31
                   -119040.102 3    -78100.406 5  24269815.034    24269818.370
         6.000           7.000
                  -1420973.016 7  -1107250.862 6  20107887.198    20107887.956
        22.750          17.000
                  -3331645.710 7  -2596086.405 6  20832343.761    20832344.772
        20.000          21.000
                  -6931019.464 5  -5400791.077 5  22830153.417    22830154.780
        11.000          10.750
                  -1428424.153 5  -1113055.297 5  23125334.605    23125335.409
        11.500          11.250
                   3371435.634 6   2627092.948 6  21136057.230    21136057.866
        18.250          19.500
                  -7268403.338 6  -5652180.837 6  22097912.933    22097914.046
        13.750          13.250
 95  4 24 15 46 59.9990000  0  7G 2G18G19G27G28G29G31
                   -165974.089 3   -114672.308 5  24260883.605    24260886.870
         6.000           7.000
                  -1418386.863 7  -1105235.677 6  20108379.339    20108379.917
        22.500          17.000
                  -3346096.050 7  -2607346.406 6  20829593.909    20829594.894
        20.000          21.000
                  -6966578.531 5  -5428499.429 5  22823386.948    22823388.151
        11.000          10.750
                  -1424414.546 5  -1109930.933 5  23126097.440    23126098.429
        11.500          11.000
                   3397066.478 6   2647065.029 6  21140934.495    21140935.183
        18.000          19.250
                  -7298768.569 6  -5675842.038 6  22092134.636    22092135.647
        13.750          13.000
 95  4 24 15 47 14.9990000  0  7G 2G18G19G27G28G29G31
                   -212883.271 3   -151224.877 5  24251957.433    24251960.616
         6.000           7.000
                  -1415691.996 7  -1103135.782 6  20108892.230    20108892.894
        22.750          17.000
                  -3360519.151 7  -2618585.181 6  20826849.472    20826850.362
        20.000          21.000
                  -7002136.195 5  -5456206.688 5  22816620.628    22816621.624
        11.500          11.000
                  -1420286.113 5  -1106713.972 5  23126883.058    23126884.003
        11.500          11.250
                   3422784.847 6   2667105.310 6  21145828.573    21145829.218
        18.250          19.500
                  -7329042.520 6  -5699432.109 6  22086373.761    22086374.640
        14.000          13.000
 95  4 24 15 47 29.9990000  0  7G 2G18G19G27G28G29G31
                   -259764.742 3   -187755.858 5  24243036.151    24243039.116
         6.000           7.000
                  -1412885.485 7  -1100948.894 6  20109426.237    20109426.917
        22.750          17.000
                  -3374914.428 7  -2629802.276 6  20824109.964    20824110.831
        20.000          21.000
                  -7037690.436 5  -5483911.280 5  22809854.909    22809856.097
        11.500          11.000
                  -1416035.704 5  -1103401.967 5  23127692.050    23127692.757
        11.500          11.250
                   3448591.608 6   2687214.469 6  21150739.550    21150740.073
        18.000          19.000
                  -7359222.590 6  -5722949.026 6  22080630.730    22080631.608
        14.000          13.000
 95  4 24 15 47 44.9990000  0  7G 2G18G19G27G28G29G31
                   -306617.630 3   -224264.566 5  24234120.026    24234123.284
         6.000           7.000
                  -1409966.876 7  -1098674.652 6  20109981.628    20109982.296
        22.750          17.250
                  -3389281.999 7  -2640997.783 6  20821375.847    20821376.667
        20.000          20.750
                  -7073242.245 5  -5511613.975 5  22803089.495    22803091.151
        11.500          11.500
                  -1411662.310 5  -1099994.126 5  23128524.190    23128525.038
        11.500          11.250
                   3474486.611 6   2707392.383 6  21155667.269    21155667.741
        18.000          19.000
                  -7389304.232 6  -5746389.250 6  22074906.284    22074907.140
        14.250          13.000
 95  4 24 15 47 59.9990000  0  7G 2G18G19G27G28G29G31
                   -353447.434 3   -260755.291 5  24225208.784    24225211.827
         6.000           7.000
                  -1406943.914 7  -1096319.098 6  20110557.073    20110557.737
        22.750          17.250
                  -3403627.790 7  -2652176.318 6  20818645.917    20818646.647
        20.000          20.750
                  -7108799.104 5  -5539320.596 5  22796323.026    22796325.003
        11.250          11.750
                  -1407171.334 5  -1096494.663 5  23129378.901    23129379.687
        11.500          11.250
                   3500463.287 6   2727633.948 6  21160610.487    21160611.011
        18.250          19.000
                  -7419294.619 6  -5769758.363 6  22069199.284    22069200.288
        14.250          13.250
 95  4 24 15 48 14.9990000  0  7G 2G18G19G27G28G29G31
                   -400251.661 3   -297226.077 5  24216301.995    24216305.179
         6.000           6.750
                  -1403811.780 7  -1093878.482 6  20111152.917    20111153.710
        22.750          17.250
                  -3417945.333 7  -2663332.838 6  20815921.292    20815922.151
        20.250          20.750
                  -7144357.496 5  -5567028.423 5  22789556.542    22789558.538
        11.250          11.750
                  -1402558.969 5  -1092900.611 5  23130256.519    23130257.335
        11.500          11.500
                   3526528.064 6   2747944.159 6  21165570.300    21165570.851
        18.250          19.250
                  -7449191.810 6  -5793054.856 6  22063510.144    22063511.015
        14.250          13.250
 95  4 24 15 48 29.9990000  0  7G 2G18G19G27G28G29G31
                   -447028.196 3   -333675.292 5  24207400.456    24207403.894
         5.750           6.750
                  -1400567.509 7  -1091350.479 6  20111770.331    20111771.140
        22.250          17.250
                  -3432232.560 7  -2674465.740 6  20813202.706    20813203.456
        20.000          20.500
                  -7179916.662 5  -5594736.844 5  22782789.776    22782791.683
        11.500          11.750
                  -1397822.544 5  -1089209.894 5  23131157.839    23131158.730
        11.500          11.250
                   3552682.270 6   2768324.049 6  21170547.472    21170548.038
        18.000          19.250
                  -7478990.653 6  -5816274.716 6  22057839.597    22057840.589
        14.250          13.250
 95  4 24 15 48 44.9990000  0  7G 2G18G19G27G28G29G31
                   -493784.069 3   -370108.400 5  24198503.159    24198506.425
         6.000           6.750
                  -1397215.642 7  -1088738.640 6  20112408.206    20112409.077
        22.250          17.500
                  -3446494.819 7  -2685579.186 6  20810488.519    20810489.300
        20.000          20.500
                  -7215483.217 5  -5622451.032 5  22776021.776    22776023.585
        11.500          11.750
                  -1392966.728 5  -1085426.142 5  23132081.980    23132082.694
        11.500          11.250
                   3578925.912 6   2788773.639 6  21175541.370    21175542.026
        18.000          19.250
                  -7508696.701 6  -5839422.265 6  22052186.565    22052187.667
        14.250          13.250
 95  4 24 15 48 59.9990000  0  7G 2G18G19G27G28G29G31
                   -540521.285 3   -406526.975 5  24189609.425    24189612.585
         6.000           6.750
                  -1393757.355 7  -1086043.869 6  20113066.175    20113067.144
        22.250          17.750
                  -3460733.626 6  -2696674.357 6  20807778.972    20807779.730
        19.750          20.500
                  -7251059.240 5  -5650172.593 5  22769251.933    22769253.452
        11.500          11.500
                  -1387992.619 5  -1081550.208 5  23133028.480    23133029.171
        11.500          11.250
                   3605259.659 6   2809293.434 6  21180552.534    21180553.183
        18.000          19.500
                  -7538310.900 6  -5862498.250 6  22046551.276    22046552.292
        14.000          13.500
 95  4 24 15 49 14.9990000  0  7G 2G18G19G27G28G29G31
                   -587236.976 4   -442928.779 5  24180719.737    24180722.980
         6.250           6.750
                  -1390193.010 7  -1083266.454 6  20113744.433    20113745.448
        22.250          17.750
                  -3474950.984 6  -2707752.813 6  20805073.409    20805074.210
        19.750          20.500
                  -7286642.628 5  -5677899.896 5  22762480.761    22762482.069
        11.750          11.500
                  -1382899.340 5  -1077581.419 5  23133997.690    23133998.534
        11.500          11.500
                   3631685.212 6   2829884.771 6  21185581.175    21185581.855
        18.000          19.500
                  -7567830.955 6  -5885500.872 6  22040933.737    22040934.878
        14.250          13.750
 95  4 24 15 49 29.9990000  0  7G 2G18G19G27G28G29G31
                   -633924.686 4   -479308.789 5  24171835.183    24171838.589
         6.250           6.750
                  -1386519.944 7  -1080404.326 6  20114443.456    20114444.452
        22.000          17.750
                  -3489146.240 6  -2718814.045 6  20802372.159    20802372.925
        19.750          20.500
                  -7322229.460 5  -5705629.889 5  22755708.972    22755710.042
        11.750          11.500
                  -1377684.844 5  -1073518.175 5  23134989.925    23134990.769
        11.500          11.250
                   3658202.350 6   2850547.470 6  21190627.245    21190627.886
        18.000          19.250
                  -7597254.267 6  -5908428.108 6  22035334.605    22035335.757
        14.000          13.750
 95  4 24 15 49 44.9990000  0  7G 2G18G19G27G28G29G31
                   -680587.025 4   -515669.024 5  24162955.230    24162958.901
         6.250           6.500
                  -1382738.428 7  -1077457.689 6  20115162.995    20115164.085
        22.000          17.750
                  -3503320.344 6  -2729858.799 6  20799675.019    20799675.761
        19.500          20.500
                  -7357822.017 5  -5733364.336 5  22748935.761    22748937.007
        11.750          11.500
                  -1372352.006 5  -1069362.713 5  23136004.706    23136005.542
        11.500          11.250
                   3684807.908 6   2871279.069 6  21195690.097    21195690.800
        18.000          19.250
                  -7626581.029 6  -5931280.111 6  22029753.909    22029755.269
        14.000          14.000
 95  4 24 15 49 59.9990000  0  7G 2G18G19G27G28G29G31
                   -727221.947 4   -552007.898 5  24154081.097    24154084.628
         6.250           6.750
                  -1378843.850 7  -1074422.953 6  20115903.940    20115904.913
        22.000          17.750
                  -3517469.680 6  -2740884.251 6  20796982.495    20796983.159
        19.750          20.500
                  -7393417.025 5  -5761100.698 5  22742162.269    22742163.542
        11.750          11.500
                  -1366899.132 5  -1065113.721 5  23137042.417    23137043.351
        11.500          11.250
                   3711505.922 6   2892082.709 6  21200770.628    21200771.187
        18.250          19.250
                  -7655809.951 6  -5954055.874 6  22024191.644    22024192.929
        14.000          14.000
 95  4 24 15 50 14.9990000  0  7G 2G18G19G27G28G29G31
                   -773834.797 4   -588329.567 5  24145210.995    24145214.522
         6.500           7.000
                  -1374836.288 7  -1071300.180 6  20116666.495    20116667.440
        22.250          17.750
                  -3531595.077 6  -2751891.051 6  20794294.573    20794295.245
        19.750          20.750
                  -7429016.140 5  -5788840.256 5  22735387.901    22735389.144
        11.750          11.500
                  -1361329.370 5  -1060773.642 5  23138102.261    23138103.151
        11.500          11.250
                   3738294.245 6   2912956.721 6  21205868.261    21205868.788
        18.250          19.000
                  -7684942.556 6  -5976756.586 6  22018647.792    22018649.288
        13.750          14.000
 95  4 24 15 50 29.9990000  0  7G 2G18G19G27G28G29G31
                   -820418.107 4   -624628.216 5  24136346.480    24136349.948
         6.250           7.000
                  -1370707.409 7  -1068082.873 6  20117452.487    20117453.300
        22.250          17.500
                  -3545689.456 6  -2762873.679 6  20791612.534    20791613.187
        19.750          20.750
                  -7464612.571 5  -5816577.724 5  22728614.065    22728615.351
        11.500          11.500
                  -1355634.967 5  -1056336.443 5  23139185.909    23139186.749
        11.500          11.250
                   3765179.269 6   2933906.084 6  21210984.230    21210984.792
        18.250          19.000
                  -7713968.207 6  -5999373.954 6  22013124.464    22013125.909
        14.000          14.250
 95  4 24 15 50 44.9990000  0  7G 2G18G19G27G28G29G31
                   -866979.783 4   -660910.005 5  24127486.011    24127489.671
         6.250           7.250
                  -1366465.478 7  -1064777.473 6  20118259.808    20118260.491
        22.500          17.500
                  -3559761.073 6  -2773838.572 6  20788934.831    20788935.519
        19.750          20.750
                  -7500213.405 5  -5844318.622 5  22721839.394    22721840.976
        11.500          11.750
                  -1349822.411 5  -1051807.178 5  23140292.105    23140292.737
        11.750          11.250
                   3792151.381 6   2954923.311 6  21216117.073    21216117.632
        18.250          19.000
                  -7742891.828 6  -6021911.823 6  22007620.440    22007621.901
        14.000          14.250
 95  4 24 15 50 59.9990000  0  7G 2G18G19G27G28G29G31
                   -913519.715 3   -697174.848 5  24118629.730    24118633.355
         6.000           7.500
                  -1362112.617 7  -1061385.634 6  20119088.136    20119088.858
        22.500          17.500
                  -3573811.729 6  -2784787.132 6  20786261.136    20786261.663
        19.750          20.750
                  -7535817.712 5  -5872062.224 5  22715063.995    22715065.784
        11.500          11.750
                  -1343892.736 5  -1047186.655 5  23141420.519    23141421.124
        11.750          11.250
                   3819209.867 6   2976007.838 6  21221266.058    21221266.526
        18.250          19.000
                  -7771715.158 6  -6044371.538 6  22002135.464    22002136.815
        14.000          14.250
 95  4 24 15 51 14.9990000  0  7G 2G18G19G27G28G29G31
                   -960031.621 4   -733417.855 5  24109778.745    24109782.175
         6.250           7.500
                  -1357647.148 7  -1057906.048 6  20119937.948    20119938.601
        22.500          17.250
                  -3587838.037 6  -2795716.719 6  20783591.956    20783592.644
        19.750          20.750
                  -7571419.197 5  -5899803.626 6  22708289.261    22708290.948
        11.500          12.000
                  -1337841.764 5  -1042471.611 5  23142571.901    23142572.663
        11.500          11.000
                   3846355.348 6   2997160.150 6  21226431.448    21226432.038
        18.250          19.000
                  -7800433.903 6  -6066749.767 6  21996670.597    21996671.983
        14.000          14.250
 95  4 24 15 51 29.9990000  0  7G 2G18G19G27G28G29G31
                  -1006510.483 3   -769635.112 5  24100934.159    24100937.620
         6.000           7.500
                  -1353069.427 7  -1054338.992 6  20120809.112    20120809.874
        22.750          17.500
                  -3601835.695 6  -2806623.986 6  20780928.253    20780928.972
        19.500          20.750
                  -7607015.241 5  -5927540.789 6  22701515.690    22701517.444
        11.500          12.000
                  -1331668.427 5  -1037661.218 5  23143746.690    23143747.233
        11.500          11.250
                   3873587.171 6   3018379.743 6  21231613.581    21231614.187
        18.000          19.000
                  -7829048.536 6  -6089046.865 6  21991225.401    21991226.726
        14.250          14.250
 95  4 24 15 51 44.9990000  0  7G 2G18G19G27G28G29G31
                  -1052964.060 3   -805832.662 5  24092094.300    24092097.585
         6.000           7.500
                  -1348386.087 7  -1050689.641 6  20121700.206    20121701.003
        22.750          17.500
                  -3615810.390 6  -2817513.355 6  20778268.987    20778269.749
        19.500          21.000
                  -7642613.448 5  -5955279.630 6  22694741.550    22694743.210
        11.500          12.000
                  -1325379.598 5  -1032760.835 5  23144943.269    23144944.085
        11.500          11.250
                   3900896.640 6   3039659.842 6  21236810.440    21236811.136
        18.000          19.000
                  -7857565.039 6  -6111267.498 6  21985799.034    21985800.171
        14.250          14.250
 95  4 24 15 51 59.9990000  0  7G 2G18G19G27G28G29G31
                  -1099402.751 4   -842018.618 5  24083257.261    24083260.796
         6.250           7.250
                  -1343609.344 7  -1046967.504 6  20122609.261    20122609.933
        22.750          17.750
                  -3629774.199 6  -2828394.240 6  20775611.730    20775612.511
        19.500          21.000
                  -7678224.535 5  -5983028.515 5  22687965.105    22687966.651
        11.500          11.750
                  -1318986.545 5  -1027779.232 5  23146159.980    23146160.819
        11.500          11.250
                   3928272.381 6   3060991.584 6  21242019.917    21242020.558
        18.000          19.000
                  -7885994.474 6  -6133420.289 6  21980389.112    21980390.276
        14.500          14.000
 95  4 24 15 52 14.9990000  0  7G 2G18G19G27G28G29G31
                  -1145806.077 4   -878177.020 5  24074427.034    24074430.198
         6.250           7.000
                  -1338721.131 7  -1043158.508 6  20123539.401    20123540.120
        22.750          17.500
                  -3643706.468 6  -2839250.551 6  20772960.472    20772961.417
        19.500          21.000
                  -7713826.951 5  -6010770.646 5  22681190.042    22681191.480
        11.500          11.500
                  -1312468.921 5  -1022700.562 5  23147400.214    23147400.995
        11.500          11.500
                   3955734.221 6   3082390.415 6  21247245.683    21247246.280
        18.000          19.250
                  -7914317.011 6  -6155489.783 6  21974999.495    21975000.554
        14.500          14.000
 95  4 24 15 52 29.9990000  0  7G 2G18G19G27G28G29G31
                  -1192173.431 4   -914307.388 5  24065603.573    24065606.788
         6.250           7.000
                  -1333726.536 7  -1039266.618 6  20124489.847    20124490.530
        22.500          17.250
                  -3657608.264 6  -2850083.119 6  20770314.972    20770315.921
        19.000          21.000
                  -7749423.633 5  -6038508.308 5  22674416.065    22674417.515
        11.500          11.500
                  -1305827.927 5  -1017525.761 5  23148663.886    23148664.776
        11.500          11.250
                   3983281.073 6   3103855.491 6  21252487.690    21252488.378
        18.000          19.000
                  -7942534.950 6  -6177477.774 6  21969629.800    21969630.874
        14.250          14.000
 95  4 24 15 52 44.9990000  0  7G 2G18G19G27G28G29G31
                  -1238504.825 4   -950409.743 5  24056787.339    24056790.190
         6.500           7.000
                  -1328631.004 7  -1035296.081 6  20125459.526    20125460.175
        22.500          17.250
                  -3671483.389 6  -2860894.898 6  20767674.636    20767675.632
        19.250          21.250
                  -7785017.230 5  -6066243.568 5  22667642.800    22667644.241
        11.500          11.500
                  -1299065.521 5  -1012256.352 5  23149950.730    23149951.530
        11.250          11.250
                   4010910.291 6   3125384.746 6  21257745.433    21257746.069
        18.000          19.000
                  -7970650.858 6  -6199386.259 6  21964279.448    21964280.671
        14.250          14.000
 95  4 24 15 52 59.9990000  0  7G 2G18G19G27G28G29G31
                  -1284797.456 4   -986481.879 5  24047977.698    24047981.062
         6.250           7.000
                  -1323432.853 7  -1031245.577 6  20126448.659    20126449.276
        22.250          17.250
                  -3685329.412 6  -2871684.003 6  20765039.714    20765040.812
        19.000          21.250
                  -7820604.505 5  -6093973.901 5  22660870.776    22660872.327
        11.500          11.500
                  -1292181.326 5  -1006892.037 5  23151260.581    23151261.636
        11.250          11.250
                   4038623.569 6   3146979.507 6  21263019.073    21263019.647
        18.000          19.000
                  -7998662.467 6  -6221213.473 6  21958949.019    21958950.233
        14.250          14.000
 95  4 24 15 53 14.9990000  0  7G 2G18G19G27G28G29G31
                  -1331049.401 4  -1022522.323 5  24039176.495    24039179.390
         6.500           6.750
                  -1318131.063 7  -1027114.316 6  20127457.628    20127458.296
        22.250          17.250
                  -3699148.915 6  -2882452.445 6  20762409.948    20762411.144
        19.000          21.250
                  -7856186.711 5  -6121700.281 5  22654099.690    22654101.327
        11.500          11.750
                  -1285176.319 5  -1001433.591 5  23152593.651    23152594.612
        11.000          11.000
                   4066420.323 6   3168639.312 6  21268308.526    21268309.237
        18.000          19.250
                  -8026568.858 6  -6242958.695 6  21953638.589    21953639.702
        14.250          14.000
 95  4 24 15 53 29.9990000  0  7G 2G18G19G27G28G29G31
                  -1377266.614 4  -1058535.699 5  24030381.815    24030384.632
         6.750           6.750
                  -1312728.404 7  -1022904.452 6  20128485.558    20128486.214
        22.250          17.250
                  -3712945.066 6  -2893202.686 6  20759784.737    20759785.991
        19.000          21.250
                  -7891770.645 5  -6149428.009 5  22647328.230    22647329.894
        11.500          11.750
                  -1278055.182 5   -995884.656 5  23153948.808    23153949.710
        11.000          11.000
                   4094296.356 6   3190360.886 6  21273613.245    21273613.882
        17.750          19.250
                  -8054373.085 6  -6264624.310 6  21948347.870    21948348.917
        14.500          14.000
 95  4 24 15 53 44.9990000  0  7G 2G18G19G27G28G29G31
                  -1423448.693 4  -1094521.704 5  24021593.308    24021596.230
         6.750           6.750
                  -1307217.136 7  -1018609.958 6  20129534.401    20129535.116
        22.000          17.250
                  -3726716.755 6  -2903933.870 6  20757164.065    20757165.366
        19.000          21.500
                  -7927355.843 5  -6177156.720 6  22640556.612    22640558.206
        11.500          12.000
                  -1270814.445 5   -990242.523 5  23155326.667    23155327.671
        11.000          11.000
                   4122255.804 6   3212147.463 6  21278933.839    21278934.452
        18.000          19.500
                  -8082069.255 6  -6286205.725 6  21943077.136    21943078.206
        14.500          14.250
 95  4 24 15 53 59.9990000  0  7G 2G18G19G27G28G29G31
                  -1469600.444 4  -1130484.070 5  24012810.964    24012814.046
         6.750           6.750
                  -1301596.146 7  -1014229.971 6  20130603.987    20130604.667
        22.000          17.250
                  -3740466.541 6  -2914647.983 6  20754547.480    20754548.855
        19.000          21.500
                  -7962943.413 5  -6204887.284 6  22633784.628    22633786.206
        11.750          12.000
                  -1263454.179 5   -984507.251 5  23156727.347    23156728.222
        11.000          11.000
                   4150299.291 6   3233999.522 6  21284270.355    21284270.921
        18.000          19.000
                  -8109657.576 6  -6307703.105 6  21937827.230    21937828.456
        14.250          14.250
 95  4 24 15 54 14.9990000  0  7G 2G18G19G27G28G29G31
                  -1515720.507 4  -1166421.746 5  24004034.558    24004037.472
         6.750           6.750
                  -1295863.837 7  -1009763.236 6  20131694.737    20131695.577
        22.000          17.250
                  -3754192.522 6  -2925343.546 6  20751935.472    20751936.929
        18.750          21.750
                  -7998532.270 5  -6232618.845 6  22627012.425    22627014.077
        11.750          12.250
                  -1255972.780 5   -978677.591 5  23158150.878    23158151.827
        11.000          11.000
                   4178429.019 6   3255918.783 6  21289623.269    21289623.874
        18.000          19.250
                  -8137136.444 6  -6329115.191 6  21932598.206    21932599.437
        14.250          14.250
 95  4 24 15 54 29.9990000  0  7G 2G18G19G27G28G29G31
                  -1561811.078 4  -1202336.440 5  23995263.784    23995266.827
         7.000           6.750
                  -1290021.105 7  -1005210.459 6  20132806.472    20132807.206
        22.000          17.250
                  -3767894.823 6  -2936020.663 6  20749327.964    20749329.511
        18.750          21.750
                  -8034124.559 6  -6260353.081 6  22620239.370    22620240.827
        12.000          12.000
                  -1248371.803 5   -972754.747 5  23159597.370    23159598.218
        11.000          11.000
                   4206642.233 6   3277903.096 6  21294992.097    21294992.858
        17.750          19.250
                  -8164506.164 6  -6350442.227 6  21927389.675    21927390.976
        14.250          14.250
 95  4 24 15 54 44.9990000  0  7G 2G18G19G27G28G29G31
                  -1607873.810 4  -1238229.441 5  23986498.292    23986501.343
         7.000           7.000
                  -1284068.048 7  -1000571.717 6  20133939.370    20133940.187
        21.750          17.250
                  -3781579.782 6  -2946684.260 6  20746723.870    20746725.315
        18.750          21.750
                  -8069724.270 6  -6288093.105 6  22613465.003    22613466.382
        12.000          12.000
                  -1240654.274 5   -966741.088 5  23161065.894    23161066.866
        11.000          11.000
                   4234934.653 6   3299949.132 6  21300375.690    21300376.550
        17.750          19.250
                  -8191769.221 6  -6371686.155 6  21922201.667    21922202.917
        14.250          14.250
 95  4 24 15 54 59.9990000  0  7G 2G18G19G27G28G29G31
                  -1653908.181 4  -1274100.342 5  23977738.245    23977741.198
         7.000           7.000
                  -1278001.347 7   -995844.419 6  20135093.792    20135094.694
        21.750          17.250
                  -3795246.954 6  -2957334.004 6  20744123.128    20744124.546
        18.750          21.750
                  -8105330.636 5  -6315838.307 6  22606689.230    22606690.409
        11.750          12.000
                  -1232820.025 5   -960636.484 5  23162556.800    23162557.636
        11.000          10.750
                   4263305.342 6   3322056.157 6  21305774.503    21305775.382
        17.750          19.250
                  -8218925.647 6  -6392846.986 6  21917034.034    21917035.194
        14.250          14.250
 95  4 24 15 55 14.9990000  0  7G 2G18G19G27G28G29G31
                  -1699908.170 4  -1309944.454 5  23968984.823    23968987.905
         7.000           6.750
                  -1271813.166 7   -991022.459 6  20136271.370    20136272.280
        21.750          17.500
                  -3808890.610 6  -2967965.420 6  20741526.753    20741528.136
        19.000          21.750
                  -8140937.917 5  -6343584.228 6  22599913.394    22599914.519
        11.750          12.000
                  -1224863.996 5   -954436.982 5  23164070.745    23164071.554
        11.000          10.750
                   4291760.826 6   3344229.252 6  21311189.464    21311190.265
        17.500          19.000
                  -8245973.549 6  -6413923.258 6  21911886.925    21911888.136
        14.250          14.250
 95  4 24 15 55 29.9990000  0  7G 2G18G19G27G28G29G31
                  -1745878.559 4  -1345765.508 5  23960236.808    23960239.882
         7.000           6.750
                  -1265506.910 7   -986108.495 6  20137471.417    20137472.304
        21.750          17.500
                  -3822511.593 6  -2978579.170 6  20738934.714    20738936.022
        18.750          21.500
                  -8176549.904 5  -6371333.812 6  22593136.698    22593137.901
        11.750          12.000
                  -1216789.292 5   -948145.000 5  23165607.237    23165608.105
        10.750          10.750
                   4320299.623 6   3366467.272 6  21316620.112    21316620.937
        17.250          18.750
                  -8272923.146 6  -6434922.929 6  21906758.636    21906759.683
        14.250          14.250
 95  4 24 15 55 44.9990000  0  7G 2G18G19G27G28G29G31
                  -1791818.676 4  -1381562.966 5  23951494.714    23951497.737
         7.000           6.500
                  -1259082.127 7   -981102.171 6  20138694.089    20138694.940
        21.750          17.750
                  -3836106.805 6  -2989172.834 6  20736347.698    20736349.081
        19.000          21.750
                  -8212164.237 5  -6399085.227 6  22586359.495    22586360.866
        11.750          12.000
                  -1208594.955 5   -941759.800 5  23167166.737    23167167.503
        11.000          10.750
                   4348921.992 6   3388770.411 6  21322066.831    21322067.565
        17.250          18.750
                  -8299775.184 6  -6455846.579 6  21901648.925    21901649.882
        14.500          14.250
 95  4 24 15 55 59.9990000  0  7G 2G18G19G27G28G29G31
                  -1837730.364 4  -1417338.273 5  23942758.292    23942760.886
         7.000           6.250
                  -1252544.217 7   -976007.698 6  20139938.206    20139939.108
        22.000          17.750
                  -3849679.030 6  -2999748.594 6  20733765.050    20733766.390
        19.000          21.750
                  -8247781.040 6  -6426838.563 6  22579581.815    22579583.042
        12.000          12.250
                  -1200284.237 5   -935283.919 5  23168748.073    23168749.022
        10.750          10.750
                   4377625.416 6   3411136.712 6  21327528.980    21327529.667
        17.500          18.750
                  -8326534.431 6  -6476697.924 6  21896556.808    21896557.878
        14.750          14.250
 95  4 24 15 56 14.9990000  0  7G 2G18G19G27G28G29G31
                  -1883605.678 4  -1453085.244 5  23934028.292    23934030.917
         7.250           6.250
                  -1245893.112 7   -970825.016 6  20141204.089    20141204.991
        22.000          17.750
                  -3863222.194 6  -3010301.706 6  20731187.894    20731189.093
        19.000          21.750
                  -8283395.138 6  -6454589.794 6  22572804.839    22572806.065
        12.250          12.250
                  -1191854.049 5   -928714.939 5  23170352.394    23170353.280
        11.000          10.750
                   4406415.938 6   3433570.883 6  21333007.706    21333008.292
        17.500          18.500
                  -8353198.518 6  -6497475.121 6  21891483.050    21891484.015
        14.750          14.500
 95  4 24 15 56 29.9990000  0  7G 2G18G19G27G28G29G31
                  -1929443.906 4  -1488803.318 5  23925305.722    23925308.163
         7.250           6.250
                  -1239131.521 7   -965556.249 6  20142490.683    20142491.644
        22.000          18.000
                  -3876735.764 6  -3020831.760 6  20728616.292    20728617.503
        19.000          21.500
                  -8319005.930 6  -6482338.452 6  22566028.269    22566029.761
        12.250          12.250
                  -1183305.269 5   -922053.552 5  23171979.245    23171980.136
        11.000          10.750
                   4435291.921 6   3456071.643 6  21338502.620    21338503.101
        17.750          18.250
                  -8379765.086 6  -6518176.323 6  21886427.519    21886428.491
        14.750          14.500
 95  4 24 15 56 44.9990000  0  7G 2G18G19G27G28G29G31
                  -1975243.633 4  -1524491.393 5  23916590.065    23916592.780
         7.250           6.500
                  -1232260.547 7   -960202.243 6  20143798.261    20143799.132
        21.750          18.000
                  -3890221.618 6  -3031340.212 6  20726050.081    20726051.265
        19.000          21.250
                  -8354613.923 6  -6510084.929 6  22559252.222    22559253.780
        12.250          12.500
                  -1174637.671 5   -915299.583 5  23173628.589    23173629.437
        10.750          10.750
                   4464256.519 6   3478641.453 6  21344014.534    21344014.964
        17.500          18.250
                  -8406234.530 6  -6538801.848 6  21881390.573    21881391.519
        15.000          14.500
 95  4 24 15 56 59.9990000  0  7G 2G18G19G27G28G29G31
                  -2021006.946 4  -1560151.083 5  23907881.581    23907884.401
         7.000           6.750
                  -1225280.656 7   -954763.369 6  20145126.495    20145127.382
        22.000          18.000
                  -3903681.042 6  -3041828.072 6  20723488.855    20723490.007
        19.000          21.250
                  -8390218.610 6  -6537828.825 6  22552476.925    22552478.507
        12.250          12.750
                  -1165851.146 5   -908452.939 5  23175300.589    23175301.448
        10.750          10.750
                   4493311.378 6   3501281.596 6  21349543.589    21349543.862
        17.750          18.000
                  -8432606.307 6  -6559351.270 6  21876372.214    21876373.167
        15.000          14.750
 95  4 24 15 57 14.9990000  0  7G 2G18G19G27G28G29G31
                  -2066737.347 4  -1595785.126 5  23899179.253    23899182.171
         6.750           7.000
                  -1218195.136 7   -949242.189 6  20146474.808    20146475.640
        22.000          18.000
                  -3917114.136 6  -3052295.412 6  20720932.644    20720933.753
        19.000          21.500
                  -8425820.207 6  -6565570.318 6  22545702.144    22545703.812
        12.250          13.000
                  -1156947.648 5   -901515.147 5  23176994.605    23176995.737
        10.750          10.500
                   4522453.217 6   3523989.518 6  21355089.081    21355089.327
        17.750          18.250
                  -8458881.303 6  -6579825.276 6  21871372.253    21871373.421
        15.000          14.750
 95  4 24 15 57 29.9990000  0  7G 2G18G19G27G28G29G31
                  -2112436.678 4  -1631394.954 5  23890482.855    23890485.972
         6.750           7.000
                  -1211004.660 7   -943639.220 6  20147843.112    20147843.894
        22.000          18.000
                  -3930523.126 6  -3062743.973 6  20718381.019    20718382.108
        19.000          21.250
                  -8461418.827 6  -6593309.485 6  22538927.800    22538929.476
        12.250          13.000
                  -1147927.903 5   -894486.781 5  23178711.011    23178712.187
        10.750          10.750
                   4551681.608 6   3546764.875 6  21360650.956    21360651.386
        17.750          18.000
                  -8485058.157 6  -6600222.810 6  21866390.894    21866392.128
        15.000          15.000
 95  4 24 15 57 44.9990000  0  7G 2G18G19G27G28G29G31
                  -2158105.151 4  -1666980.744 5  23881792.417    23881795.339
         6.750           7.250
                  -1203711.509 7   -937956.250 6  20149230.769    20149231.585
        22.000          18.000
                  -3943909.737 6  -3073175.097 6  20715833.636    20715834.632
        19.000          21.250
                  -8497014.256 6  -6621046.165 6  22532154.081    22532155.769
        12.250          13.000
                  -1138791.132 5   -887367.222 5  23180449.839    23180450.757
        10.500          10.500
                   4580996.171 6   3569607.384 6  21366229.261    21366229.597
        17.750          18.000
                  -8511128.642 6  -6620537.460 6  21861429.784    21861431.003
        15.000          15.000
 95  4 24 15 57 59.9990000  0  7G 2G18G19G27G28G29G31
                  -2203737.506 4  -1702538.395 5  23873108.995    23873111.917
         7.000           7.500
                  -1196312.355 7   -932190.680 6  20150639.144    20150639.827
        21.750          17.750
                  -3957273.508 6  -3083588.418 6  20713290.534    20713291.558
        19.000          21.250
                  -8532601.597 6  -6648776.554 6  22525382.073    22525383.651
        12.250          12.750
                  -1129532.967 5   -880153.067 5  23182211.597    23182212.448
        10.500          10.250
                   4610400.082 6   3592519.514 6  21371824.808    21371825.183
        17.750          18.000
                  -8537083.221 6  -6640761.792 6  21856490.714    21856491.905
        15.000          15.000
 95  4 24 15 58 14.9990000  0  7G 2G18G19G27G28G29G31
                  -2249337.813 4  -1738071.071 5  23864431.573    23864434.815
         7.000           8.000
                  -1188812.931 7   -926346.975 6  20152066.136    20152066.827
        21.750          17.750
                  -3970619.301 6  -3093987.731 6  20710751.034    20710752.073
        19.000          21.250
                  -8568187.021 6  -6676505.441 6  22518610.331    22518611.851
        12.500          12.500
                  -1120157.821 5   -872847.761 5  23183995.698    23183996.448
        10.750          10.250
                   4639888.596 6   3615497.572 6  21377436.175    21377436.620
        17.500          18.000
                  -8562925.696 6  -6660898.775 6  21851572.995    21851574.187
        14.750          15.000
 95  4 24 15 58 29.9990000  0  7G 2G18G19G27G28G29G31
                  -2294903.259 4  -1773576.572 5  23855760.800    23855764.034
         7.000           8.250
                  -1181207.188 7   -920420.423 6  20153513.206    20153513.894
        21.500          17.750
                  -3983943.132 6  -3104369.933 6  20708215.550    20708216.491
        19.250          21.250
                  -8603766.973 6  -6704230.067 6  22511839.690    22511841.132
        12.500          12.500
                  -1110660.183 5   -865447.003 5  23185802.933    23185803.800
        10.500          10.250
                   4669463.510 6   3638542.948 6  21383064.136    21383064.577
        17.750          17.750
                  -8588648.064 6  -6680942.169 6  21846678.159    21846679.401
        14.750          15.000
 95  4 24 15 58 44.9990000  0  7G 2G18G19G27G28G29G31
                  -2340440.987 4  -1809060.475 5  23847095.394    23847098.230
         7.250           8.250
                  -1173496.337 7   -914411.971 6  20154980.558    20154981.374
        21.250          17.750
                  -3997250.644 6  -3114739.418 6  20705683.323    20705684.261
        19.250          21.250
                  -8639347.114 6  -6731954.841 6  22505069.097    22505070.394
        12.750          12.500
                  -1101044.937 5   -857954.607 5  23187632.698    23187633.616
        10.500          10.250
                   4699117.651 6   3661650.065 6  21388707.128    21388707.624
        17.750          18.000
                  -8614256.621 6  -6700896.877 6  21841805.042    21841806.194
        15.000          15.000
 95  4 24 15 58 59.9990000  0  7G 2G18G19G27G28G29G31
                  -2385949.421 4  -1844521.552 5  23838435.292    23838438.327
         7.250           8.250
                  -1165674.513 7   -908317.039 6  20156468.933    20156469.608
        21.000          17.750
                  -4010537.268 6  -3125092.626 6  20703154.909    20703155.808
        19.250          21.000
                  -8674925.540 6  -6759678.280 6  22498299.042    22498300.120
        13.000          12.500
                  -1091309.573 5   -850368.609 5  23189485.190    23189486.120
        10.250          10.250
                   4728853.506 6   3684820.854 6  21394365.636    21394366.253
        17.500          17.750
                  -8639750.275 6  -6720762.049 6  21836953.815    21836954.808
        15.000          15.000
 95  4 24 15 59 14.9990000  0  7G 2G18G19G27G28G29G31
                  -2431428.010 4  -1879959.380 5  23829780.745    23829783.847
         7.000           8.250
                  -1157739.839 7   -902134.180 6  20157978.737    20157979.530
        21.000          17.500
                  -4023797.118 6  -3135424.973 6  20700631.487    20700632.433
        19.250          21.000
                  -8710499.761 6  -6787398.443 6  22491529.550    22491530.616
        13.250          12.500
                  -1081452.946 5   -842688.119 5  23191360.948    23191361.651
        10.500          10.000
                   4758668.560 6   3708053.358 6  21400039.378    21400039.940
        17.500          17.750
                  -8665127.566 6  -6740536.544 6  21832124.737    21832125.726
        15.000          15.000
 95  4 24 15 59 29.9990000  0  7G 2G18G19G27G28G29G31
                  -2476878.713 4  -1915375.474 5  23821131.878    23821134.870
         7.000           8.250
                  -1149696.919 7   -895866.967 6  20159509.292    20159510.081
        20.750          17.500
                  -4037031.691 6  -3145737.622 6  20698113.050    20698114.046
        19.000          21.000
                  -8746074.603 6  -6815119.088 6  22484759.909    22484761.050
        13.250          12.500
                  -1071479.544 5   -834916.638 5  23193258.706    23193259.605
        10.250          10.000
                   4788561.105 6   3731346.241 6  21405727.706    21405728.351
        17.250          17.750
                  -8690392.478 6  -6760223.477 6  21827317.019    21827317.897
        15.000          14.750
 95  4 24 15 59 44.9990000  0  7G 2G18G19G27G28G29G31
                  -2522302.901 4  -1950770.903 5  23812487.690    23812490.769
         7.250           8.250
                  -1141547.924 7   -889517.100 6  20161059.917    20161060.792
        20.750          17.500
                  -4050239.675 6  -3156029.555 6  20695599.605    20695600.608
        19.000          21.000
                  -8781651.181 6  -6842841.088 6  22477989.862    22477991.073
        13.250          12.750
                  -1061389.450 5   -827054.231 5  23195178.909    23195179.718
        10.250          10.000
                   4818533.654 6   3754701.470 6  21411431.276    21411431.956
        17.250          17.750
                  -8715545.201 6  -6779822.991 6  21822530.597    21822531.440
        15.000          14.750
 95  4 24 15 59 59.9990000  0  7G 2G18G19G27G28G29G31
                  -2567696.529 4  -1986142.529 5  23803849.495    23803852.640
         7.250           8.250
                  -1133290.350 7   -883082.628 6  20162631.401    20162632.175
        21.000          17.500
                  -4063412.727 6  -3166294.268 6  20693093.050    20693094.159
        19.250          21.000
                  -8817225.714 6  -6870561.490 6  22471220.198    22471221.519
        13.250          12.750
                  -1051178.507 5   -819097.651 5  23197121.972    23197122.733
        10.250          10.000
                   4848587.912 6   3778120.364 6  21417150.386    21417151.159
        17.250          18.000
                  -8740583.343 6  -6799333.215 6  21817765.987    21817766.886
        15.000          14.750
 95  4 24 16  0 14.9990000  0  7G 2G18G19G27G28G29G31
                  -2613060.630 4  -2021491.145 5  23795217.159    23795220.140
         7.250           8.250
                  -1124924.023 7   -876563.419 6  20164223.565    20164224.335
        21.250          17.750
                  -4076550.143 6  -3176531.210 6  20690592.925    20690594.026
        19.000          21.000
                  -8852799.047 6  -6898280.957 6  22464450.808    22464452.218
        13.000          12.750
                  -1040848.626 5   -811048.394 5  23199087.636    23199088.690
        10.250          10.000
                   4878721.446 6   3801601.032 6  21422884.605    21422885.339
        17.250          18.000
                  -8765512.484 6  -6818758.509 6  21813021.933    21813022.874
        15.000          15.000
 95  4 24 16  0 29.9990000  0  7G 2G18G19G27G28G29G31
                  -2658402.590 5  -2056822.508 5  23786588.909    23786591.851
         7.500           8.250
                  -1116451.112 7   -869961.157 6  20165835.987    20165836.741
        21.250          17.750
                  -4089654.979 6  -3186742.766 6  20688099.190    20688100.308
        19.000          21.000
                  -8888376.811 6  -6926003.875 6  22457680.409    22457681.843
        13.000          12.750
                  -1030403.831 5   -802909.598 5  23201075.300    23201075.999
        10.250          10.000
                   4908931.211 6   3825141.099 6  21428633.339    21428634.128
        17.250          17.750
                  -8790334.804 6  -6838100.563 6  21808298.464    21808299.522
        15.000          15.000
 95  4 24 16  0 44.9990000  0  7G 2G18G19G27G28G29G31
                  -2703719.165 5  -2092134.091 5  23777965.284    23777968.327
         7.500           8.250
                  -1107866.167 7   -863271.599 6  20167469.581    20167470.241
        21.500          17.750
                  -4102724.050 6  -3196926.455 6  20685612.308    20685613.362
        19.000          21.000
                  -8923953.793 6  -6953726.188 6  22450910.097    22450911.647
        12.750          12.750
                  -1019841.409 5   -794679.138 5  23203085.417    23203085.937
        10.250          10.000
                   4939222.712 6   3848744.859 6  21434397.644    21434398.351
        17.250          17.750
                  -8815048.458 6  -6857357.942 6  21803595.550    21803596.519
        15.000          15.000
 95  4 24 16  0 59.9990000  0  7G 2G18G19G27G28G29G31
                  -2749006.953 5  -2127423.247 5  23769347.362    23769350.272
         7.750           8.250
                  -1099168.649 7   -856494.317 6  20169124.870    20169125.511
        21.750          17.750
                  -4115756.571 6  -3207081.662 6  20683132.128    20683133.280
        19.000          21.000
                  -8959528.418 6  -6981446.665 6  22444140.417    22444141.823
        12.500          12.500
                  -1009161.523 5   -786357.152 5  23205117.675    23205118.421
        10.500          10.000
                   4969597.686 6   3872413.657 6  21440177.808    21440178.565
        17.250          17.750
                  -8839655.756 6  -6876532.448 6  21798912.980    21798913.964
        15.000          15.000
 95  4 24 16  1 14.9990000  0  7G 2G18G19G27G28G29G31
                  -2794265.973 5  -2162689.979 5  23760734.839    23760738.019
         7.750           8.250
                  -1090363.213 7   -849632.946 6  20170800.550    20170801.222
        22.000          18.000
                  -4128753.608 6  -3217209.220 6  20680658.823    20680659.991
        19.000          21.000
                  -8995099.991 6  -7009164.760 6  22437371.519    22437372.890
        12.750          12.750
                   -998363.591 5   -777943.183 5  23207172.245    23207173.308
        10.250          10.250
                   5000057.805 6   3896148.802 6  21445974.097    21445974.843
        17.250          17.750
                  -8864154.779 6  -6895622.583 6  21794250.980    21794251.909
        15.000          14.750
 95  4 24 16  1 29.9990000  0  7G 2G18G19G27G28G29G31
                  -2839492.832 5  -2197931.660 5  23752128.261    23752131.358
         7.750           8.000
                  -1081451.040 7   -842688.396 6  20172496.519    20172497.058
        21.750          18.000
                  -4141719.949 6  -3227312.859 6  20678191.433    20678192.694
        19.000          21.000
                  -9030667.887 6  -7036879.992 6  22430603.175    22430604.585
        12.750          12.750
                   -987447.377 5   -769437.047 5  23209249.667    23209250.444
        10.250          10.250
                   5030602.874 6   3919950.148 6  21451786.644    21451787.483
        17.000          17.750
                  -8888543.148 6  -6914626.493 6  21789610.136    21789610.991
        15.000          14.750
 95  4 24 16  1 44.9990000  0  7G 2G18G19G27G28G29G31
                  -2884688.467 5  -2233149.006 5  23743527.690    23743530.690
         7.500           7.750
                  -1072431.827 7   -835660.441 6  20174212.823    20174213.433
        21.750          18.000
                  -4154660.666 6  -3237396.529 6  20675728.987    20675730.198
        19.000          21.000
                  -9066232.786 6  -7064592.891 6  22423835.628    22423836.784
        12.750          12.500
                   -976414.006 5   -760839.615 5  23211349.269    23211350.085
        10.250          10.250
                   5061232.060 6   3943817.041 6  21457615.190    21457615.956
        17.000          17.750
                  -8912821.437 6  -6933544.628 6  21784990.128    21784990.964
        15.250          15.000
 95  4 24 16  1 59.9990000  0  7G 2G18G19G27G28G29G31
                  -2929848.612 5  -2268338.708 5  23734933.870    23734937.226
         7.500           7.750
                  -1063300.279 7   -828544.951 6  20175950.425    20175951.155
        21.750          18.000
                  -4167575.779 6  -3247460.250 6  20673271.237    20673272.499
        19.000          21.000
                  -9101792.278 6  -7092301.574 6  22417068.565    22417069.983
        12.500          12.750
                   -965260.760 5   -752148.774 5  23213471.573    23213472.429
        10.250          10.250
                   5091945.622 6   3967749.676 6  21463459.792    21463460.601
        17.000          17.750
                  -8936987.488 6  -6952375.306 6  21780391.448    21780392.206
        15.000          15.000
 95  4 24 16  2 14.9990000  0  7G 2G18G19G27G28G29G31
                  -2974969.203 5  -2303497.574 5  23726347.761    23726350.847
         7.500           7.750
                  -1054051.405 7   -821338.039 6  20177710.526    20177711.312
        21.750          18.000
                  -4180469.018 6  -3257506.923 6  20670817.573    20670818.905
        18.750          21.000
                  -9137346.343 6  -7120006.028 6  22410302.901    22410304.319
        12.500          12.750
                   -953987.408 5   -743364.349 5  23215616.862    23215617.761
        10.250          10.250
                   5122744.729 6   3991748.973 6  21469320.698    21469321.565
        17.000          17.750
                  -8961042.281 6  -6971119.286 6  21775813.995    21775814.714
        15.250          14.750
 95  4 24 16  2 29.9990000  0  7G 2G18G19G27G28G29G31
                  -3020052.140 5  -2338627.106 5  23717768.644    23717772.108
         7.500           7.750
                  -1044686.040 7   -814040.355 6  20179492.425    20179493.194
        21.750          18.000
                  -4193345.669 6  -3267540.674 6  20668367.276    20668368.644
        19.000          21.000
                  -9172898.129 6  -7147708.708 6  22403537.503    22403538.960
        12.500          13.000
                   -942596.545 5   -734488.355 5  23217784.495    23217785.261
        10.250          10.250
                   5153629.431 6   4015814.966 6  21475197.917    21475198.862
        17.000          18.000
                  -8984987.194 6  -6989777.646 6  21771257.401    21771258.214
        15.250          15.000
 95  4 24 16  2 44.9990000  0  7G 2G18G19G27G28G29G31
                  -3065103.106 5  -2373731.725 5  23709195.862    23709199.190
         7.500           7.750
                  -1035209.819 7   -806656.289 6  20181295.714    20181296.624
        21.500          18.250
                  -4206210.877 6  -3277565.508 6  20665919.214    20665920.530
        19.000          21.000
                  -9208453.834 6  -7175414.436 6  22396771.370    22396772.909
        12.500          13.000
                   -931093.963 5   -725525.302 5  23219973.222    23219974.280
        10.250          10.250
                   5184594.273 6   4039943.404 6  21481090.261    21481091.265
        16.750          18.000
                  -9008828.518 6  -7008355.287 6  21766720.581    21766721.312
        15.250          15.000
 95  4 24 16  2 59.9990000  0  7G 2G18G19G27G28G29G31
                  -3110111.706 5  -2408803.328 5  23700630.972    23700634.038
         7.750           7.750
                  -1025617.686 7   -799181.907 6  20183121.097    20183122.030
        21.250          18.250
                  -4219057.014 6  -3287575.481 6  20663474.698    20663476.058
        19.000          21.000
                  -9244006.895 6  -7203118.112 6  22390005.839    22390007.519
        12.500          13.250
                   -919474.032 5   -716470.815 5  23222184.526    23222185.480
        10.250          10.250
                   5215643.432 6   4064137.544 6  21486998.870    21486999.897
        17.000          18.000
                  -9032561.521 6  -7026848.527 6  21762204.261    21762205.261
        15.250          15.250
 95  4 24 16  3 14.9990000  0  7G 2G18G19G27G28G29G31
                  -3155077.148 5  -2443841.309 5  23692074.269    23692077.233
         7.750           7.500
                  -1015910.238 7   -791617.664 6  20184968.401    20184969.249
        21.250          18.250
                  -4231881.682 6  -3297568.723 6  20661034.253    20661035.503
        19.000          21.000
                  -9279556.360 6  -7230818.973 6  22383241.136    22383242.690
        12.500          13.250
                   -907734.271 5   -707322.950 5  23224418.581    23224419.421
        10.250          10.250
                   5246778.501 6   4088398.630 6  21492923.690    21492924.550
        17.000          18.000
                  -9056181.404 6  -7045253.616 6  21757709.581    21757710.616
        15.250          15.250
 95  4 24 16  3 29.9990000  0  7G 2G18G19G27G28G29G31
                  -3199996.088 5  -2478843.059 5  23683526.776    23683529.323
         8.000           7.250
                  -1006083.290 7   -783960.310 6  20186838.433    20186839.089
        21.000          18.000
                  -4244681.472 6  -3307542.583 6  20658598.417    20658599.698
        19.000          21.000
                  -9315100.857 6  -7258515.984 6  22376477.347    22376478.905
        12.750          13.250
                   -895872.150 5   -698079.745 5  23226675.855    23226676.577
        10.250          10.000
                   5278000.879 6   4112727.746 6  21498864.870    21498865.815
        16.750          17.750
                  -9079681.668 6  -7063565.497 6  21753237.776    21753238.745
        15.000          15.500
 95  4 24 16  3 44.9990000  0  7G 2G18G19G27G28G29G31
                  -3244870.916 5  -2513810.434 5  23674987.347    23674989.866
         8.000           7.250
                   -996135.579 7   -776208.849 6  20188731.386    20188732.140
        21.250          18.250
                  -4257455.807 6  -3317496.607 6  20656167.808    20656169.065
        19.000          21.000
                  -9350643.823 6  -7286211.789 6  22369713.761    22369715.296
        13.000          13.250
                   -883890.315 5   -688743.250 5  23228955.972    23228956.855
        10.500          10.000
                   5309306.032 6   4137121.364 6  21504822.230    21504823.155
        16.750          17.750
                  -9103066.895 6  -7081787.745 6  21748787.581    21748788.612
        15.250          15.500
 95  4 24 16  3 59.9990000  0  7G 2G18G19G27G28G29G31
                  -3289706.303 5  -2548747.077 5  23666455.292    23666458.202
         8.000           7.500
                   -986070.286 7   -768365.764 6  20190646.683    20190647.491
        21.000          18.250
                  -4270204.074 6  -3327430.319 6  20653741.745    20653743.054
        19.000          21.000
                  -9386188.232 6  -7313908.720 6  22362949.878    22362951.390
        13.000          13.250
                   -871790.852 5   -679315.099 5  23231258.401    23231259.206
        10.500          10.000
                   5340691.958 6   4161577.923 6  21510794.769    21510795.667
        16.500          17.500
                  -9126341.154 6  -7099923.520 6  21744358.683    21744359.675
        15.250          15.500
 95  4 24 16  4 14.9990000  0  7G 2G18G19G27G28G29G31
                  -3334503.516 5  -2583653.967 5  23657930.792    23657933.483
         7.750           7.500
                   -975889.707 7   -760432.849 6  20192584.034    20192584.913
        21.000          18.250
                  -4282926.152 6  -3337343.623 6  20651320.886    20651322.097
        19.000          21.000
                  -9421736.382 6  -7341608.571 6  22356185.331    22356186.769
        13.000          13.500
                   -859575.203 5   -669796.417 5  23233582.925    23233583.815
        10.500          10.000
                   5372155.382 6   4186094.864 6  21516781.972    21516782.890
        16.500          17.500
                  -9149504.897 6  -7117973.178 6  21739950.667    21739951.624
        15.250          15.500
 95  4 24 16  4 29.9990000  0  7G 2G18G19G27G28G29G31
                  -3379261.344 5  -2618530.171 5  23649413.542    23649416.464
         8.000           7.750
                   -965594.147 7   -752410.335 6  20194543.128    20194543.983
        21.000          18.250
                  -4295614.783 6  -3347230.866 6  20648906.370    20648907.519
        19.000          21.000
                  -9457283.604 6  -7369307.694 6  22349420.925    22349422.272
        13.000          13.250
                   -847240.230 5   -660184.750 5  23235930.237    23235930.948
        10.500          10.000
                   5403697.545 6   4210673.168 6  21522784.206    21522784.940
        16.250          17.250
                  -9172551.864 6  -7135931.846 6  21735564.839    21735565.952
        15.000          15.500
 95  4 24 16  4 44.9990000  0  7G 2G18G19G27G28G29G31
                  -3423983.969 5  -2653378.940 5  23640903.026    23640905.788
         8.000           8.000
                   -955188.547 7   -744302.078 6  20196523.253    20196524.140
        21.000          18.250
                  -4308271.265 6  -3357093.059 6  20646497.886    20646499.120
        19.000          21.000
                  -9492831.066 6  -7397007.005 6  22342656.284    22342657.784
        13.000          13.250
                   -834787.765 5   -650481.533 5  23238299.878    23238300.878
        10.500          10.250
                   5435314.934 6   4235310.087 6  21528801.042    21528801.745
        16.500          17.250
                  -9195479.777 6  -7153797.745 6  21731201.855    21731202.929
        15.000          15.500
 95  4 24 16  4 59.9990000  0  7G 2G18G19G27G28G29G31
                  -3468668.972 5  -2688198.395 5  23632399.995    23632402.675
         8.250           8.250
                   -944670.195 7   -736105.962 6  20198524.776    20198525.655
        20.750          18.000
                  -4320892.726 6  -3366927.961 6  20644096.050    20644097.339
        19.000          21.000
                  -9528373.794 6  -7424702.630 6  22335892.730    22335894.155
        12.750          13.250
                   -822215.007 5   -640684.580 5  23240692.276    23240693.421
        10.500          10.250
                   5467008.480 6   4260006.343 6  21534832.073    21534832.745
        16.500          17.250
                  -9218285.438 6  -7171568.378 6  21726861.901    21726862.987
        15.000          15.500
 95  4 24 16  5 14.9990000  0  7G 2G18G19G27G28G29G31
                  -3513317.251 5  -2722989.229 5  23623903.511    23623906.460
         8.250           8.250
                   -934041.788 7   -727824.088 6  20200547.276    20200548.128
        21.000          18.000
                  -4333482.150 6  -3376737.900 6  20641700.409    20641701.644
        19.000          21.000
                  -9563912.072 6  -7452394.785 6  22329130.026    22329131.315
        13.000          13.250
                   -809523.118 5   -630794.799 5  23243107.573    23243108.511
        10.500          10.250
                   5498777.727 6   4284761.593 6  21540877.534    21540878.237
        16.500          17.250
                  -9240969.291 6  -7189244.102 6  21722545.198    21722546.343
        15.000          15.500
 95  4 24 16  5 29.9990000  0  7G 2G18G19G27G28G29G31
                  -3557931.351 5  -2757753.432 5  23615413.745    23615416.468
         8.250           8.250
                   -923305.674 7   -719458.292 6  20202590.355    20202591.042
        21.000          18.000
                  -4346044.900 6  -3386527.056 6  20639309.855    20639311.065
        19.000          20.750
                  -9599447.444 6  -7480084.677 6  22322367.862    22322369.276
        13.000          13.250
                   -796714.358 5   -620813.953 5  23245544.948    23245545.843
        10.500          10.250
                   5530618.849 6   4309572.844 6  21546936.800    21546937.483
        16.500          17.250
                  -9263533.326 6  -7206826.461 6  21718251.464    21718252.562
        15.000          15.500
 95  4 24 16  5 44.9990000  0  7G 2G18G19G27G28G29G31
                  -3602508.292 5  -2792488.689 5  23606930.917    23606933.659
         8.250           8.250
                   -912458.158 7   -711005.690 6  20204654.526    20204655.077
        21.000          18.000
                  -4358578.909 6  -3396293.813 6  20636924.730    20636925.847
        19.000          21.000
                  -9634977.673 6  -7507770.563 6  22315606.761    22315608.093
        13.250          13.250
                   -783786.795 5   -610740.530 5  23248005.065    23248005.960
        10.500          10.250
                   5562532.600 6   4334440.691 6  21553009.675    21553010.272
        16.250          17.000
                  -9285977.349 6  -7224315.301 6  21713980.612    21713981.640
        15.250          15.500
 95  4 24 16  5 59.9990000  0  7G 2G18G19G27G28G29G31
                  -3647051.138 5  -2827197.371 5  23598454.659    23598457.608
         8.250           8.250
                   -901503.188 7   -702469.353 6  20206739.440    20206739.952
        21.000          18.000
                  -4371085.281 6  -3406039.033 6  20634544.847    20634546.050
        19.000          21.000
                  -9670502.832 6  -7535452.494 6  22308846.558    22308847.948
        13.250          13.250
                   -770741.868 5   -600575.657 5  23250487.292    23250488.280
        10.250          10.250
                   5594519.720 6   4359365.703 6  21559096.722    21559097.394
        16.250          17.000
                  -9308304.165 6  -7241712.814 6  21709732.190    21709733.140
        15.500          15.500
 95  4 24 16  6 14.9990000  0  7G 2G18G19G27G28G29G31
                  -3691555.684 5  -2861876.215 5  23589985.636    23589988.616
         8.250           8.000
                   -890438.828 7   -693847.773 6  20208844.909    20208845.421
        21.000          18.000
                  -4383564.390 6  -3415763.014 6  20632170.183    20632171.276
        19.000          21.000
                  -9706020.126 6  -7563128.298 6  22302087.917    22302089.112
        13.250          13.500
                   -757577.884 5   -590318.010 5  23252992.401    23252993.358
        10.500          10.250
                   5626585.650 6   4384352.129 6  21565198.667    21565199.167
        16.250          16.750
                  -9330508.870 6  -7259015.170 6  21705506.862    21705507.683
        15.500          15.500
 95  4 24 16  6 29.9990000  0  7G 2G18G19G27G28G29G31
                  -3736022.040 5  -2896525.296 5  23581523.956    23581526.940
         8.000           8.000
                   -879265.775 7   -685141.505 6  20210971.073    20210971.503
        21.000          18.000
                  -4396016.643 6  -3425466.065 6  20629800.542    20629801.671
        19.000          20.750
                  -9741529.730 6  -7590798.112 6  22295330.636    22295331.980
        13.250          13.500
                   -744296.349 5   -579968.767 5  23255519.815    23255520.784
        10.500          10.250
                   5658730.780 6   4409400.271 6  21571315.597    21571316.124
        16.000          16.500
                  -9352590.799 6  -7276221.862 6  21701304.620    21701305.515
        15.500          15.500
 95  4 24 16  6 44.9990000  0  7G 2G18G19G27G28G29G31
                  -3780453.978 5  -2931147.567 5  23573068.823    23573071.722
         8.000           8.000
                   -867987.048 7   -676352.891 6  20213117.315    20213117.769
        21.000          18.000
                  -4408446.374 6  -3435151.571 6  20627435.230    20627436.331
        19.000          20.750
                  -9777033.719 6  -7618463.550 6  22288574.378    22288575.894
        13.250          13.750
                   -730900.841 5   -569530.715 5  23258069.073    23258070.011
        10.750          10.500
                   5690954.776 6   4434509.863 6  21577447.487    21577448.108
        16.000          16.500
                  -9374554.221 6  -7293336.208 6  21697125.105    21697125.925
        15.500          15.500
 95  4 24 16  6 59.9990000  0  7G 2G18G19G27G28G29G31
                  -3824845.794 5  -2965738.561 5  23564621.347    23564624.468
         7.750           8.250
                   -856595.346 7   -667476.245 6  20215285.151    20215285.741
        21.000          18.000
                  -4420849.165 6  -3444816.079 6  20625075.097    20625076.284
        19.000          21.000
                  -9812526.593 6  -7646120.320 6  22281820.315    22281821.839
        13.250          13.750
                   -717385.564 5   -558999.333 5  23260640.940    23260641.784
        11.000          10.750
                   5723266.071 6   4459687.485 6  21583596.253    21583596.983
        16.000          16.500
                  -9396397.508 6  -7310356.946 6  21692968.503    21692969.362
        15.500          15.500
 95  4 24 16  7 14.9990000  0  7G 2G18G19G27G28G29G31
                  -3869200.872 5  -3000300.938 5  23556180.722    23556183.972
         7.750           8.250
                   -845095.675 7   -658515.466 6  20217473.433    20217474.073
        21.000          18.250
                  -4433225.784 6  -3454460.197 6  20622719.917    20622720.987
        19.000          20.750
                  -9848014.660 6  -7673773.349 6  22275067.206    22275068.671
        13.250          13.750
                   -703755.116 5   -548378.214 5  23263234.730    23263235.667
        11.000          10.750
                   5755659.375 6   4484929.013 6  21589760.456    21589761.097
        16.000          16.500
                  -9418126.658 6  -7327288.741 6  21688833.565    21688834.405
        15.500          15.500
 95  4 24 16  7 29.9990000  0  7G 2G18G19G27G28G29G31
                  -3913513.250 5  -3034830.036 5  23547748.417    23547751.605
         8.250           8.500
                   -833485.588 7   -649468.655 6  20219682.722    20219683.433
        21.000          18.250
                  -4445570.693 6  -3464079.604 6  20620370.776    20620371.882
        19.000          20.750
                  -9883496.325 6  -7701421.389 6  22268315.300    22268316.702
        13.500          13.750
                   -690005.546 5   -537664.272 5  23265851.081    23265852.206
        10.750          10.750
                   5788137.472 6   4510236.613 6  21595940.964    21595941.632
        16.000          16.250
                  -9439736.941 6  -7344127.912 6  21684721.128    21684722.124
        15.500          15.500
 95  4 24 16  7 44.9990000  0  7G 2G18G19G27G28G29G31
                  -3957784.827 5  -3069327.344 5  23539323.886    23539327.065
         8.500           8.750
                   -821762.984 7   -640334.166 6  20221913.487    20221914.280
        20.750          18.500
                  -4457882.503 6  -3473673.218 6  20618027.847    20618029.022
        19.000          20.750
                  -9918972.174 6  -7729064.900 6  22261564.394    22261565.788
        13.500          13.750
                   -676137.402 5   -526857.928 5  23268490.261    23268491.304
        10.750          10.750
                   5820699.066 6   4535609.274 6  21602136.933    21602137.694
        15.750          16.250
                  -9461228.124 6  -7360874.286 6  21680631.503    21680632.401
        15.500          15.250
 95  4 24 16  7 59.9990000  0  7G 2G18G19G27G28G29G31
                  -4002022.028 5  -3103797.862 5  23530906.003    23530909.198
         8.500           8.500
                   -809933.308 7   -631116.244 6  20224164.605    20224165.503
        20.750          18.750
                  -4470166.497 6  -3483245.164 6  20615690.253    20615691.456
        19.000          21.000
                  -9954449.128 6  -7756709.266 6  22254813.276    22254814.554
        13.750          13.750
                   -662156.787 5   -515963.956 5  23271150.581    23271151.589
        11.000          10.750
                   5853340.916 6   4561044.468 6  21608348.409    21608349.280
        15.750          16.250
                  -9482605.769 6  -7377532.185 6  21676563.511    21676564.343
        15.750          15.250
 95  4 24 16  8 14.9990000  0  7G 2G18G19G27G28G29G31
                  -4046222.616 5  -3138239.859 5  23522494.808    23522497.628
         9.000           8.750
                   -797994.896 7   -621813.590 6  20226436.230    20226437.155
        20.500          18.750
                  -4482423.265 6  -3492795.888 6  20613357.940    20613359.034
        19.000          20.750
                  -9989926.391 6  -7784353.883 6  22248062.347    22248063.538
        13.750          13.750
                   -648062.165 5   -504981.136 5  23273832.776    23273833.757
        10.750          10.750
                   5886066.338 6   4586544.789 6  21614575.870    21614576.808
        15.750          16.250
                  -9503865.361 6  -7394098.095 6  21672517.870    21672518.745
        15.750          15.250
 95  4 24 16  8 29.9990000  0  7G 2G18G19G27G28G29G31
                  -4090379.204 5  -3172647.565 5  23514092.019    23514094.878
         9.000           8.500
                   -785940.083 7   -612420.232 6  20228730.128    20228731.105
        20.500          19.000
                  -4494647.114 6  -3502320.964 6  20611031.815    20611032.921
        19.000          21.000
                 -10025398.968 6  -7811994.843 6  22241312.128    22241313.304
        13.750          13.750
                   -633847.114 5   -493904.482 5  23276537.714    23276538.733
        10.750          10.500
                   5918879.366 6   4612113.367 6  21620820.222    21620821.202
        15.750          16.250
                  -9524999.539 6  -7410566.279 6  21668496.190    21668497.015
        15.500          15.250
 95  4 24 16  8 44.9990000  0  7G 2G18G19G27G28G29G31
                  -4134495.478 5  -3207023.861 5  23505697.167    23505699.921
         9.000           8.500
                   -773770.810 7   -602937.685 6  20231045.808    20231046.804
        20.500          19.000
                  -4506840.455 6  -3511822.270 6  20608711.409    20608712.526
        19.000          20.750
                 -10060869.072 6  -7839633.874 6  22234562.308    22234563.608
        13.750          14.000
                   -619513.245 5   -482735.243 5  23279265.440    23279266.444
        10.750          10.500
                   5951776.128 6   4637747.192 6  21627080.167    21627081.054
        15.750          16.250
                  -9546009.986 6  -7426938.049 6  21664498.042    21664498.901
        15.750          15.250
 95  4 24 16  8 59.9990000  0  7G 2G18G19G27G28G29G31
                  -4178575.437 5  -3241371.867 5  23497309.120    23497311.929
         9.250           8.750
                   -761491.448 7   -593369.353 6  20233382.511    20233383.585
        20.500          19.000
                  -4519009.713 6  -3521304.807 6  20606395.753    20606396.878
        19.000          20.750
                 -10096341.814 6  -7867274.961 6  22227812.190    22227813.554
        14.000          14.250
                   -605064.302 5   -471476.337 5  23282015.073    23282015.835
        10.750          10.250
                   5984751.278 6   4663442.102 6  21633355.269    21633356.058
        15.750          16.250
                  -9566900.320 6  -7443216.228 6  21660522.847    21660523.585
        15.750          15.250
 95  4 24 16  9 14.9990000  0  7G 2G18G19G27G28G29G31
                  -4222611.570 5  -3275685.711 5  23488929.339    23488931.933
         9.500           9.000
                   -749095.844 7   -583710.447 6  20235741.417    20235742.382
        20.500          19.000
                  -4531147.790 6  -3530763.049 6  20604085.831    20604086.905
        19.000          20.500
                 -10131811.806 6  -7894913.907 6  22221062.487    22221063.761
        14.000          14.250
                   -590494.869 5   -460123.539 5  23284787.425    23284788.269
        10.750          10.250
                   6017807.638 6   4689200.291 6  21639645.815    21639646.405
        16.000          15.750
                  -9587662.365 6  -7459394.439 6  21656571.862    21656572.608
        15.500          15.250
 95  4 24 16  9 29.9990000  0  7G 2G18G19G27G28G29G31
                  -4266603.127 5  -3309964.830 5  23480558.026    23480560.667
         9.500           9.000
                   -736584.677 7   -573961.485 6  20238122.175    20238123.218
        20.500          19.000
                  -4543258.254 6  -3540199.775 6  20601781.276    20601782.378
        19.000          20.500
                 -10167280.384 6  -7922551.752 6  22214313.050    22214314.401
        14.000          14.250
                   -575806.204 5   -448677.839 5  23287582.636    23287583.476
        10.750          10.250
                   6050944.114 6   4715020.908 6  21645951.534    21645952.089
        16.250          15.750
                  -9608295.558 6  -7475472.248 6  21652645.409    21652646.366
        15.500          15.500
 95  4 24 16  9 44.9990000  0  7G 2G18G19G27G28G29G31
                  -4310553.317 5  -3344211.705 5  23472194.456    23472197.171
         9.250           9.250
                   -723955.924 7   -564120.902 6  20240525.261    20240526.315
        20.250          19.000
                  -4555343.716 6  -3549617.016 6  20599481.487    20599482.558
        19.000          20.500
                 -10202746.706 6  -7950187.840 6  22207564.073    22207565.444
        14.000          14.500
                   -560998.926 5   -437139.711 5  23290400.276    23290401.292
        10.750          10.000
                   6084161.317 6   4740904.432 6  21652272.464    21652272.972
        16.250          15.750
                  -9628801.532 6  -7491450.921 6  21648743.339    21648744.452
        15.750          15.750
 95  4 24 16  9 59.9990000  0  7G 2G18G19G27G28G29G31
                  -4354464.707 5  -3378428.352 5  23463838.417    23463841.108
         9.250           9.500
                   -711210.848 7   -554189.681 6  20242950.550    20242951.616
        20.250          19.000
                  -4567404.038 6  -3559014.666 6  20597186.589    20597187.647
        19.000          20.500
                 -10238211.517 6  -7977822.751 6  22200815.120    22200816.659
        14.000          14.500
                   -546073.706 5   -425509.684 5  23293240.558    23293241.526
        10.750          10.000
                   6117461.395 6   4766852.539 6  21658609.495    21658610.147
        16.250          16.000
                  -9649181.086 6  -7507331.088 6  21644865.159    21644866.390
        15.500          15.750
 95  4 24 16 10 14.9990000  0  7G 2G18G19G27G28G29G31
                  -4398333.504 5  -3412611.803 5  23455490.386    23455493.261
         9.500           9.750
                   -698349.015 7   -544167.477 6  20245398.362    20245399.335
        20.250          19.000
                  -4579436.052 6  -3568390.263 6  20594896.956    20594897.956
        19.000          20.500
                 -10273672.134 6  -8005454.386 6  22194067.159    22194068.683
        14.000          14.500
                   -531027.754 5   -413785.575 5  23296103.636    23296104.585
        10.500          10.000
                   6150845.105 6   4792865.813 6  21664962.065    21664962.894
        16.250          16.000
                  -9669430.782 6  -7523110.072 6  21641011.800    21641013.065
        15.500          15.750
 95  4 24 16 10 29.9990000  0  7G 2G18G19G27G28G29G31
                  -4442164.999 5  -3446766.191 5  23447149.433    23447152.280
         9.250           9.750
                   -685374.397 7   -534057.389 6  20247867.308    20247868.222
        20.250          19.000
                  -4591441.879 6  -3577745.453 6  20592612.237    20592613.202
        19.000          20.250
                 -10309131.341 6  -8033084.930 6  22187319.480    22187320.960
        14.000          14.250
                   -515865.320 5   -401970.699 5  23298988.925    23298989.886
        10.500          10.000
                   6184305.934 6   4818939.174 6  21671329.448    21671330.355
        16.000          16.000
                  -9689552.971 6  -7538789.705 6  21637182.659    21637183.897
        15.500          15.750
 95  4 24 16 10 44.9990000  0  7G 2G18G19G27G28G29G31
                  -4485960.335 5  -3480892.395 5  23438815.347    23438818.292
         9.250          10.000
                   -672287.855 7   -523860.088 6  20250357.628    20250358.452
        20.250          18.750
                  -4603418.381 6  -3587077.792 6  20590333.276    20590334.265
        19.000          20.250
                 -10344587.039 6  -8060712.736 6  22180572.495    22180573.718
        14.000          14.000
                   -500586.062 5   -390064.796 5  23301896.597    23301897.577
        10.250           9.750
                   6217841.799 6   4845071.006 6  21677711.058    21677712.073
        16.000          16.250
                  -9709549.049 6  -7554371.056 6  21633377.612    21633378.792
        15.750          15.750
 95  4 24 16 10 59.9990000  0  7G 2G18G19G27G28G29G31
                  -4529720.331 5  -3514991.073 5  23430487.815    23430491.058
         9.250          10.000
                   -659092.027 7   -513577.630 6  20252868.706    20252869.624
        20.250          18.750
                  -4615366.810 6  -3596388.255 6  20588059.425    20588060.558
        19.000          20.250
                 -10380039.956 6  -8088338.376 6  22173825.972    22173827.046
        14.000          14.000
                   -485192.118 5   -378069.526 5  23304826.011    23304826.753
        10.250           9.750
                   6251449.209 6   4871258.591 6  21684106.433    21684107.480
        16.000          16.250
                  -9729423.697 6  -7569857.799 6  21629595.612    21629596.753
        15.750          15.750
 95  4 24 16 11 14.9990000  0  7G 2G18G19G27G28G29G31
                  -4573440.566 5  -3549058.765 5  23422168.284    23422171.163
         9.250          10.000
                   -645784.579 7   -503208.191 6  20255401.011    20255401.815
        20.250          18.750
                  -4627281.635 6  -3605672.535 6  20585792.190    20585793.292
        19.000          20.500
                 -10415486.169 6  -8115958.792 6  22167080.964    22167082.101
        14.250          14.000
                   -469680.530 5   -365982.578 5  23307777.683    23307778.456
        10.250           9.500
                   6285130.643 6   4897503.866 6  21690515.714    21690516.835
        16.000          16.250
                  -9749176.377 6  -7585249.496 6  21625836.925    21625837.972
        15.750          15.750
 95  4 24 16 11 29.9990000  0  7G 2G18G19G27G28G29G31
                  -4617120.879 5  -3583095.347 5  23413856.097    23413859.296
         9.000          10.000
                   -632365.706 7   -492751.933 6  20257954.558    20257955.136
        20.250          18.500
                  -4639161.556 6  -3614929.617 6  20583531.417    20583532.440
        19.000          20.500
                 -10450927.065 6  -8143575.067 6  22160336.808    22160337.714
        14.250          14.000
                   -454052.592 5   -353804.977 5  23310751.612    23310752.382
        10.000           9.250
                   6318885.333 6   4923806.207 6  21696939.065    21696940.233
        15.750          16.000
                  -9768809.366 6  -7600547.928 6  21622101.058    21622101.944
        15.750          15.500
 95  4 24 16 11 44.9990000  0  7G 2G18G19G27G28G29G31
                  -4660759.523 5  -3617099.461 5  23405551.690    23405554.983
         8.750           9.750
                   -618834.512 7   -482208.148 6  20260529.456    20260530.147
        20.250          18.500
                  -4651003.729 6  -3624157.282 6  20581277.909    20581279.046
        19.000          20.500
                 -10486361.846 6  -8171186.576 6  22153593.800    22153594.585
        14.250          14.000
                   -438305.541 5   -341534.555 5  23313748.136    23313748.905
        10.000           9.250
                   6352715.285 6   4950167.203 6  21703376.737    21703377.726
        16.000          16.000
                  -9788320.975 6  -7615751.774 6  21618388.042    21618388.733
        16.250          15.500
 95  4 24 16 11 59.9990000  0  7G 2G18G19G27G28G29G31
                  -4704358.194 5  -3651072.428 5  23397255.011    23397258.358
         8.500           9.750
                   -605193.164 7   -471578.531 6  20263125.253    20263125.921
        20.000          18.250
                  -4662810.082 6  -3633357.037 6  20579031.276    20579032.339
        19.000          20.500
                 -10521791.472 6  -8198794.067 6  22146851.636    22146852.433
        14.250          14.000
                   -422442.259 5   -329173.568 5  23316766.675    23316767.429
        10.000           9.250
                   6386617.413 6   4976584.434 6  21709828.136    21709829.105
        15.750          15.750
                  -9807712.052 6  -7630861.698 6  21614697.980    21614698.507
        16.250          15.250
 95  4 24 16 12 14.9990000  0  7G 2G18G19G27G28G29G31
                  -4747910.402 5  -3685009.189 5  23388967.573    23388970.690
         8.750           9.500
                   -591440.991 7   -460862.557 6  20265742.300    20265742.960
        20.000          18.500
                  -4674579.467 6  -3642527.981 6  20576791.651    20576792.694
        19.000          20.500
                 -10557212.144 6  -8226394.583 6  22140111.308    22140112.218
        14.250          14.000
                   -406460.472 5   -316720.241 5  23319807.839    23319808.858
        10.000           9.250
                   6420592.922 6   5003058.845 6  21716293.425    21716294.542
        15.750          16.000
                  -9826977.530 6  -7645873.755 6  21611031.776    21611032.347
        16.000          15.250
 95  4 24 16 12 29.9990000  0  7G 2G18G19G27G28G29G31
                  -4791415.888 5  -3718909.550 5  23380688.862    23380691.866
         9.000           9.250
                   -577574.997 7   -450057.894 6  20268380.862    20268381.491
        20.250          18.500
                  -4686315.141 6  -3651672.662 6  20574558.362    20574559.546
        19.000          20.500
                 -10592623.123 6  -8253987.547 6  22133372.870    22133373.737
        14.250          14.000
                   -390360.320 5   -304174.678 5  23322871.769    23322872.573
        10.000           9.250
                   6454641.762 6   5029590.396 6  21722772.769    21722773.925
        15.750          15.750
                  -9846117.041 6  -7660787.652 6  21607389.433    21607390.214
        16.000          15.250
 95  4 24 16 12 44.9990000  0  7G 2G18G19G27G28G29G31
                  -4834873.827 5  -3752772.860 5  23372419.159    23372422.089
         9.250           9.250
                   -563592.715 7   -439162.621 6  20271041.761    20271042.339
        20.000          18.500
                  -4698015.479 6  -3660789.804 6  20572331.948    20572333.144
        19.000          20.500
                 -10628024.029 6  -8281572.660 6  22126636.261    22126637.226
        14.250          14.250
                   -374141.700 5   -291536.802 5  23325958.112    23325959.042
        10.000           9.250
                   6488767.743 6   5056182.058 6  21729266.753    21729267.761
        15.750          15.750
                  -9865131.274 6  -7675603.935 6  21603771.222    21603771.917
        16.000          15.250
 95  4 24 16 12 59.9990000  0  7G 2G18G19G27G28G29G31
                  -4878287.285 5  -3786601.519 5  23364157.776    23364160.897
         9.250           9.250
                   -549498.228 7   -428179.908 6  20273723.839    20273724.437
        20.000          18.750
                  -4709684.750 6  -3669882.745 6  20570111.386    20570112.558
        19.000          20.500
                 -10663419.255 6  -8309153.345 6  22119900.823    22119901.995
        14.250          14.250
                   -357809.203 5   -278810.193 5  23329066.183    23329067.062
        10.000           9.250
                   6522968.563 6   5082832.032 6  21735774.956    21735775.972
        15.750          15.750
                  -9884027.347 6  -7690328.145 6  21600175.761    21600176.491
        16.000          15.250
 95  4 24 16 13 14.9990000  0  7G 2G18G19G27G28G29G31
                  -4921656.012 5  -3820395.312 5  23355904.940    23355908.065
         9.250           9.250
                   -535291.592 6   -417109.814 6  20276427.190    20276427.780
        19.750          18.500
                  -4721324.349 6  -3678952.563 6  20567896.394    20567897.499
        19.000          20.250
                 -10698809.931 6  -8336730.487 6  22113165.901    22113167.276
        14.250          14.250
                   -341363.951 5   -265995.720 5  23332195.534    23332196.722
        10.000           9.250
                   6557247.023 6   5109542.508 6  21742297.870    21742298.780
        15.750          15.500
                  -9902803.908 6  -7704959.228 6  21596602.612    21596603.355
        15.750          15.250
 95  4 24 16 13 29.9990000  0  7G 2G18G19G27G28G29G31
                  -4964976.605 5  -3854151.595 5  23347661.323    23347664.530
         9.250           9.000
                   -520965.612 6   -405946.718 6  20279153.417    20279154.183
        19.750          18.750
                  -4732927.660 6  -3687994.104 6  20565688.526    20565689.640
        19.000          20.500
                 -10734190.173 6  -8364299.502 6  22106433.355    22106434.761
        14.250          14.750
                   -324800.090 5   -253088.826 5  23335347.644    23335348.706
        10.000           9.250
                   6591610.465 6   5136319.199 6  21748837.136    21748838.105
        15.500          15.500
                  -9921450.411 6  -7719488.967 6  21593054.159    21593055.065
        15.750          15.500
 95  4 24 16 13 44.9990000  0  7G 2G18G19G27G28G29G31
                  -5008254.625 5  -3887874.716 5  23339425.800    23339428.980
         9.000           9.000
                   -506527.453 6   -394696.213 6  20281900.823    20281901.632
        19.750          18.750
                  -4744501.510 6  -3697012.686 6  20563485.839    20563486.882
        19.000          20.250
                 -10769565.681 6  -8391864.820 6  22099701.690    22099703.128
        14.000          14.750
                   -308123.684 5   -240094.238 5  23338521.050    23338522.022
        10.000           9.250
                   6626052.937 6   5163157.475 6  21755391.269    21755392.198
        15.750          15.500
                  -9939969.996 6  -7733919.811 6  21589529.995    21589531.011
        16.000          15.500
 95  4 24 16 13 59.9990000  0  7G 2G18G19G27G28G29G31
                  -5051488.261 5  -3921563.243 5  23331198.667    23331201.870
         9.000           9.000
                   -491972.197 6   -383354.460 6  20284670.683    20284671.472
        19.750          19.000
                  -4756042.311 6  -3706005.519 6  20561289.706    20561290.878
        19.000          20.250
                 -10804929.277 6  -8419420.860 6  22092972.222    22092973.690
        14.250          14.750
                   -291330.624 5   -227008.748 5  23341716.550    23341717.737
        10.000           9.250
                   6660578.949 6   5190060.845 6  21761961.339    21761962.194
        15.500          15.500
                  -9958356.201 6  -7748246.724 6  21586031.284    21586032.202
        15.750          15.500
 95  4 24 16 14 14.9990000  0  7G 2G18G19G27G28G29G31
                  -5094674.594 5  -3955214.914 5  23322980.651    23322983.425
         9.250           9.000
                   -477295.502 6   -371918.085 6  20287463.464    20287464.351
        19.750          19.000
                  -4767547.274 6  -3714970.424 6  20559100.448    20559101.581
        19.000          20.250
                 -10840278.602 6  -8446965.778 6  22086245.464    22086246.929
        14.000          14.750
                   -274418.747 5   -213830.669 5  23344934.901    23344936.019
         9.750           9.250
                   6695193.856 6   5217033.482 6  21768548.308    21768549.128
        15.500          15.250
                  -9976606.387 6  -7762467.647 6  21582558.323    21582559.319
        16.000          15.750
 95  4 24 16 14 29.9990000  0  7G 2G18G19G27G28G29G31
                  -5137815.486 5  -3988831.187 5  23314771.269    23314774.144
         9.500           9.000
                   -462497.522 6   -360387.195 6  20290279.401    20290280.456
        19.750          19.000
                  -4779014.935 6  -3723906.259 6  20556918.308    20556919.417
        19.000          20.250
                 -10875615.473 6  -8474500.995 6  22079521.136    22079522.437
        14.250          14.750
                   -257387.396 5   -200559.504 5  23348175.964    23348176.851
        10.000           9.250
                   6729898.440 6   5244076.001 6  21775152.315    21775153.210
        15.250          15.000
                  -9994721.537 6  -7776583.347 6  21579111.097    21579112.230
        16.000          15.750
 95  4 24 16 14 44.9990000  0  7G 2G18G19G27G28G29G31
                  -5180914.927 5  -4022415.149 5  23306569.855    23306572.522
         9.750           9.000
                   -447580.700 6   -348763.703 6  20293117.925    20293118.948
        19.750          19.250
                  -4790448.286 6  -3732815.364 6  20554742.565    20554743.538
        19.000          20.250
                 -10910944.872 6  -8502030.390 6  22072798.214    22072799.530
        14.250          14.750
                   -240240.191 5   -187198.056 5  23351438.745    23351439.874
         9.750           9.250
                   6764690.140 6   5271186.404 6  21781772.870    21781773.788
        15.000          14.750
                 -10012706.440 6  -7790597.557 6  21575688.761    21575689.839
        16.000          15.750
 95  4 24 16 14 59.9990000  0  7G 2G18G19G27G28G29G31
                  -5223970.129 5  -4055964.638 5  23298376.714    23298379.315
         9.750           9.250
                   -432547.140 6   -337049.244 6  20295978.667    20295979.702
        19.750          19.500
                  -4801847.158 6  -3741697.601 6  20552573.425    20552574.437
        19.000          20.250
                 -10946265.811 6  -8529553.189 6  22066076.776    22066078.116
        14.250          14.750
                   -222976.477 5   -173745.826 5  23354724.034    23354725.038
        10.000           9.250
                   6799568.339 6   5298364.206 6  21788409.784    21788410.733
        15.000          14.750
                 -10030561.438 6  -7804510.540 6  21572291.081    21572292.198
        16.000          15.750
 95  4 24 16 15 14.9990000  0  7G 2G18G19G27G28G29G31
                  -5266980.253 5  -4089479.009 5  23290192.112    23290194.698
         9.500           9.250
                   -417400.899 6   -325246.980 6  20298861.019    20298861.991
        19.750          19.500
                  -4813215.633 6  -3750556.154 6  20550410.136    20550411.284
        19.000          20.250
                 -10981576.105 6  -8557067.698 6  22059357.355    22059358.714
        14.250          14.750
                   -205596.094 5   -160202.682 5  23358031.355    23358032.351
        10.000           9.250
                   6834530.503 6   5325607.433 6  21795062.894    21795063.901
        14.750          14.750
                 -10048283.705 6  -7818320.100 6  21568918.722    21568919.784
        15.750          15.750
 95  4 24 16 15 29.9990000  0  7G 2G18G19G27G28G29G31
                  -5309944.803 5  -4122957.858 5  23282016.058    23282018.800
         9.250           9.750
                   -402141.980 6   -313356.921 6  20301764.886    20301765.866
        19.750          19.500
                  -4824553.747 6  -3759391.045 6  20548252.409    20548253.632
        19.000          20.250
                 -11016874.776 6  -8584573.150 6  22052640.300    22052641.601
        14.250          14.750
                   -188098.095 5   -146567.891 5  23361361.300    23361362.136
        10.000           9.250
                   6869574.236 6   5352914.228 6  21801731.542    21801732.601
        14.750          14.750
                 -10065870.901 6  -7832024.406 6  21565571.675    21565572.792
        15.750          15.750
 95  4 24 16 15 44.9990000  0  7G 2G18G19G27G28G29G31
                  -5352863.900 5  -4156401.291 5  23273848.761    23273851.542
         9.500          10.000
                   -386772.901 6   -301381.019 6  20304689.401    20304690.487
        19.750          19.500
                  -4835863.956 6  -3768204.198 6  20546100.237    20546101.382
        19.000          20.250
                 -11052163.105 6  -8612070.542 6  22045925.128    22045926.456
        14.250          14.750
                   -170483.644 5   -132842.356 5  23364713.183    23364713.862
        10.000           9.250
                   6904697.108 6   5380282.688 6  21808415.261    21808416.358
        14.750          14.750
                 -10083325.574 6  -7845625.452 6  21562250.269    21562251.347
        16.000          15.750
 95  4 24 16 15 59.9990000  0  7G 2G18G19G27G28G29G31
                  -5395736.338 5  -4189808.356 5  23265690.355    23265693.296
         9.500           9.750
                   -371293.705 6   -289319.313 6  20307635.065    20307635.980
        19.750          19.250
                  -4847149.729 6  -3776998.304 6  20543952.761    20543953.862
        19.000          20.250
                 -11087441.906 6  -8639560.511 6  22039211.714    22039212.956
        14.250          14.750
                   -152754.093 5   -119027.131 5  23368086.933    23368087.800
        10.000           9.250
                   6939898.016 6   5407711.955 6  21815113.730    21815114.866
        14.750          14.750
                 -10100649.733 6  -7859124.792 6  21558953.581    21558954.632
        16.000          15.750
 95  4 24 16 16 14.9990000  0  7G 2G18G19G27G28G29G31
                  -5438560.710 5  -4223177.978 5  23257541.120    23257543.839
         9.750          10.000
                   -355700.397 7   -277168.691 6  20310602.448    20310603.339
        20.000          19.500
                  -4858407.763 6  -3785770.797 6  20541810.401    20541811.597
        19.000          20.250
                 -11122708.142 6  -8667040.686 6  22032501.081    22032502.230
        14.500          14.750
                   -134906.434 5   -105119.874 5  23371483.315    23371484.308
        10.250           9.250
                   6975179.561 6   5435204.053 6  21821827.636    21821828.792
        14.750          14.750
                 -10117842.092 6  -7872521.434 6  21555682.112    21555683.077
        16.000          15.750
 95  4 24 16 16 29.9990000  0  7G 2G18G19G27G28G29G31
                  -5481342.288 5  -4256514.258 5  23249400.151    23249402.698
        10.250          10.000
                   -340003.212 7   -264937.124 6  20313589.401    20313590.276
        20.000          19.250
                  -4869645.011 6  -3794527.097 6  20539671.980    20539673.202
        19.000          20.250
                 -11157967.859 6  -8694515.779 6  22025791.362    22025792.468
        14.500          14.750
                   -116946.631 5    -91125.236 5  23374901.050    23374901.901
        10.250           9.250
                   7010532.538 6   5462751.812 6  21828555.167    21828556.233
        14.750          14.750
                 -10134909.980 6  -7885821.085 6  21552434.269    21552435.167
        16.250          15.750
 95  4 24 16 16 44.9990000  0  7G 2G18G19G27G28G29G31
                  -5524077.228 5  -4289814.197 5  23241268.065    23241270.542
        10.500          10.000
                   -324198.081 6   -252621.442 6  20316597.050    20316597.862
        19.750          19.250
                  -4880857.322 6  -3803263.961 6  20537538.230    20537539.421
        19.000          20.250
                 -11193215.899 6  -8721981.780 6  22019083.878    22019084.987
        14.750          14.750
                    -98871.013 5    -77040.349 5  23378340.839    23378341.530
        10.250           9.500
                   7045957.749 6   5490355.853 6  21835296.362    21835297.480
        14.750          14.750
                 -10151850.962 6  -7899021.851 6  21549210.511    21549211.405
        16.250          15.750
 95  4 24 16 16 59.9990000  0  7G 2G18G19G27G28G29G31
                  -5566762.400 5  -4323075.353 5  23233145.042    23233147.757
        10.250          10.000
                   -308286.680 7   -240222.951 6  20319624.964    20319625.687
        20.000          19.250
                  -4892043.567 6  -3811980.518 6  20535409.690    20535410.897
        19.000          20.250
                 -11228448.797 6  -8749435.981 6  22012379.292    22012380.405
        14.750          14.500
                    -80679.340 5    -62865.033 5  23381802.519    23381803.382
        10.250           9.750
                   7081452.938 6   5518014.431 6  21842050.972    21842052.038
        14.750          14.750
                 -10168661.796 6  -7912121.203 6  21546011.550    21546012.464
        16.250          15.750
 95  4 24 16 17 14.9990000  0  7G 2G18G19G27G28G29G31
                  -5609396.639 5  -4356296.820 5  23225031.987    23225034.620
        10.500          10.000
                   -292267.823 7   -227740.730 6  20322673.323    20322674.183
        20.000          19.500
                  -4903195.876 6  -3820670.626 6  20533287.440    20533288.608
        19.000          20.250
                 -11263662.631 6  -8776875.328 6  22005678.120    22005679.222
        14.750          14.250
                    -62368.678 5    -48596.998 5  23385286.917    23385287.972
        10.000           9.750
                   7117020.206 6   5545729.168 6  21848819.159    21848820.198
        14.750          14.750
                 -10185337.224 6  -7925115.041 6  21542838.347    21542839.304
        16.250          15.750
 95  4 24 16 17 29.9990000  0  7G 2G18G19G27G28G29G31
                  -5651981.920 5  -4389480.137 5  23216928.401    23216930.983
        10.500          10.000
                   -276139.407 7   -215173.139 6  20325742.425    20325743.257
        20.000          19.250
                  -4914312.535 6  -3829332.955 6  20531171.995    20531173.222
        19.000          20.250
                 -11298860.428 6  -8804302.176 6  21998980.323    21998981.280
        14.750          14.250
                    -43939.768 5    -34236.821 5  23388793.714    23388794.921
        10.000           9.750
                   7152658.973 6   5573499.624 6  21855601.151    21855602.026
        14.750          14.500
                 -10201877.297 6  -7938003.411 6  21539690.831    21539691.831
        16.250          15.750
 95  4 24 16 17 44.9990000  0  7G 2G18G19G27G28G29G31
                  -5694521.780 5  -4422628.062 5  23208833.308    23208835.761
        10.750          10.000
                   -259901.868 7   -202520.517 6  20328832.339    20328833.163
        20.000          19.500
                  -4925395.402 6  -3837968.954 6  20529063.050    20529064.257
        19.000          20.250
                 -11334048.587 6  -8831721.515 6  21992284.136    21992284.995
        14.750          14.250
                    -25396.696 5    -19787.687 5  23392322.542    23392323.644
        10.000           9.750
                   7188365.611 6   5601322.965 6  21862395.948    21862396.839
        15.000          14.750
                 -10218287.292 6  -7950790.421 6  21536568.011    21536569.062
        16.250          15.750
 95  4 24 16 17 59.9990000  0  7G 2G18G19G27G28G29G31
                  -5737011.800 5  -4455737.152 5  23200747.776    23200750.136
        10.750           9.750
                   -243551.846 7   -189780.246 6  20331943.690    20331944.573
        20.000          19.500
                  -4936442.058 6  -3846576.743 6  20526961.011    20526962.265
        19.000          20.250
                 -11369225.481 6  -8859132.076 6  21985590.253    21985591.327
        14.750          14.250
                     -6736.287 5     -5247.123 5  23395873.386    23395874.624
        10.000           9.750
                   7224144.446 6   5629202.559 6  21869204.503    21869205.304
        15.000          14.750
                 -10234563.510 6  -7963473.191 6  21533470.651    21533471.730
        16.250          15.750
 95  4 24 16 18 14.9990000  0  7G 2G18G19G27G28G29G31
                  -5779456.486 5  -4488810.917 5  23192670.831    23192673.124
        10.750           9.750
                   -227092.446 7   -176954.751 6  20335075.737    20335076.534
        20.250          19.500
                  -4947452.833 6  -3855156.567 6  20524865.558    20524866.851
        19.000          20.250
                 -11404396.313 6  -8886537.912 6  21978897.425    21978898.390
        14.750          14.250
                     12038.273 5      9382.388 5  23399445.995    23399447.147
         9.750           9.750
                   7259991.591 6   5657135.387 6  21876025.940    21876026.698
        15.000          14.750
                 -10250710.144 6  -7976054.984 6  21530398.120    21530399.218
        16.250          15.750
 95  4 24 16 18 29.9990000  0  7G 2G18G19G27G28G29G31
                  -5821855.439 5  -4521849.053 5  23184602.581    23184604.980
        10.500           9.750
                   -210526.099 7   -164045.922 6  20338228.292    20338229.081
        20.250          19.500
                  -4958425.912 6  -3863707.021 6  20522777.589    20522778.897
        19.000          20.250
                 -11439561.454 6  -8913939.318 6  21972205.526    21972206.534
        14.750          14.250
                     30927.155 5     24100.984 5  23403040.370    23403041.694
         9.500           9.750
                   7295908.852 6   5685122.846 6  21882860.862    21882861.761
        15.000          14.750
                 -10266727.990 6  -7988536.421 6  21527350.167    21527351.237
        16.250          15.750
 95  4 24 16 18 44.9990000  0  7G 2G18G19G27G28G29G31
                  -5864202.917 5  -4554847.072 5  23176544.073    23176546.565
        10.500          10.000
                   -193848.626 7   -151050.498 6  20341401.964    20341402.636
        20.000          19.250
                  -4969358.795 6  -3872226.150 6  20520697.034    20520698.323
        19.000          20.250
                 -11474721.818 6  -8941336.993 6  21965514.683    21965515.780
        14.750          14.250
                     49932.146 5     38910.056 5  23406656.987    23406658.241
         9.250           9.750
                   7331901.965 6   5713169.412 6  21889710.073    21889710.983
        14.750          14.750
                 -10282611.494 6  -8000913.174 6  21524327.597    21524328.597
        16.250          15.500
 95  4 24 16 18 59.9990000  0  7G 2G18G19G27G28G29G31
                  -5906500.011 5  -4587805.829 5  23168495.198    23168497.698
        10.250          10.000
                   -177060.339 7   -137968.721 6  20344596.667    20344597.335
        20.000          19.250
                  -4980252.440 6  -3880714.706 6  20518624.097    20518625.319
        19.000          20.250
                 -11509879.652 6  -8968732.706 6  21958824.417    21958825.507
        14.750          14.250
                     69051.593 5     53808.308 5  23410295.198    23410296.339
         9.250           9.750
                   7367973.424 6   5741277.026 6  21896574.261    21896575.257
        14.750          14.750
                 -10298359.380 6  -8013184.253 6  21521330.855    21521331.897
        16.000          15.750
 95  4 24 16 19 14.9990000  0  7G 2G18G19G27G28G29G31
                  -5948746.906 5  -4620725.468 5  23160455.948    23160458.472
        10.000          10.000
                   -160159.921 7   -124799.572 6  20347812.542    20347813.253
        20.000          19.250
                  -4991106.890 6  -3889172.718 6  20516558.573    20516559.800
        19.000          20.250
                 -11545033.590 6  -8996125.376 6  21952134.878    21952135.847
        14.750          14.250
                     88286.664 5     68796.655 5  23413955.675    23413956.874
         9.000           9.750
                   7404124.588 6   5769446.746 6  21903453.519    21903454.550
        14.750          14.750
                 -10313968.874 6  -8025347.493 6  21518360.526    21518361.628
        16.000          15.750
 95  4 24 16 19 29.9990000  0  7G 2G18G19G27G28G29G31
                  -5990942.514 5  -4653605.147 5  23152426.183    23152428.827
         9.750          10.000
                   -143139.508 7   -111536.920 6  20351051.448    20351052.214
        20.000          19.250
                  -5001920.450 6  -3897598.869 6  20514500.862    20514502.101
        19.250          20.250
                 -11580182.551 6  -9023514.172 6  21945446.339    21945447.315
        14.750          14.250
                    107640.416 5     83877.489 5  23417638.425    23417639.714
         9.000           9.750
                   7440362.050 6   5797683.712 6  21910349.378    21910350.437
        14.750          14.750
                 -10329439.428 6  -8037402.469 6  21515416.370    21515417.476
        16.000          15.750
 95  4 24 16 19 44.9990000  0  7G 2G18G19G27G28G29G31
                  -6033085.929 5  -4686444.150 5  23144406.558    23144409.101
         9.750          10.250
                   -125996.810 7    -98178.978 6  20354313.620    20354314.362
        20.000          19.250
                  -5012695.552 6  -3905995.053 6  20512450.370    20512451.538
        19.250          20.250
                 -11615324.935 6  -9050897.844 6  21938758.940    21938759.964
        15.000          14.500
                    127113.284 5     99051.132 5  23421343.972    23421345.167
         8.750           9.750
                   7476685.274 6   5825987.503 6  21917261.503    21917262.366
        14.750          14.500
                 -10344771.506 6  -8049349.543 6  21512498.690    21512499.780
        15.750          15.750
 95  4 24 16 19 59.9990000  0  7G 2G18G19G27G28G29G31
                  -6075184.186 5  -4719247.971 5  23136395.526    23136398.144
         9.750          10.250
                   -108739.869 7    -84732.020 6  20357597.659    20357598.343
        20.000          19.250
                  -5023438.917 6  -3914366.505 6  20510405.933    20510407.230
        19.250          20.250
                 -11650466.215 6  -9078280.655 6  21932071.808    21932072.991
        15.000          14.750
                    146697.472 5    114311.519 5  23425070.597    23425072.120
         8.750           9.750
                   7513086.892 6   5854352.386 6  21924188.472    21924189.413
        14.750          14.500
                 -10359972.337 6  -8061194.346 6  21509606.159    21509607.308
        16.000          15.750
 95  4 24 16 20 14.9990000  0  7G 2G18G19G27G28G29G31
                  -6117238.712 5  -4752017.714 5  23128392.667    23128395.312
         9.750          10.250
                    -91367.993 7    -71195.499 6  20360903.230    20360903.843
        20.000          19.250
                  -5034147.270 6  -3922710.680 6  20508368.222    20508369.417
        19.250          20.250
                 -11685603.832 6  -9105660.612 6  21925385.300    21925386.515
        15.000          14.750
                    166393.828 5    129659.314 5  23428818.792    23428820.194
         8.750           9.500
                   7549569.666 6   5882780.510 6  21931130.800    21931131.804
        14.750          14.250
                 -10375041.508 6  -8072936.556 6  21506738.565    21506739.698
        15.750          15.750
 95  4 24 16 20 29.9990000  0  7G 2G18G19G27G28G29G31
                  -6159249.820 5  -4784753.627 5  23120398.355    23120401.085
        10.000          10.500
                    -73876.741 6    -57565.961 6  20364231.808    20364232.448
        19.750          19.250
                  -5044816.976 6  -3931024.736 6  20506337.940    20506339.128
        19.250          20.250
                 -11720732.289 6  -9133033.432 6  21918700.589    21918701.749
        15.000          14.750
                    186204.369 5    145096.086 5  23432588.745    23432589.933
         9.000           9.500
                   7586135.458 6   5911273.323 6  21938089.073    21938090.116
        14.500          14.250
                 -10389975.468 6  -8084573.409 6  21503896.706    21503897.890
        16.000          16.000
 95  4 24 16 20 44.9990000  0  7G 2G18G19G27G28G29G31
                  -6201213.969 5  -4817452.944 5  23112412.839    23112415.714
        10.000          10.750
                    -56262.988 7    -43840.967 6  20367583.573    20367584.257
        20.000          19.500
                  -5055446.693 6  -3939307.632 6  20504315.222    20504316.433
        19.500          20.250
                 -11755845.999 6  -9160394.759 6  21912018.690    21912019.878
        15.250          15.000
                    206131.584 5    160623.765 5  23436380.776    23436382.128
         9.000           9.750
                   7622786.321 6   5939832.420 6  21945063.511    21945064.530
        14.250          14.250
                 -10404768.531 6  -8096100.468 6  21501081.776    21501082.858
        16.250          16.250
 95  4 24 16 20 59.9990000  0  7G 2G18G19G27G28G29G31
                  -6243135.236 5  -4850118.847 5  23104435.394    23104438.425
        10.250          11.000
                    -38525.363 6    -30019.447 6  20370959.089    20370959.815
        19.750          19.500
                  -5066038.638 6  -3947561.097 6  20502299.706    20502300.960
        19.250          20.250
                 -11790945.756 6  -9187745.209 6  21905339.425    21905340.683
        15.250          15.000
                    226173.711 5    176240.997 5  23440194.542    23440195.917
         9.000           9.250
                   7659516.695 6   5968453.478 6  21952053.097    21952054.257
        14.250          14.000
                 -10419422.412 6  -8107519.077 6  21498293.261    21498294.417
        16.250          16.250
 95  4 24 16 21 14.9990000  0  7G 2G18G19G27G28G29G31
                  -6285019.846 5  -4882756.186 5  23096464.878    23096467.870
        10.250          11.000
                    -20668.087 6    -16104.692 6  20374357.065    20374357.882
        19.750          19.500
                  -5076597.561 6  -3955788.830 6  20500290.315    20500291.530
        19.500          20.250
                 -11826033.087 6  -9215085.984 6  21898662.565    21898663.855
        15.250          15.000
                    246326.407 5    191944.380 5  23444029.495    23444030.819
         9.000           9.250
                   7696316.908 6   5997128.958 6  21959055.870    21959057.058
        14.250          14.000
                 -10433944.342 6  -8118834.867 6  21495529.823    21495530.890
        16.250          16.250
 95  4 24 16 21 29.9990000  0  7G 2G18G19G27G28G29G31
                  -6326860.561 5  -4915359.321 5  23088502.847    23088506.101
        10.250          11.000
                     -2685.344 6     -2092.175 6  20377779.097    20377779.937
        19.750          19.500
                  -5087117.894 6  -3963986.494 6  20498288.284    20498289.526
        19.250          20.000
                 -11861103.014 6  -9242413.195 6  21891988.745    21891989.999
        15.000          15.000
                    266595.343 5    207738.337 5  23447886.690    23447887.737
         9.000           9.000
                   7733192.162 6   6025862.899 6  21966073.050    21966074.276
        14.000          14.000
                 -10448332.548 6  -8130046.456 6  21492791.917    21492793.081
        16.250          16.250
 95  4 24 16 21 44.9990000  0  7G 2G18G19G27G28G29G31
                  -6368658.878 5  -4947929.421 5  23080548.956    23080552.097
        10.250          11.000
                     15418.207 6     12014.481 6  20381223.956    20381224.905
        19.750          19.500
                  -5097601.540 6  -3972155.568 6  20496293.339    20496294.569
        19.500          20.250
                 -11896159.607 6  -9269730.018 6  21885317.784    21885319.093
        15.250          15.000
                    286977.316 5    223620.380 5  23451765.198    23451766.323
         9.250           9.000
                   7770137.956 6   6054651.814 6  21973103.667    21973105.062
        14.250          14.250
                 -10462590.329 6  -8141156.416 6  21490078.761    21490079.956
        16.250          16.500
 95  4 24 16 21 59.9990000  0  7G 2G18G19G27G28G29G31
                  -6410410.937 5  -4980463.473 5  23072603.776    23072606.964
        10.250          11.000
                     33641.976 6     26214.815 6  20384691.886    20384692.874
        19.750          19.750
                  -5108046.600 6  -3980294.575 6  20494305.925    20494307.050
        19.500          20.250
                 -11931200.895 6  -9297034.913 6  21878649.675    21878650.995
        15.250          15.500
                    307473.947 5    239591.775 5  23455665.792    23455666.530
         9.250           8.750
                   7807155.591 6   6083496.708 6  21980147.909    21980149.253
        14.250          14.250
                 -10476715.665 6  -8152163.167 6  21487390.792    21487391.999
        16.250          16.500
 95  4 24 16 22 14.9990000  0  7G 2G18G19G27G28G29G31
                  -6452115.144 5  -5012960.237 5  23064667.636    23064670.780
        10.500          10.750
                     51984.971 6     40508.052 6  20388182.464    20388183.534
        19.750          19.750
                  -5118452.355 6  -3988402.959 6  20492325.714    20492326.815
        19.500          20.250
                 -11966226.129 6  -9324327.294 6  21871984.644    21871985.847
        15.500          15.500
                    328086.735 5    255653.672 5  23459588.198    23459589.054
         9.250           8.750
                   7844248.993 6   6112400.640 6  21987206.667    21987207.897
        14.250          14.250
                 -10490706.629 6  -8163065.214 6  21484728.331    21484729.601
        16.250          16.500
 95  4 24 16 22 29.9990000  0  7G 2G18G19G27G28G29G31
                  -6493773.330 5  -5045421.144 5  23056740.401    23056743.272
        10.750          10.500
                     70442.921 6     54890.863 6  20391694.948    20391696.116
        19.500          19.750
                  -5128821.472 6  -3996482.790 6  20490352.526    20490353.792
        19.500          20.000
                 -12001238.236 6  -9351609.450 6  21865322.167    21865323.276
        15.500          15.500
                    348813.121 5    271804.092 5  23463532.472    23463533.265
         9.500           8.750
                   7881415.652 6   6141361.657 6  21994279.151    21994280.495
        14.000          14.000
                 -10504564.086 6  -8173863.231 6  21482091.386    21482092.597
        16.250          16.250
 95  4 24 16 22 44.9990000  0  7G 2G18G19G27G28G29G31
                  -6535382.863 5  -5077844.147 5  23048822.480    23048825.245
        10.750          10.250
                     89014.852 6     69362.486 6  20395229.159    20395230.093
        19.500          19.750
                  -5139156.310 6  -4004535.911 6  20488385.972    20488387.222
        19.500          20.000
                 -12036239.079 6  -9378882.834 6  21858661.792    21858662.765
        15.500          15.500
                    369651.696 5    288041.932 5  23467497.925    23467498.858
         9.750           8.750
                   7918652.011 6   6170376.982 6  22001365.034    22001366.522
        14.000          14.000
                 -10518287.437 6  -8184556.749 6  21479479.839    21479481.034
        16.250          16.500
 95  4 24 16 22 59.9990000  0  7G 2G18G19G27G28G29G31
                  -6576938.238 5  -5110224.946 5  23040914.722    23040917.546
        10.500          10.250
                    107701.253 6     83923.314 6  20398784.956    20398785.886
        19.500          19.750
                  -5149454.924 6  -4012560.804 6  20486425.940    20486427.179
        19.500          20.000
                 -12071228.854 6  -9406147.588 6  21852003.378    21852004.440
        15.500          15.500
                    390604.353 5    304368.662 5  23471485.003    23471485.948
         9.750           8.750
                   7955959.657 6   6199447.862 6  22008464.394    22008465.917
        13.750          14.000
                 -10531876.232 6  -8195145.421 6  21476893.980    21476895.062
        16.250          16.250
 95  4 24 16 23 14.9990000  0  7G 2G18G19G27G28G29G31
                  -6618435.470 5  -5142560.441 5  23033018.011    23033020.890
        10.500          10.250
                    126504.281 6     98575.016 6  20402363.183    20402364.222
        19.500          19.750
                  -5159716.536 6  -4020556.864 6  20484473.331    20484474.522
        19.500          20.000
                 -12106205.282 6  -9433401.940 6  21845347.620    21845348.640
        15.500          15.750
                    411671.876 5    320784.902 5  23475494.112    23475495.097
         9.750           9.000
                   7993339.505 6   6228574.994 6  22015577.550    22015579.175
        13.750          14.000
                 -10545330.075 6  -8205628.938 6  21474333.776    21474334.819
        16.250          16.250
 95  4 24 16 23 29.9990000  0  7G 2G18G19G27G28G29G31
                  -6659868.906 5  -5174846.219 5  23025133.409    23025136.577
        10.500          10.250
                    145422.811 6    113316.721 6  20405963.245    20405964.257
        19.500          19.750
                  -5169937.845 6  -4028521.521 6  20482528.245    20482529.511
        19.500          20.000
                 -12141165.506 6  -9460643.667 6  21838694.909    21838695.929
        15.500          15.750
                    432856.876 5    337292.682 5  23479525.378    23479526.620
         9.750           9.000
                   8030796.904 6   6257762.561 6  22022705.417    22022707.116
        13.750          13.750
                 -10558645.965 6  -8216004.954 6  21471799.886    21471800.890
        16.250          16.250
 95  4 24 16 23 44.9990000  0  7G 2G18G19G27G28G29G31
                  -6701245.783 5  -5207087.925 5  23017259.909    23017262.722
        10.750          10.250
                    164448.511 6    128141.930 6  20409583.612    20409584.636
        19.500          19.750
                  -5180125.934 6  -4036460.289 6  20480589.620    20480590.733
        19.500          19.750
                 -12176116.824 6  -9487878.457 6  21832044.120    21832045.136
        15.500          15.750
                    454151.919 5    353886.207 5  23483577.917    23483578.960
         9.750           9.000
                   8068327.880 6   6287007.462 6  22029847.386    22029848.866
        13.750          13.750
                 -10571827.865 6  -8226276.564 6  21469291.589    21469292.491
        16.250          16.250
 95  4 24 16 23 59.9990000  0  7G 2G18G19G27G28G29G31
                  -6742567.139 5  -5239286.373 5  23009396.605    23009399.581
        11.000          10.250
                    183582.463 6    143051.492 6  20413224.714    20413225.730
        19.500          19.750
                  -5190279.033 6  -4044371.800 6  20478657.636    20478658.694
        19.500          19.750
                 -12211057.533 6  -9515104.980 6  21825394.940    21825396.171
        15.500          16.250
                    475558.297 5    370566.487 5  23487651.362    23487652.542
         9.750           9.000
                   8105933.697 6   6316310.678 6  22037003.651    22037005.159
        13.750          13.750
                 -10584870.453 6  -8236439.618 6  21466809.511    21466810.433
        16.250          16.250
 95  4 24 16 24 14.9990000  0  7G 2G18G19G27G28G29G31
                  -6783828.914 5  -5271438.393 5  23001544.683    23001547.647
        11.250          10.250
                    202828.743 6    158048.589 6  20416887.175    20416888.019
        19.250          19.500
                  -5200393.410 6  -4052253.137 6  20476732.886    20476733.976
        19.500          19.750
                 -12245981.855 6  -9542318.732 6  21818748.886    21818750.245
        15.750          16.250
                    497080.136 5    387336.742 5  23491746.894    23491747.983
         9.500           9.000
                   8143618.887 6   6345675.745 6  22044174.847    22044176.323
        13.750          13.750
                 -10597767.152 6  -8246488.989 6  21464355.628    21464356.542
        16.250          16.000
 95  4 24 16 24 29.9990000  0  7G 2G18G19G27G28G29G31
                  -6825033.186 5  -5303545.612 5  22993703.862    22993706.593
        11.500          10.250
                    222184.434 6    173130.938 6  20420570.315    20420571.175
        19.250          19.500
                  -5210471.650 6  -4060106.310 6  20474814.925    20474816.081
        19.500          19.750
                 -12280891.519 6  -9569521.060 6  21812105.901    21812107.210
        15.500          16.500
                    518714.810 5    404194.916 5  23495863.565    23495864.819
         9.500           9.250
                   8181377.903 6   6375098.331 6  22051360.003    22051361.499
        13.750          13.500
                 -10610518.499 6  -8256425.099 6  21461929.136    21461930.120
        16.250          16.000
 95  4 24 16 24 44.9990000  0  7G 2G18G19G27G28G29G31
                  -6866176.202 5  -5335605.099 5  22985874.589    22985877.288
        11.750          10.250
                    241652.215 6    188300.633 6  20424275.214    20424276.030
        19.500          19.500
                  -5220512.855 6  -4067930.630 6  20472904.214    20472905.312
        19.500          19.750
                 -12315783.826 6  -9596709.865 6  21805466.089    21805467.448
        15.500          16.500
                    540462.809 5    421141.394 5  23500002.198    23500003.495
         9.250           9.250
                   8219209.261 6   6404577.292 6  22058559.151    22058560.628
        13.750          13.500
                 -10623123.458 6  -8266247.140 6  21459530.534    21459531.476
        16.250          16.250
 95  4 24 16 24 59.9990000  0  7G 2G18G19G27G28G29G31
                  -6907263.421 5  -5367621.107 5  22978055.894    22978058.776
        11.750          10.750
                    261226.846 6    203553.583 6  20427999.972    20428000.870
        19.500          19.500
                  -5230522.342 6  -4075730.227 6  20470999.433    20471000.624
        19.500          19.750
                 -12350663.070 6  -9623888.491 6  21798828.698    21798830.147
        15.500          16.500
                    562319.067 5    438172.231 5  23504161.370    23504162.468
         9.250           9.250
                   8257107.468 6   6434108.340 6  22065770.956    22065772.343
        13.500          13.250
                 -10635587.711 6  -8275959.543 6  21457158.519    21457159.522
        16.250          16.000
 95  4 24 16 25 14.9990000  0  7G 2G18G19G27G28G29G31
                  -6948294.207 5  -5399593.136 5  22970247.855    22970250.800
        11.500          11.000
                    280910.109 6    218891.183 6  20431745.581    20431746.440
        19.250          19.500
                  -5240497.378 6  -4083502.987 6  20469101.253    20469102.331
        19.500          19.750
                 -12385527.363 6  -9651055.463 6  21792194.214    21792195.542
        15.500          16.750
                    584286.453 5    455289.655 5  23508341.433    23508342.831
         9.000           9.500
                   8295075.293 6   6463693.635 6  22072995.862    22072997.272
        13.250          13.000
                 -10647907.292 6  -8285559.219 6  21454813.972    21454814.991
        16.250          16.250
 95  4 24 16 25 29.9990000  0  7G 2G18G19G27G28G29G31
                  -6989273.228 5  -5431524.827 5  22962449.659    22962452.585
        11.500          11.000
                    300698.992 6    234311.081 6  20435511.315    20435512.202
        19.250          19.250
                  -5250437.847 6  -4091248.806 6  20467209.683    20467210.897
        19.500          19.500
                 -12420378.112 6  -9678211.888 6  21785562.362    21785563.714
        15.500          16.750
                    606364.213 5    472493.084 5  23512542.597    23512544.276
         9.000           9.500
                   8333113.276 6   6493333.601 6  22080234.362    22080235.569
        13.250          12.750
                 -10660082.552 6  -8295046.431 6  21452497.183    21452498.323
        16.250          16.250
 95  4 24 16 25 44.9990000  0  7G 2G18G19G27G28G29G31
                  -7030202.948 5  -5463418.103 5  22954661.308    22954664.206
        11.500          11.500
                    320594.768 6    249814.272 6  20439297.362    20439298.265
        19.000          19.250
                  -5260342.316 6  -4098966.575 6  20465324.980    20465326.050
        19.500          19.500
                 -12455216.507 6  -9705358.683 6  21778932.855    21778934.351
        15.250          17.000
                    628553.431 5    489783.372 5  23516764.972    23516766.640
         8.750           9.750
                   8371224.621 6   6523030.734 6  22087486.776    22087487.819
        13.750          12.500
                 -10672109.645 6  -8304418.191 6  21450208.573    21450209.546
        16.500          16.250
 95  4 24 16 25 59.9990000  0  7G 2G18G19G27G28G29G31
                  -7071089.048 5  -5495277.388 5  22946880.784    22946883.792
        11.500          11.500
                    340595.138 6    265398.965 6  20443103.355    20443104.241
        19.000          19.250
                  -5270215.033 6  -4106659.602 6  20463446.284    20463447.343
        19.500          19.500
                 -12490045.976 6  -9732498.524 6  21772305.065    21772306.460
        15.250          17.000
                    650849.444 5    507156.872 5  23521007.862    23521009.487
         8.750           9.750
                   8409402.587 6   6552779.779 6  22094752.042    22094752.858
        13.750          12.500
                 -10683994.331 6  -8313678.990 6  21447947.058    21447948.069
        16.500          16.250
 95  4 24 16 26 14.9990000  0  7G 2G18G19G27G28G29G31
                  -7111930.095 5  -5527101.566 5  22939108.964    22939111.894
        11.250          11.500
                    360700.499 6    281065.474 6  20446929.159    20446930.089
        19.000          19.250
                  -5280054.727 6  -4114326.898 6  20461573.800    20461574.757
        19.500          19.500
                 -12524865.121 6  -9759630.317 6  21765679.167    21765680.585
        15.250          17.000
                    673252.839 5    524614.043 5  23525271.190    23525272.702
         8.750           9.750
                   8447645.188 6   6582579.190 6  22102029.519    22102030.202
        13.750          12.500
                 -10695738.171 6  -8322830.032 6  21445712.362    21445713.355
        16.500          16.500
 95  4 24 16 26 29.9990000  0  7G 2G18G19G27G28G29G31
                  -7152720.860 5  -5558886.562 5  22931346.667    22931349.487
        11.000          11.500
                    380916.465 6    296818.165 6  20450776.128    20450777.046
        19.000          19.250
                  -5289857.608 6  -4121965.510 6  20459708.339    20459709.448
        19.500          19.500
                 -12559669.327 6  -9786750.474 6  21759056.050    21759057.358
        15.000          16.750
                    695767.097 5    542157.601 5  23529555.612    23529556.960
         9.000           9.750
                   8485955.445 6   6612431.322 6  22109319.714    22109320.593
        13.750          12.500
                 -10707339.052 6  -8331869.679 6  21443504.706    21443505.780
        16.250          16.500
 95  4 24 16 26 44.9990000  0  7G 2G18G19G27G28G29G31
                  -7193466.538 5  -5590636.422 5  22923592.948    22923595.894
        10.750          11.500
                    401240.357 6    312654.956 6  20454643.464    20454644.366
        19.000          19.000
                  -5299625.988 6  -4129577.236 6  20457849.542    20457850.472
        19.500          19.500
                 -12594463.145 6  -9813862.534 6  21752435.034    21752436.280
        15.000          17.000
                    718387.939 5    559784.218 5  23533860.105    23533861.558
         9.000           9.750
                   8524331.980 6   6642335.091 6  22116622.347    22116623.233
        13.750          12.500
                 -10718802.845 6  -8340802.504 6  21441323.105    21441324.155
        16.500          16.500
 95  4 24 16 26 59.9990000  0  7G 2G18G19G27G28G29G31
                  -7234166.866 5  -5622350.941 5  22915847.878    22915850.901
        10.500          11.000
                    421673.540 6    328576.913 6  20458531.800    20458532.823
        19.000          19.000
                  -5309359.150 6  -4137161.518 6  20455997.378    20455998.319
        19.500          19.500
                 -12629248.217 6  -9840967.778 6  21745815.690    21745816.956
        15.000          16.750
                    741115.929 5    577494.322 5  23538185.159    23538186.351
         8.750           9.750
                   8562778.077 6   6672293.070 6  22123938.394    22123939.366
        13.750          12.500
                 -10730130.824 6  -8349629.497 6  21439167.370    21439168.511
        16.250          16.500
 95  4 24 16 27 14.9990000  0  7G 2G18G19G27G28G29G31
                  -7274817.280 5  -5654026.569 5  22908112.503    22908115.108
        10.500          11.000
                    442224.106 6    344590.335 6  20462442.503    20462443.440
        19.000          19.000
                  -5319051.124 6  -4144713.708 6  20454153.089    20454154.085
        19.500          19.500
                 -12664018.567 6  -9868061.554 6  21739199.105    21739200.378
        15.000          17.000
                    763957.972 5    595293.299 5  23542531.948    23542533.280
         9.000           9.750
                   8601301.266 6   6702311.113 6  22131269.245    22131270.198
        13.750          12.750
                 -10741317.528 6  -8358346.406 6  21437038.472    21437039.605
        16.250          16.500
 95  4 24 16 27 29.9990000  0  7G 2G18G19G27G28G29G31
                  -7315423.875 5  -5685668.062 5  22900385.190    22900387.788
        10.500          11.000
                    462886.247 6    360690.699 6  20466374.347    20466375.272
        19.000          19.000
                  -5328708.715 6  -4152239.101 6  20452315.276    20452316.272
        19.750          19.250
                 -12698777.184 6  -9895146.184 6  21732584.737    21732586.065
        15.000          17.000
                    786909.382 5    613177.497 5  23546899.605    23546900.655
         9.000           9.750
                   8639897.665 6   6732386.206 6  22138614.003    22138615.022
        13.750          12.500
                 -10752369.883 6  -8366958.628 6  21434935.417    21434936.429
        16.250          16.250
 95  4 24 16 27 44.9990000  0  7G 2G18G19G27G28G29G31
                  -7355986.350 5  -5717275.167 5  22892666.620    22892669.085
        10.750          10.750
                    483661.566 6    376879.251 6  20470327.823    20470328.694
        19.000          19.000
                  -5338332.185 6  -4159737.910 6  20450483.972    20450484.933
        19.750          19.250
                 -12733520.713 6  -9922219.061 6  21725973.230    21725974.554
        15.000          17.000
                    809969.792 5    631146.626 5  23551287.776    23551289.022
         9.000           9.750
                   8678568.805 6   6762519.540 6  22145972.987    22145973.788
        13.750          12.500
                 -10763290.580 6  -8375468.261 6  21432857.315    21432858.374
        16.250          16.250
 95  4 24 16 27 59.9990000  0  7G 2G18G19G27G28G29G31
                  -7396504.753 5  -5748847.931 5  22884956.237    22884958.714
        11.000          10.750
                    504549.953 6    393155.910 6  20474302.831    20474303.765
        19.250          19.000
                  -5347922.199 6  -4167210.650 6  20448659.050    20448659.952
        19.500          19.000
                 -12768248.616 6  -9949279.759 6  21719364.605    21719366.062
        15.000          17.000
                    833137.652 5    649199.490 5  23555696.644    23555697.675
         9.250           9.750
                   8717309.794 6   6792707.300 6  22153345.058    22153345.956
        13.750          12.500
                 -10774081.989 6  -8383877.151 6  21430803.901    21430804.960
        16.250          16.250
 95  4 24 16 28 14.9990000  0  7G 2G18G19G27G28G29G31
                  -7436978.348 5  -5780385.785 5  22877254.440    22877256.769
        11.000          10.750
                    525548.901 6    409518.716 6  20478298.870    20478299.671
        19.000          18.750
                  -5357476.792 6  -4174655.791 6  20446840.831    20446841.788
        19.500          19.000
                 -12802962.563 6  -9976329.581 6  21712758.722    21712760.128
        15.000          17.000
                    856412.814 5    667335.962 5  23560125.690    23560126.878
         9.250           9.750
                   8756118.527 6   6822947.854 6  22160730.159    22160730.917
        13.750          12.250
                 -10784745.374 6  -8392186.280 6  21428774.651    21428775.753
        16.250          16.250
